     2              OBSERVATION DATA    GPS                 RINEX VERSION / TYPE
teqc 2000Feb29 Duncan Agnew 20000426 17:38:51UTC            PGM / RUN BY / DATE
                                                            COMMENT
L2: 1 -> 1; 150 -> 5; 250 -> 9                              COMMENT
L2: 1 -> 1; 150 -> 5; 250 -> 9                              COMMENT
L2: 1 -> 1; 150 -> 5; 250 -> 9                              COMMENT
L2: 1 -> 1; 150 -> 5; 250 -> 9                              COMMENT
L2: 1 -> 1; 150 -> 5; 250 -> 9                              COMMENT
Original Marker Name: AIMR                                  COMMENT
Campaign Name: Hector Postseismic                           COMMENT
4-Character Station Name: AIMR                              COMMENT
6-Character Antenna Code: DMRCHT                            COMMENT
Vertical Measurement Point: BCR                             COMMENT
Vertical Offset to Rinex Ref. Point: 0.0348                 COMMENT
Radial Measurement Point: ECF                               COMMENT
Radial Offset to Rinex Ref. Point: 0.1897                   COMMENT
Antenna Height from Field Measurement: 0.8270 m             COMMENT
Additional Antenna Identification Info.:                    COMMENT
Turborogue and Ashtech Choke Ring                           COMMENT
Original XYZ: -2337071.0105 -4719804.6054 3586862.5014      COMMENT
New XYZ position is based on association with SCEC monument COMMENT
E1F2H8A4+0011. Position of that monument is believed to be  COMMENT
valid to within 1 m horizontally; vertical accuracy         COMMENT
should be no worse than 3-times this value.                 COMMENT
                                                            COMMENT
Revised Rinex header created by UCSD GPS archive for        COMMENT
GSAC on 31-Jul-2000 (2000:213) 18:09:54 GMT                 COMMENT
For assistance contact dagnew@ucsd.edu                      COMMENT
or anderson@python.ucsd.edu                                 COMMENT
                                                            COMMENT
AIMERS                                                      MARKER NAME
SIO SCRIPPS INSTITUTION OF OCEANOGRAPHY                     OBSERVER / AGENCY
312 ASHTECH Z-XII3 CC00                                     REC # / TYPE / VERS
404 DORNE-MARGOL. TYPE T                                    ANT # / TYPE
 -2337051.4580 -4719743.1957  3586794.7147                  APPROX POSITION XYZ
        0.7701        0.0000        0.0000                  ANTENNA: DELTA H/E/N
     1     1     0                                          WAVELENGTH FACT L1/2
     7    C1    L1    L2    P1    P2    S1    S2            # / TYPES OF OBSERV
     0                                                      INTERVAL
  2000     4    18     0     0   30.000000                  TIME OF FIRST OBS
  2000     4    18    15    39   30.000000                  TIME OF LAST OBS
                                                            END OF HEADER
 00  4 18  0  0 30.0000000  0  6G 6G22G17G21G23G26
  20810234.920   -21957833.50949 -17087045.71847  20810234.674    20810243.596
       243.000         209.000
  23718170.839   -12779164.54149  -9940543.45545  23718170.672    23718185.142
       216.000         157.000
  20803381.458   -23765136.97549 -18131336.82448  20803380.789    20803389.012
       245.000         214.000
  23977231.318    -7098203.54949  -5514675.26145  23977229.489    23977247.718
       216.000         154.000
  21016419.792   -22741101.86349 -16866215.94448  21016418.916    21016428.253
       245.000         214.000
  21704207.217   -18159212.80849 -11641979.87047  21704206.940    21704215.686
       233.000         191.000
 00  4 18  0  1  0.0000000  0  6G 6G22G17G21G23G26
  20820787.153   -21902381.32349 -17043836.29247  20820787.189    20820795.731
       243.000         209.000
  23719123.210   -12774159.85649  -9936643.70745  23719122.603    23719136.749
       216.000         156.000
  20801708.048   -23773930.70649 -18138189.05248  20801707.108    20801715.469
       245.000         214.000
  23961708.284    -7179775.89749  -5578237.69345  23961707.735    23961724.651
       216.000         155.000
  21009919.835   -22775259.20549 -16892831.97548  21009919.056    21009928.070
       246.000         214.000
  21705837.242   -18150646.66349 -11635304.91847  21705837.511    21705846.005
       234.000         191.000
 00  4 18  0  1 30.0000000  0  6G 6G22G17G21G23G26
  20831433.662   -21846433.99349 -17000241.03247  20831433.569    20831442.375
       243.000         209.000
  23720165.384   -12768683.35749  -9932376.30445  23720164.412    23720179.330
       217.000         157.000
  20800067.166   -23782553.42949 -18144908.02648  20800066.314    20800074.711
       245.000         214.000
  23946220.206    -7261164.14649  -5641656.64945  23946219.317    23946236.332
       216.000         155.000
  21003494.228   -22809025.69649 -16919143.44348  21003493.544    21003502.233
       245.000         214.000
  21707587.323   -18141449.51749 -11628138.28147  21707587.220    21707596.150
       234.000         191.000
 00  4 18  0  2  0.0000000  0  6G 6G22G17G21G23G26
  20842172.261   -21790002.52149 -16956268.52847  20842172.224    20842181.150
       243.000         209.000
  23721298.247   -12762730.15249  -9927737.45645  23721298.017    23721312.657
       217.000         157.000
  20798456.958   -23791014.87649 -18151501.33848  20798456.009    20798464.432
       245.000         214.000
  23930768.338    -7342362.07149  -5704927.33145  23930766.455    23930783.822
       215.000         155.000
  20997144.063   -22842395.56949 -16945145.86448  20997143.280    20997152.223
       246.000         214.000
  21709458.305   -18131617.30949 -11620476.79647  21709458.225    21709467.156
       233.000         191.000
 00  4 18  0  2 30.0000000  0  6G 6G22G17G21G23G26
  20852996.453   -21733121.37449 -16911945.63447  20852996.261    20853005.117
       242.000         209.000
  23722525.561   -12756280.06949  -9922711.43045  23722525.188    23722539.708
       215.000         157.000
  20796879.118   -23799306.32049 -18157962.18048  20796878.531    20796886.580
       246.000         214.000
  23915351.848    -7423374.40549  -5768053.38145  23915349.568    23915368.496
       215.000         156.000
  20990871.438   -22875358.04849 -16970830.83948  20990870.843    20990879.702
       245.000         214.000
  21711449.343   -18121154.51149 -11612323.93747  21711449.386    21711457.755
       233.000         190.000
 00  4 18  0  3  0.0000000  0  6G 6G22G17G21G23G26
  20863902.800   -21675808.17449 -16867286.07547  20863902.771    20863911.606
       242.000         208.000
  23723849.281   -12749324.11949  -9917291.22145  23723849.581    23723863.513
       218.000         157.000
  20795337.041   -23807410.06349 -18164276.76348  20795336.188    20795344.464
       245.000         214.000
  23899972.710    -7504190.44749  -5831026.47745  23899970.545    23899988.427
       217.000         156.000
  20984677.655   -22907906.33649 -16996193.06748  20984676.890    20984685.882
       246.000         214.000
  21713559.458   -18110066.21549 -11603683.68447  21713559.386    21713567.714
       233.000         190.000
 00  4 18  0  3 30.0000000  0  6G 6G22G17G21G23G26
  20874892.065   -21618059.51249 -16822287.18247  20874892.083    20874900.957
       243.000         208.000
  23725271.683   -12741848.56649  -9911466.13945  23725270.837    23725287.349
       215.000         157.000
  20793833.361   -23815311.86249 -18170433.98248  20793832.519    20793840.739
       245.000         214.000
  23884631.815    -7584805.69649  -5893843.09345  23884629.865    23884648.378
       216.000         157.000
  20978562.819   -22940039.69449 -17021231.97248  20978562.084    20978571.051
       246.000         214.000
  21715785.989   -18098365.30449 -11594566.05247  21715785.914    21715794.377
       233.000         190.000
 00  4 18  0  4  0.0000000  0  6G 6G22G17G21G23G26
  20885966.124   -21559865.35249 -16776941.15847  20885965.937    20885974.853
       242.000         208.000
  23726795.810   -12733840.21249  -9905225.87645  23726795.251    23726809.870
       217.000         157.000
  20792368.414   -23823009.91649 -18176432.44648  20792367.643    20792375.864
       245.000         214.000
  23869330.716    -7665211.90549  -5956496.83745  23869328.638    23869346.316
       215.000         158.000
  20972529.138   -22971746.59349 -17045938.57748  20972528.401    20972537.166
       245.000         214.000
  21718129.357   -18086050.60349 -11584970.14947  21718129.212    21718137.729
       233.000         190.000
 00  4 18  0  4 30.0000000  0  6G 6G22G17G21G23G26
  20897128.520   -21501206.74749 -16731233.23447  20897128.439    20897137.467
       242.000         208.000
  23728417.869   -12725315.40449  -9898583.19745  23728416.829    23728432.870
       215.000         156.000
  20790943.112   -23830499.82849 -18182268.71948  20790942.400    20790950.771
       245.000         214.000
  23854072.729    -7745391.21749  -6018973.75945  23854071.540    23854089.772
       216.000         159.000
  20966576.373   -23003028.28749 -17070313.85548  20966575.572    20966584.551
       246.000         215.000
  21720589.229   -18073123.49449 -11574897.03947  21720589.189    21720597.914
       233.000         190.000
 00  4 18  0  5  0.0000000  0  6G 6G22G17G21G23G26
  20908386.883   -21442043.97649 -16685132.44847  20908386.995    20908395.726
       243.000         208.000
  23730136.988   -12716282.39849  -9891544.50845  23730136.648    23730151.309
       218.000         156.000
  20789558.069   -23837778.24149 -18187940.18748  20789557.419    20789565.750
       245.000         214.000
  23838858.976    -7825338.16749  -6081269.62745  23838856.533    23838875.165
       217.000         160.000
  20960703.415   -23033890.55049 -17094362.30448  20960702.667    20960711.519
       247.000         215.000
  21723164.514   -18059589.74949 -11564351.23947  21723164.556    21723172.658
       233.000         190.000
 00  4 18  0  5 30.0000000  0  6G 6G22G17G21G23G26
  20919745.987   -21382351.98349 -16638619.28047  20919745.921    20919754.736
       243.000         208.000
  23731952.347   -12706742.83749  -9884111.10245  23731950.333    23731965.400
       215.000         155.000
  20788213.233   -23844845.40449 -18193447.04148  20788212.580    20788220.714
       245.000         214.000
  23823688.222    -7905059.28049  -6143389.51845  23823686.405    23823704.657
       218.000         161.000
  20954914.182   -23064312.81549 -17118067.89548  20954913.375    20954922.118
       246.000         215.000
  21725856.792   -18045440.97549 -11553326.20447  21725857.052    21725865.658
       234.000         190.000
 00  4 18  0  6  0.0000000  0  6G 6G22G17G21G23G26
  20931207.265   -21322122.83049 -16591687.54747  20931207.287    20931216.282
       242.000         208.000
  23733861.351   -12696709.64949  -9876293.08545  23733860.580    23733874.811
       214.000         154.000
  20786908.477   -23851701.95149 -18198789.78348  20786907.613    20786915.687
       245.000         214.000
  23808562.633    -7984542.74149  -6205324.24245  23808561.006    23808579.377
       218.000         161.000
  20949211.939   -23094278.16049 -17141417.45248  20949211.293    20949219.971
       246.000         215.000
  21728672.962   -18030641.90749 -11541794.42947  21728672.943    21728681.828
       233.000         190.000
 00  4 18  0  6 30.0000000  0  6G 6G22G17G21G23G26
  20942765.632   -21261383.48749 -16544358.26147  20942765.365    20942774.548
       242.000         207.000
  23735863.057   -12686191.83349  -9868097.38745  23735862.294    23735877.442
       219.000         155.000
  20785644.876   -23858342.11049 -18203963.91148  20785644.168    20785652.219
       245.000         214.000
  23793479.174    -8063805.27849  -6267086.82845  23793477.818    23793494.964
       219.000         162.000
  20943593.030   -23123805.37449 -17164425.60848  20943592.433    20943601.069
       246.000         215.000
  21731613.447   -18015189.75449 -11529753.76147  21731613.337    21731621.899
       234.000         190.000
 00  4 18  0  7  0.0000000  0  6G 6G22G17G21G23G26
  20954420.175   -21200138.52649 -16496634.98947  20954419.977    20954429.001
       242.000         207.000
  23737965.643   -12675144.30549  -9859488.94245  23737964.259    23737979.259
       215.000         155.000
  20784425.824   -23864748.02249 -18208955.51148  20784425.122    20784433.176
       245.000         214.000
  23778438.449    -8142843.02949  -6328674.25945  23778437.200    23778453.785
       220.000         162.000
  20938060.750   -23152877.47649 -17187079.12848  20938059.973    20938068.654
       246.000         215.000
  21734682.900   -17999059.31849 -11517184.56147  21734682.852    21734691.396
       233.000         190.000
 00  4 18  0  7 30.0000000  0  6G 6G22G17G21G23G26
  20966160.783   -21138441.55649 -16448559.50747  20966160.659    20966169.870
       242.000         207.000
  23740165.649   -12663582.49249  -9850479.75145  23740164.316    23740180.271
       214.000         155.000
  20783247.704   -23870938.93649 -18213779.58048  20783246.908    20783255.153
       245.000         214.000
  23763439.184    -8221663.01949  -6390092.02346  23763436.515    23763454.623
       219.000         163.000
  20932609.036   -23181526.17149 -17209402.72448  20932608.397    20932616.950
       246.000         215.000
  21737882.633   -17982245.13549 -11504082.57047  21737882.957    21737891.454
       233.000         189.000
 00  4 18  0  8  0.0000000  0  6G 6G22G17G21G23G26
  20977978.870   -21076337.35949 -16400166.70547  20977978.777    20977987.774
       242.000         207.000
  23742459.426   -12651527.51849  -9841086.29545  23742457.998    23742473.490
       212.000         155.000
  20782104.989   -23876943.94149 -18218458.78648  20782104.249    20782112.342
       245.000         214.000
  23748478.850    -8300278.41449  -6451350.38346  23748477.951    23748493.693
       221.000         164.000
  20927224.470   -23209822.04249 -17231451.39048  20927223.645    20927232.333
       246.000         215.000
  21741206.990   -17964775.47149 -11490469.82247  21741206.936    21741215.507
       233.000         190.000
 00  4 18  0  8 30.0000000  0  6G 6G22G17G21G23G26
  20989868.277   -21013858.36549 -16351481.85147  20989868.247    20989877.272
       242.000         206.000
  23744845.704   -12638985.99249  -9831313.71545  23744845.396    23744860.218
       214.000         154.000
  20780990.878   -23882798.44049 -18223020.71448  20780990.190    20780998.274
       245.000         214.000
  23733552.370    -8378716.15049  -6512470.30746  23733550.865    23733568.127
       219.000         164.000
  20921899.055   -23237806.87849 -17253257.69348  20921898.191    20921907.045
       246.000         215.000
  21744645.930   -17946703.58449 -11476387.80847  21744645.615    21744654.684
       233.000         189.000
 00  4 18  0  9  0.0000000  0  6G 6G22G17G21G23G26
  21001829.014   -20951004.59449 -16302504.96547  21001829.036    21001837.896
       242.000         206.000
  23747319.974   -12625984.13349  -9821182.41545  23747320.212    23747334.791
       216.000         155.000
  20779899.938   -23888531.21649 -18227487.78848  20779899.185    20779907.472
       245.000         214.000
  23718657.873    -8456985.54649  -6573459.07046  23718655.976    23718672.958
       221.000         165.000
  20916629.026   -23265500.90649 -17274837.39548  20916628.080    20916636.945
       246.000         215.000
  21748193.419   -17928061.43549 -11461861.43647  21748193.269    21748201.875
       233.000         189.000
 00  4 18  0  9 30.0000000  0  6G 6G22G17G21G23G26
  21013863.103   -20887765.35449 -16253227.71347  21013863.245    21013872.305
       242.000         207.000
  23749875.843   -12612553.48349  -9810717.01645  23749874.444    23749890.495
       215.000         155.000
  20778829.197   -23894157.89749 -18231872.19748  20778828.476    20778836.599
       245.000         214.000
  23703794.351    -8535092.34249  -6634321.15146  23703793.375    23703809.552
       222.000         165.000
  20911414.028   -23292905.61749 -17296191.65548  20911413.310    20911421.989
       246.000         215.000
  21751847.130   -17908860.63949 -11446899.75347  21751846.720    21751855.142
       234.000         189.000
 00  4 18  0 10  0.0000000  0  6G 6G22G17G21G23G26
  21025975.545   -20824114.60149 -16203629.80447  21025975.370    21025984.578
       242.000         206.000
  23752512.594   -12598697.38749  -9799920.09445  23752513.877    23752526.914
       218.000         155.000
  20777779.357   -23899674.88749 -18236171.13048  20777778.693    20777786.792
       245.000         214.000
  23688960.635    -8613042.62749  -6695061.27346  23688959.225    23688975.422
       222.000         165.000
  20906260.305   -23319988.30049 -17317294.98048  20906259.488    20906268.221
       247.000         216.000
  21755605.765   -17889109.02149 -11431508.85847  21755605.698    21755614.342
       233.000         189.000
 00  4 18  0 10 30.0000000  0  6G 6G22G17G21G23G26
  21038171.379   -20760025.23849 -16153690.12547  21038171.467    21038180.455
       242.000         206.000
  23755232.653   -12584405.69049  -9788783.72745  23755231.495    23755247.680
       214.000         156.000
  20776755.737   -23905053.94649 -18240362.58948  20776754.842    20776763.209
       245.000         214.000
  23674160.087    -8690818.37949  -6755665.41746  23674158.621    23674174.684
       221.000         165.000
  20901176.992   -23346701.05849 -17338110.05548  20901176.387    20901185.067
       246.000         216.000
  21759473.440   -17868784.15349 -11415671.27547  21759473.380    21759481.467
       233.000         189.000
 00  4 18  0 11  0.0000000  0  6G 6G22G17G21G23G26
  21050454.728   -20695476.19049 -16103392.25247  21050454.564    21050463.744
       241.000         206.000
  23758034.731   -12569679.94649  -9777309.16945  23758034.105    23758049.739
       216.000         155.000
  20775765.879   -23910255.66449 -18244415.86248  20775765.077    20775773.391
       245.000         214.000
  23659398.368    -8768390.29649  -6816110.70646  23659396.211    23659412.213
       221.000         164.000
  20896170.617   -23373009.37349 -17358609.97748  20896169.883    20896178.425
       246.000         216.000
  21763456.126   -17847855.07949 -11399362.87647  21763456.093    21763464.750
       233.000         189.000
 00  4 18  0 11 30.0000000  0  6G 6G22G17G21G23G26
  21062827.051   -20630459.47949 -16052729.96147  21062826.938    21062836.196
       242.000         205.000
  23760923.628   -12554499.04349  -9765479.93445  23760922.965    23760937.950
       217.000         155.000
  20774816.978   -23915242.10049 -18248301.38048  20774816.234    20774824.482
       247.000         214.000
  23644679.818    -8845734.97249  -6876378.93046  23644679.039    23644694.506
       221.000         164.000
  20891247.051   -23398882.66749 -17378770.91748  20891246.271    20891254.959
       246.000         216.000
  21767559.296   -17826292.26349 -11382560.65547  21767558.963    21767567.887
       233.000         189.000
 00  4 18  0 12  0.0000000  0  6G 6G22G17G21G23G26
  21075290.429   -20564964.37749 -16001694.90047  21075290.510    21075299.676
       241.000         205.000
  23763902.746   -12538844.94849  -9753281.97045  23763900.894    23763916.282
       216.000         155.000
  20773915.071   -23919981.45649 -18251994.37048  20773914.458    20773922.623
       246.000         214.000
  23630007.894    -8922835.27649  -6936456.72546  23630006.567    23630023.122
       221.000         165.000
  20886407.571   -23424314.11349 -17398587.56448  20886406.841    20886415.399
       246.000         216.000
  21771784.120   -17804090.53749 -11365260.58347  21771783.938    21771792.836
       232.000         189.000
 00  4 18  0 12 30.0000000  0  6G 6G22G17G21G23G26
  21087845.241   -20498988.59649 -15950285.28447  21087845.189    21087854.557
       241.000         205.000
  23766973.664   -12522705.88649  -9740706.12345  23766971.938    23766988.262
       213.000         154.000
  20773063.571   -23924456.00249 -18255481.01148  20773062.778    20773070.964
       246.000         214.000
  23615384.824    -8999678.88049  -6996334.51646  23615383.440    23615400.296
       222.000         165.000
  20881651.312   -23449308.24349 -17418063.44148  20881650.664    20881658.941
       247.000         216.000
  21776131.980   -17781242.36049 -11347456.80047  21776132.337    21776140.728
       233.000         189.000
 00  4 18  0 13  0.0000000  0  6G 6G22G17G21G23G26
  21100490.920   -20432535.41149 -15898503.66847  21100490.884    21100500.142
       241.000         205.000
  23770137.589   -12506078.31549  -9727749.60645  23770137.836    23770151.887
       217.000         154.000
  20772262.060   -23928667.94549 -18258763.02948  20772261.223    20772269.529
       246.000         214.000
  23600809.549    -9076270.77249  -7056016.14646  23600808.760    23600823.106
       221.000         164.000
  20876977.132   -23473870.91649 -17437203.11748  20876976.450    20876985.011
       246.000         216.000
  21780603.079   -17757746.97749 -11329148.68847  21780602.752    21780611.491
       233.000         189.000
 00  4 18  0 13 30.0000000  0  6G 6G22G17G21G23G26
  21113227.489   -20365604.62349 -15846349.89447  21113227.417    21113236.493
       241.000         205.000
  23773397.836   -12488946.84549  -9714400.45045  23773396.940    23773412.191
       217.000         154.000
  20771508.639   -23932626.99649 -18261847.98948  20771507.934    20771516.219
       247.000         214.000
  23586278.700    -9152629.45149  -7115516.05446  23586277.340    23586293.337
       221.000         164.000
  20872383.444   -23498010.59949 -17456013.19348  20872382.610    20872391.196
       246.000         216.000
  21785195.964   -17733610.87149 -11310341.32147  21785196.352    21785203.557
       233.000         189.000
 00  4 18  0 14  0.0000000  0  6G 6G22G17G21G23G26
  21126054.000   -20298200.95049 -15793827.63947  21126053.977    21126063.431
       241.000         204.000
  23776753.710   -12471310.78349  -9700658.12645  23776754.405    23776768.414
       217.000         154.000
  20770800.353   -23936348.97149 -18264748.21248  20770799.495    20770807.744
       247.000         214.000
  23571791.310    -9228759.78949  -7174838.02546  23571789.450    23571805.859
       221.000         164.000
  20867869.934   -23521728.72249 -17474494.77648  20867869.265    20867877.805
       247.000         216.000
  21789909.754   -17708839.71949 -11291039.11347  21789909.989    21789917.834
       234.000         189.000
 00  4 18  0 14 30.0000000  0  6G 6G22G17G21G23G26
  21138967.502   -20230340.48449 -15740949.44447  21138967.088    21138976.730
       240.000         204.000
  23780204.993   -12453174.38349  -9686525.90945  23780206.126    23780219.965
       218.000         154.000
  20770134.506   -23939848.07549 -18267474.77148  20770133.806    20770142.003
       246.000         214.000
  23557346.959    -9304663.62549  -7233983.50046  23557346.378    23557361.479
       221.000         164.000
  20863435.979   -23545029.22049 -17492650.94048  20863435.244    20863443.876
       247.000         216.000
  21794745.230   -17683428.99949 -11271238.52947  21794744.802    21794753.359
       233.000         189.000
 00  4 18  0 15  0.0000000  0  6G 6G22G17G21G23G26
  21151965.758   -20162034.26149 -15687723.91447  21151965.759    21151975.106
       240.000         204.000
  23783750.101   -12434546.02449  -9672010.36345  23783748.953    23783764.474
       215.000         154.000
  20769507.508   -23943142.86549 -18270042.12848  20769506.610    20769514.968
       246.000         214.000
  23542943.505    -9380353.06549  -7292961.93646  23542941.411    23542957.476
       219.000         164.000
  20859080.333   -23567918.07549 -17510486.34348  20859079.680    20859088.168
       248.000         216.000
  21799701.003   -17657385.99749 -11250945.28147  21799701.331    21799709.031
       234.000         189.000
 00  4 18  0 15 30.0000000  0  6G 6G22G17G21G23G26
  21165048.461   -20093284.44549 -15634152.72247  21165048.432    21165057.806
       240.000         204.000
  23787387.872   -12415429.41549  -9657114.35945  23787386.155    23787402.558
       215.000         154.000
  20768918.254   -23946239.43349 -18272455.02648  20768917.398    20768925.549
       246.000         214.000
  23528580.329    -9455830.35049  -7351775.04146  23528578.384    23528594.379
       220.000         164.000
  20854803.518   -23590392.65049 -17527998.92748  20854802.780    20854811.153
       248.000         216.000
  21804777.277   -17630710.59249 -11230159.24547  21804777.417    21804785.628
       232.000         189.000
 00  4 18  0 16  0.0000000  0  7G 3G 6G22G17G21G23G26
  24632887.964    -8618415.85349  -6686808.05945  24632887.767    24632904.452
       204.000         140.000
  21178214.610   -20024096.25849 -15580239.94447  21178214.627    21178223.964
       241.000         204.000
  23791115.826   -12395838.54549  -9641848.81745  23791115.034    23791130.681
       215.000         154.000
  20768363.704   -23949153.57749 -18274725.77948  20768363.111    20768371.084
       246.000         214.000
  23514259.000    -9531088.08249  -7410417.07946  23514257.268    23514272.848
       220.000         165.000
  20850604.054   -23612460.63949 -17545194.69948  20850603.318    20850611.751
       248.000         216.000
  21809974.385   -17603399.37549 -11208877.76747  21809974.409    21809982.807
       233.000         189.000
 00  4 18  0 16 30.0000000  0  7G 3G 6G22G17G21G23G26
  24613356.656    -8721052.97549  -6766784.81645  24613356.618    24613372.462
       207.000         143.000
  21191462.157   -19954480.30349 -15525993.84247  21191462.246    21191471.630
       240.000         203.000
  23794929.173   -12375799.59449  -9626234.09945  23794928.424    23794943.276
       213.000         154.000
  20767838.516   -23951913.45549 -18276876.32348  20767837.695    20767846.004
       246.000         214.000
  23499976.245    -9606142.95849  -7468901.06046  23499974.316    23499990.829
       221.000         165.000
  20846477.146   -23634147.42849 -17562093.43048  20846476.525    20846485.127
       248.000         216.000
  21815289.245   -17575469.68349 -11187114.35947  21815288.950    21815297.309
       233.000         189.000
 00  4 18  0 17  0.0000000  0  7G 3G 6G22G17G21G23G26
  24593839.054    -8823618.15149  -6846705.52945  24593838.450    24593854.213
       207.000         144.000
  21204792.522   -19884429.29549 -15471408.73847  21204792.488    21204801.802
       240.000         203.000
  23798828.735   -12355307.28149  -9610266.12945  23798828.874    23798843.458
       216.000         154.000
  20767344.882   -23954507.39649 -18278897.56648  20767344.117    20767352.290
       247.000         214.000
  23485732.693    -9680991.98849  -7527224.66646  23485732.196    23485747.425
       223.000         165.000
  20842422.498   -23655454.58649 -17578696.34848  20842421.772    20842430.106
       248.000         216.000
  21820720.256   -17546929.52249 -11164875.26047  21820720.290    21820728.636
       233.000         189.000
 00  4 18  0 17 30.0000000  0  7G 3G 6G22G17G21G23G26
  24574336.983    -8926101.19849  -6926562.23745  24574336.621    24574351.847
       208.000         145.000
  21218206.227   -19813940.04549 -15416482.14947  21218206.251    21218215.675
       240.000         203.000
  23802813.700   -12334366.40249  -9593948.64045  23802813.055    23802828.287
       216.000         154.000
  20766884.102   -23956928.65949 -18280784.25748  20766883.366    20766891.436
       246.000         214.000
  23471530.640    -9755622.97549  -7585378.38146  23471528.779    23471545.172
       220.000         165.000
  20838438.262   -23676391.62949 -17595010.86848  20838437.470    20838445.833
       248.000         216.000
  21826266.173   -17517785.52549 -11142165.64647  21826265.671    21826274.280
       232.000         188.000
 00  4 18  0 18  0.0000000  0  7G 3G 6G22G17G21G23G26
  24554852.811    -9028490.74249  -7006346.07845  24554852.329    24554868.649
       210.000         146.000
  21231703.323   -19743012.74349 -15361214.22847  21231703.298    21231713.114
       240.000         203.000
  23806882.577   -12312984.39949  -9577287.38745  23806881.719    23806896.886
       216.000         154.000
  20766456.976   -23959173.08449 -18282533.15448  20766456.281    20766464.505
       246.000         214.000
  23457371.253    -9830029.85349  -7643357.47846  23457369.251    23457383.665
       221.000         165.000
  20834522.184   -23696970.31449 -17611046.15148  20834521.401    20834529.930
       248.000         216.000
  21831922.832   -17488059.35749 -11119002.38847  21831922.994    21831931.358
       233.000         188.000
 00  4 18  0 18 30.0000000  0  7G 3G 6G22G17G21G23G26
  24535386.925    -9130784.35149  -7086055.17045  24535385.966    24535401.760
       211.000         145.000
  21245282.340   -19671655.00149 -15305610.89647  21245282.157    21245291.665
       239.000         203.000
  23811036.157   -12291157.81749  -9560279.72745  23811035.193    23811050.369
       215.000         154.000
  20766068.411   -23961215.03849 -18284124.28048  20766067.661    20766075.925
       247.000         214.000
  23443255.780    -9904205.99849  -7701156.78446  23443255.172    23443269.658
       222.000         166.000
  20830673.525   -23717195.07549 -17626805.64748  20830672.755    20830681.148
       248.000         216.000
  21837687.560   -17457765.45749 -11095396.73947  21837687.793    21837695.803
       233.000         188.000
 00  4 18  0 19  0.0000000  0  7G 3G 6G22G17G21G23G26
  24515942.437    -9232965.19649  -7165676.38845  24515941.097    24515957.889
       213.000         144.000
  21258942.147   -19599872.57449 -15249676.64547  21258941.901    21258951.757
       239.000         202.000
  23815275.982   -12268877.38149  -9542918.41445  23815275.848    23815291.202
       217.000         154.000
  20765722.186   -23963034.55049 -18285542.07748  20765721.670    20765729.676
       246.000         214.000
  23429184.124    -9978151.62949  -7758776.47746  23429182.165    23429197.828
       222.000         166.000
  20826892.189   -23737065.77949 -17642289.26248  20826891.443    20826899.805
       248.000         217.000
  21843560.809   -17426901.44049 -11071346.85247  21843560.728    21843569.196
       233.000         188.000
 00  4 18  0 19 30.0000000  0  7G 3G 6G22G17G21G23G26
  24496522.021    -9335019.67049  -7245199.16745  24496520.901    24496535.978
       215.000         143.000
  21272680.994   -19527674.79749 -15193418.74147  21272681.089    21272690.795
       239.000         202.000
  23819601.038   -12246149.06349  -9525208.11345  23819599.874    23819616.035
       214.000         154.000
  20765417.276   -23964636.81749 -18286790.59548  20765416.421    20765424.522
       246.000         214.000
  23415156.708   -10051864.89849  -7816215.15246  23415155.625    23415169.995
       221.000         167.000
  20823180.081   -23756572.81649 -17657489.50048  20823179.263    20823187.705
       248.000         217.000
  21849546.040   -17395448.10749 -11046837.75347  21849545.814    21849554.460
       232.000         188.000
 00  4 18  0 20  0.0000000  0  7G 3G 6G22G17G21G23G26
  24477125.569    -9436947.97749  -7324623.65045  24477124.539    24477140.048
       215.000         144.000
  21286496.729   -19455073.02449 -15136846.03547  21286496.665    21286506.377
       239.000         201.000
  23824010.805   -12222975.68749  -9507151.00645  23824010.151    23824024.522
       217.000         154.000
  20765153.677   -23966021.98349 -18287869.94548  20765152.844    20765161.059
       246.000         214.000
  23401173.006   -10125348.72449  -7873475.01946  23401171.836    23401186.622
       222.000         167.000
  20819537.558   -23775714.12249 -17672404.75648  20819536.905    20819545.212
       248.000         217.000
  21855646.042   -17363392.10449 -11021859.04147  21855646.201    21855654.512
       232.000         188.000
 00  4 18  0 20 30.0000000  0  7G 3G 6G22G17G21G23G26
  24457752.168    -9538755.12049  -7403953.71145  24457751.621    24457766.319
       215.000         143.000
  21300387.755   -19382075.63349 -15079965.05147  21300387.938    21300397.400
       240.000         201.000
  23828506.452   -12199351.16249  -9488742.34445  23828505.989    23828520.823
       216.000         154.000
  20764928.362   -23967206.01949 -18288792.56248  20764927.550    20764935.718
       246.000         214.000
  23387228.610   -10198625.99449  -7930573.93346  23387227.020    23387242.203
       223.000         168.000
  20815964.463   -23794490.52849 -17687035.66848  20815963.768    20815971.993
       247.000         217.000
  21861864.148   -17330715.64649 -10996396.85347  21861864.046    21861872.423
       232.000         188.000
 00  4 18  0 21  0.0000000  0  7G 3G 6G22G17G21G23G26
  24438403.829    -9640430.60849  -7483181.17645  24438402.836    24438417.537
       215.000         143.000
  21314354.185   -19308681.93449 -15022775.25547  21314354.280    21314364.031
       239.000         201.000
  23833086.235   -12175284.28549  -9469989.00945  23833085.648    23833100.274
       214.000         154.000
  20764737.598   -23968208.43449 -18289573.66448  20764736.942    20764744.979
       246.000         214.000
  23373319.389   -10271718.16049  -7987528.62346  23373317.879    23373334.827
       222.000         168.000
  20812461.331   -23812899.51849 -17701380.28548  20812460.723    20812469.032
       248.000         217.000
  21868202.333   -17297408.73949 -10970443.41147  21868202.588    21868210.787
       232.000         188.000
 00  4 18  0 21 30.0000000  0  7G 3G 6G22G17G21G23G26
  24419079.346    -9741980.68249  -7562310.92645  24419078.004    24419093.920
       215.000         144.000
  21328396.471   -19234889.63249 -14965274.86147  21328396.288    21328406.295
       239.000         201.000
  23837747.788   -12150787.83949  -9450900.95045  23837746.791    23837762.282
       216.000         155.000
  20764578.967   -23969041.87449 -18290223.09748  20764578.262    20764586.355
       246.000         214.000
  23359445.988   -10344622.09649  -8044336.62746  23359444.623    23359459.521
       221.000         168.000
  20809027.961   -23830941.80449 -17715439.16248  20809027.440    20809035.620
       248.000         217.000
  21874658.770   -17263480.01349 -10944005.44047  21874658.679    21874667.283
       233.000         188.000
 00  4 18  0 22  0.0000000  0  7G 3G 6G22G17G21G23G26
  24399779.601    -9843401.05149  -7641339.60945  24399778.595    24399793.918
       216.000         145.000
  21342517.073   -19160685.74449 -14907453.75247  21342517.233    21342527.013
       239.000         201.000
  23842490.632   -12125863.93949  -9431479.80845  23842491.037    23842504.489
       217.000         155.000
  20764451.222   -23969713.35149 -18290746.32348  20764450.520    20764458.781
       246.000         214.000
  23345608.953   -10417335.33849  -8100996.05646  23345608.062    23345621.856
       221.000         168.000
  20805663.580   -23848621.58749 -17729215.56548  20805662.599    20805670.982
       248.000         217.000
  21881228.951   -17228952.99349 -10917101.26747  21881229.170    21881237.180
       233.000         188.000
 00  4 18  0 22 30.0000000  0  7G 3G 6G22G17G21G23G26
  24380504.987    -9944689.31949  -7720265.35545  24380503.948    24380520.426
       216.000         144.000
  21356716.238   -19086069.12649 -14849311.03447  21356716.273    21356725.882
       239.000         200.000
  23847315.905   -12100507.87749  -9411721.90845  23847314.817    23847330.467
       215.000         155.000
  20764356.748   -23970209.78449 -18291133.15648  20764356.175    20764364.233
       246.000         214.000
  23331809.876   -10489849.07549  -8157500.00846  23331809.814    23331822.183
       223.000         169.000
  20802369.761   -23865930.40449 -17742702.90648  20802368.840    20802377.348
       248.000         217.000
  21887908.275   -17193852.90849 -10889750.54747  21887908.127    21887916.913
       232.000         188.000
 00  4 18  0 23  0.0000000  0  7G 3G 6G22G17G21G23G26
  24361257.503   -10045834.66249  -7799079.73445  24361256.553    24361271.228
       215.000         144.000
  21370993.391   -19011042.71349 -14790848.99347  21370993.409    21371003.110
       238.000         200.000
  23852221.483   -12074728.97049  -9391634.55045  23852221.251    23852236.274
       218.000         156.000
  20764301.715   -23970498.98249 -18291358.50548  20764300.984    20764309.028
       246.000         214.000
  23318056.120   -10562124.40349  -8213818.16846  23318055.396    23318069.780
       223.000         169.000
  20799148.741   -23882856.66849 -17755892.15148  20799147.900    20799156.172
       247.000         217.000
  21894697.015   -17158177.98849 -10861951.90447  21894696.927    21894705.305
       233.000         188.000
 00  4 18  0 23 30.0000000  0  7G 3G 6G22G17G21G23G26
  24342037.431   -10146835.97649  -7877781.87145  24342036.139    24342051.354
       214.000         144.000
  21385350.599   -18935595.33249 -14732058.92947  21385350.650    21385360.195
       238.000         200.000
  23857209.643   -12048517.02449  -9371209.75245  23857209.198    23857224.412
       218.000         156.000
  20764289.473   -23970563.12149 -18291408.48048  20764288.722    20764296.880
       245.000         214.000
  23304353.198   -10634132.68449  -8269928.24246  23304352.872    23304366.228
       224.000         170.000
  20796001.847   -23899393.68649 -17768778.09048  20796001.128    20796009.300
       247.000         217.000
  21901594.766   -17121930.49649 -10833707.11547  21901594.642    21901602.910
       232.000         188.000
 00  4 18  0 24  0.0000000  0  7G 3G 6G22G17G21G23G26
  24322844.452   -10247694.54349  -7956372.77445  24322843.756    24322860.222
       211.000         143.000
  21399788.480   -18859723.94249 -14672938.47847  21399788.505    21399798.096
       238.000         200.000
  23862281.521   -12021864.54549  -9350441.65345  23862280.697    23862297.157
       217.000         156.000
  20764324.465   -23970379.17749 -18291265.14748  20764323.678    20764331.785
       245.000         214.000
  23290701.018   -10705874.13749  -8325830.38646  23290700.144    23290714.338
       225.000         170.000
  20792931.195   -23915529.80349 -17781351.64148  20792930.474    20792938.716
       247.000         217.000
  21908603.083   -17085100.93849 -10805008.75947  21908603.340    21908611.748
       233.000         188.000
 00  4 18  0 24 30.0000000  0  7G 3G 6G22G17G21G23G26
  24303677.939   -10348414.31549  -8034855.51045  24303678.354    24303691.794
       211.000         143.000
  21414308.234   -18783422.55549 -14613482.96147  21414308.113    21414318.191
       238.000         200.000
  23867437.278   -11994770.73949  -9329329.68545  23867436.707    23867451.726
       217.000         156.000
  20764409.504   -23969932.37149 -18290916.98348  20764408.969    20764417.186
       245.000         214.000
  23277100.812   -10777342.66649  -8381519.87246  23277098.950    23277114.639
       224.000         170.000
  20789938.856   -23931254.43149 -17793604.55348  20789938.065    20789946.399
       247.000         217.000
  21915728.240   -17047657.68849 -10775832.20347  21915728.507    21915737.048
       232.000         188.000
 00  4 18  0 25  0.0000000  0  7G 3G 6G22G17G21G23G26
  24284538.648   -10448990.86249  -8113226.62845  24284538.014    24284552.809
       210.000         143.000
  21428911.481   -18706682.45449 -14553685.58447  21428911.783    21428921.085
       238.000         200.000
  23872675.141   -11967246.00149  -9307881.93045  23872674.471    23872689.600
       218.000         156.000
  20764540.621   -23969243.33049 -18290380.05648  20764539.858    20764547.935
       245.000         214.000
  23263549.763   -10848552.89049  -8437008.07646  23263548.211    23263563.063
       224.000         170.000
  20787022.812   -23946577.93349 -17805544.89548  20787022.194    20787030.287
       247.000         217.000
  21922975.226   -17009574.65349 -10746157.11247  21922975.600    21922983.834
       232.000         188.000
 00  4 18  0 25 30.0000000  0  7G 3G 6G22G17G21G23G26
  24265425.710   -10549429.03849  -8191489.92945  24265424.806    24265439.884
       207.000         143.000
  21443598.593   -18629501.60049 -14493544.77247  21443598.945    21443608.724
       238.000         199.000
  23877995.230   -11939289.05249  -9286097.39745  23877995.278    23878009.728
       218.000         156.000
  20764713.293   -23968335.84649 -18289672.92548  20764712.689    20764720.665
       245.000         214.000
  23250044.304   -10919523.45049  -8492309.55546  23250043.280    23250056.999
       223.000         171.000
  20784180.911   -23961512.17149 -17817181.92248  20784180.311    20784188.575
       247.000         217.000
  21930340.712   -16970868.46349 -10715996.45046  21930341.111    21930349.195
       232.000         187.000
 00  4 18  0 26  0.0000000  0  7G 3G 6G22G17G21G23G26
  24246340.807   -10649719.89449  -8269638.40745  24246338.669    24246354.718
       206.000         142.000
  21458365.325   -18551902.40949 -14433077.97547  21458365.073    21458375.379
       237.000         199.000
  23883396.418   -11910906.24449  -9263981.00845  23883395.709    23883411.495
       216.000         156.000
  20764923.960   -23967228.69349 -18288810.20648  20764923.413    20764931.369
       245.000         214.000
  23236581.324   -10990270.42549  -8547436.80046  23236580.350    23236594.707
       224.000         171.000
  20781411.618   -23976064.66249 -17828521.48448  20781410.949    20781419.081
       247.000         217.000
  21937824.876   -16931538.79149 -10685349.96346  21937824.620    21937833.340
       232.000         187.000
 00  4 18  0 26 30.0000000  0  7G 3G 6G22G17G21G23G26
  24227286.040   -10749851.91749  -8347663.10745  24227284.760    24227300.867
       207.000         144.000
  21473207.609   -18473906.10149 -14372301.74447  21473207.558    21473217.601
       237.000         198.000
  23888878.059   -11882100.33649  -9241534.95345  23888877.864    23888892.480
       218.000         156.000
  20765171.438   -23965928.24249 -18287796.86548  20765170.771    20765178.770
       245.000         214.000
  23223161.077   -11060793.29649  -8602389.42146  23223160.111    23223174.659
       224.000         172.000
  20778711.121   -23990255.72249 -17839579.41548  20778710.328    20778718.671
       247.000         217.000
  21945425.127   -16891598.78949 -10654227.89446  21945425.108    21945433.454
       232.000         187.000
 00  4 18  0 27  0.0000000  0  7G 3G 6G22G17G21G23G26
  24208262.285   -10849821.07849  -8425560.89545  24208261.219    24208276.106
       207.000         145.000
  21488121.778   -18395532.00649 -14311231.12647  21488122.023    21488131.837
       238.000         198.000
  23894441.082   -11852866.70749  -9218755.59945  23894441.023    23894456.710
       217.000         156.000
  20765456.419   -23964430.65449 -18286629.90448  20765455.664    20765464.018
       245.000         214.000
  23209781.654   -11131101.50449  -8657174.79746  23209781.812    23209794.530
       226.000         172.000
  20776077.230   -24004096.70349 -17850364.55848  20776076.352    20776084.617
       247.000         217.000
  21953136.849   -16851073.77549 -10622649.96646  21953136.820    21953145.322
       231.000         187.000
 00  4 18  0 27 30.0000000  0  7G 3G 6G22G17G21G23G26
  24189269.608   -10949626.84749  -8503331.36045  24189268.918    24189284.212
       208.000         147.000
  21503105.522   -18316792.22949 -14249875.56247  21503105.530    21503115.770
       237.000         198.000
  23900086.424   -11823200.60849  -9195639.25145  23900085.695    23900101.149
       218.000         155.000
  20765780.985   -23962724.87849 -18285300.72448  20765780.279    20765788.554
       245.000         214.000
  23196444.482   -11201187.97049  -8711787.38546  23196444.016    23196457.494
       225.000         172.000
  20773510.308   -24017585.68549 -17860875.41548  20773509.619    20773518.030
       247.000         217.000
  21960956.907   -16809979.30149 -10590628.29846  21960956.666    21960965.267
       231.000         187.000
 00  4 18  0 28  0.0000000  0  7G 3G 6G22G17G21G23G26
  24170309.463   -11049262.10649  -8580968.96645  24170308.903    24170324.452
       212.000         149.000
  21518158.969   -18237686.25649 -14188234.65247  21518158.829    21518168.986
       237.000         198.000
  23905814.308   -11793100.91549  -9172185.04345  23905813.560    23905829.493
       218.000         156.000
  20766147.240   -23960800.14649 -18283800.93448  20766146.596    20766154.673
       244.000         214.000
  23183147.370   -11271064.13649  -8766236.09546  23183146.961    23183160.120
       224.000         173.000
  20771013.183   -24030708.03149 -17871100.58548  20771012.557    20771020.643
       247.000         217.000
  21968888.120   -16768300.49649 -10558151.31546  21968888.425    21968896.770
       231.000         187.000
 00  4 18  0 28 30.0000000  0  7G 3G 6G22G17G21G23G26
  24151381.892   -11148726.61449  -8658473.52945  24151380.847    24151396.400
       212.000         150.000
  21533285.956   -18158193.77849 -14126292.57347  21533285.936    21533295.565
       236.000         197.000
  23911624.199   -11762569.85049  -9148394.71645  23911623.208    23911638.997
       219.000         156.000
  20766557.241   -23958645.47749 -18282121.97248  20766556.502    20766564.637
       245.000         213.000
  23169891.551   -11340722.74349  -8820515.28346  23169890.618    23169903.948
       224.000         173.000
  20768587.603   -24043454.60749 -17881032.95148  20768586.966    20768595.285
       247.000         217.000
  21976931.384   -16726032.57549 -10525215.28946  21976931.527    21976940.075
       232.000         186.000
 00  4 18  0 29  0.0000000  0  7G 3G 6G22G17G21G23G26
  24132487.423   -11248016.97249  -8735842.38845  24132487.237    24132501.599
       213.000         152.000
  21548490.881   -18078291.57849 -14064031.23047  21548490.840    21548500.634
       236.000         196.000
  23917514.387   -11731617.48549  -9124276.09545  23917513.470    23917528.777
       217.000         156.000
  20767007.441   -23956279.73149 -18280278.52448  20767006.640    20767014.975
       245.000         213.000
  23156677.014   -11410164.32349  -8874625.38346  23156676.157    23156689.954
       223.000         174.000
  20766235.219   -24055816.28549 -17890665.38948  20766234.615    20766242.715
       247.000         217.000
  21985089.016   -16683164.38449 -10491811.51046  21985089.149    21985097.459
       231.000         186.000
 00  4 18  0 29 30.0000000  0  7G 3G 6G22G17G21G23G26
  24113628.387   -11347121.32149  -8813066.31745  24113628.133    24113642.401
       213.000         152.000
  21563774.093   -17997978.25049 -14001449.53047  21563773.930    21563784.278
       236.000         196.000
  23923481.887   -11700258.29949  -9099840.46645  23923480.959    23923497.517
       217.000         156.000
  20767495.377   -23953715.66449 -18278280.54648  20767494.703    20767502.910
       244.000         213.000
  23143504.484   -11479385.55749  -8928563.74546  23143503.396    23143517.196
       222.000         174.000
  20763956.398   -24067791.47549 -17899996.67048  20763955.803    20763963.912
       247.000         217.000
  21993359.702   -16639701.85449 -10457944.61146  21993360.034    21993367.981
       232.000         186.000
 00  4 18  0 30  0.0000000  0  7G 3G 6G22G17G21G23G26
  24094805.197   -11446037.37349  -8890143.50045  24094804.344    24094818.957
       215.000         152.000
  21579136.949   -17917246.23349 -13938541.58447  21579137.064    21579147.303
       236.000         196.000
  23929525.063   -11668501.45549  -9075094.97445  23929524.505    23929539.572
       217.000         155.000
  20768021.952   -23950948.41149 -18276124.24148  20768021.288    20768029.442
       245.000         213.000
  23130375.215   -11548379.36349  -8982324.90546  23130373.656    23130386.963
       223.000         174.000
  20761752.019   -24079375.26149 -17909022.95748  20761751.159    20761759.326
       247.000         217.000
  22001741.708   -16595653.85149 -10423621.49546  22001741.841    22001749.798
       231.000         186.000
 00  4 18  0 30 30.0000000  0  7G 3G 6G22G17G21G23G26
  24076018.984   -11544758.98949  -8967069.18045  24076018.299    24076033.008
       212.000         154.000
  21594579.569   -17836095.14849 -13875307.09947  21594579.434    21594589.594
       235.000         196.000
  23935643.833   -11636347.74249  -9050040.25045  23935643.329    23935657.901
       215.000         155.000
  20768589.349   -23947966.78349 -18273800.89648  20768588.855    20768596.888
       245.000         214.000
  23117294.628   -11617117.37149  -9035886.73346  23117293.890    23117307.565
       227.000         174.000
  20759620.587   -24090575.79749 -17917750.61048  20759619.934    20759628.148
       247.000         217.000
  22010231.759   -16551038.25849 -10388856.11246  22010231.694    22010240.663
       230.000         186.000
 00  4 18  0 31  0.0000000  0  7G 3G 6G22G17G21G23G26
  24057270.607   -11643281.55349  -9043839.76545  24057269.939    24057284.279
       217.000         155.000
  21610099.601   -17754537.21949 -13811755.59647  21610099.360    21610109.999
       235.000         195.000
  23941840.305   -11603785.54749  -9024667.22745  23941840.399    23941855.741
       217.000         155.000
  20769200.646   -23944754.49449 -18271297.81648  20769200.042    20769208.001
       245.000         214.000
  23104262.480   -11685601.08949  -9089250.44546  23104261.373    23104275.431
       226.000         175.000
  20757561.268   -24101397.54449 -17926183.10648  20757560.540    20757568.650
       247.000         217.000
  22018827.924   -16505865.31449 -10353656.42446  22018828.033    22018837.208
       231.000         185.000
 00  4 18  0 31 30.0000000  0  7G 3G 6G22G17G21G23G26
  24038559.084   -11741610.81949  -9120459.74645  24038557.973    24038572.731
       217.000         156.000
  21625694.123   -17672587.72649 -13747898.97947  21625694.263    21625704.593
       235.000         195.000
  23948119.595   -11570787.81349  -8998954.82645  23948119.402    23948134.526
       216.000         155.000
  20769860.277   -23941287.96649 -18268596.62548  20769859.465    20769867.894
       245.000         213.000
  23091279.473   -11753826.38949  -9142412.77746  23091278.141    23091292.318
       226.000         174.000
  20755576.624   -24111826.63649 -17934309.63648  20755575.824    20755584.187
       247.000         217.000
  22027530.780   -16460131.49649 -10318019.69246  22027530.528    22027538.851
       231.000         185.000
 00  4 18  0 32  0.0000000  0  7G 3G 6G22G17G21G23G26
  24019882.454   -11839756.14949  -9196936.39645  24019881.142    24019896.562
       217.000         156.000
  21641364.887   -17590237.62449 -13683730.19847  21641364.925    21641375.331
       236.000         195.000
  23954484.098   -11537342.53749  -8972893.68745  23954483.726    23954500.751
       216.000         155.000
  20770571.071   -23937552.66049 -18265685.99648  20770570.453    20770578.415
       245.000         213.000
  23078345.674   -11821793.04049  -9195373.55846  23078344.195    23078357.491
       226.000         175.000
  20753666.021   -24121866.76449 -17942133.08148  20753665.366    20753673.480
       246.000         217.000
  22036344.243   -16413816.66849 -10281930.22946  22036344.486    22036352.901
       231.000         185.000
 00  4 18  0 32 30.0000000  0  7G 3G 6G22G17G21G23G26
  24001241.964   -11937711.62949  -9273265.11645  24001240.857    24001255.373
       217.000         155.000
  21657110.036   -17507496.89649 -13619257.03447  21657109.995    21657120.758
       236.000         195.000
  23960935.811   -11503438.90749  -8946475.39645  23960936.039    23960950.712
       215.000         155.000
  20771331.212   -23933558.15349 -18262573.39348  20771330.607    20771338.796
       245.000         213.000
  23065457.009   -11889522.47649  -9248149.51746  23065456.267    23065468.721
       226.000         175.000
  20751827.161   -24131529.93049 -17949662.79148  20751826.589    20751834.783
       246.000         217.000
  22045271.306   -16366904.59949 -10245375.38646  22045270.956    22045279.328
       231.000         185.000
 00  4 18  0 33  0.0000000  0  7G 3G 6G22G17G21G23G26
  23982634.801   -12035491.90849  -9349457.31445  23982633.159    23982648.173
       216.000         155.000
  21672927.940   -17424373.98849 -13554486.07247  21672928.124    21672938.280
       235.000         195.000
  23967474.231   -11469079.72649  -8919702.13545  23967474.003    23967489.615
       217.000         155.000
  20772135.526   -23929331.45849 -18259279.86348  20772134.860    20772142.858
       244.000         213.000
  23052607.824   -11957044.32049  -9300763.71746  23052607.612    23052619.979
       226.000         175.000
  20750057.684   -24140828.40149 -17956908.32448  20750057.004    20750065.120
       247.000         217.000
  22054312.657   -16319392.03949 -10208352.62446  22054312.937    22054321.087
       230.000         185.000
 00  4 18  0 33 30.0000000  0  7G 3G 6G22G17G21G23G26
  23964059.402   -12133105.14649  -9425519.35445  23964058.947    23964072.464
       218.000         155.000
  21688819.607   -17340863.17149 -13489412.84247  21688819.613    21688830.084
       235.000         194.000
  23974094.281   -11434291.44349  -8892594.51945  23974093.091    23974109.589
       214.000         155.000
  20772979.349   -23924897.02649 -18255824.46348  20772978.716    20772986.797
       244.000         213.000
  23039797.772   -12024360.35449  -9353217.52346  23039796.910    23039810.549
       226.000         176.000
  20748355.453   -24149773.51649 -17963878.51748  20748354.783    20748362.966
       247.000         217.000
  22063467.577   -16271283.23749 -10170865.26246  22063467.639    22063476.252
       231.000         185.000
 00  4 18  0 34  0.0000000  0  7G 3G 6G22G17G21G23G26
  23945516.725   -12230546.48049  -9501447.43045  23945515.674    23945529.588
       216.000         155.000
  21704785.440   -17256962.66849 -13424035.96947  21704785.660    21704796.208
       234.000         194.000
  23980788.169   -11399115.42949  -8865184.75445  23980788.446    23980803.478
       215.000         155.000
  20773860.240   -23920267.79349 -18252217.26648  20773859.446    20773867.562
       244.000         213.000
  23027024.791   -12091481.86849  -9405519.77146  23027024.073    23027037.071
       226.000         176.000
  20746715.584   -24158390.98049 -17970593.39648  20746715.068    20746723.141
       247.000         217.000
  22072731.445   -16222600.84949 -10132930.94846  22072731.346    22072739.750
       232.000         185.000
 00  4 18  0 34 30.0000000  0  7G 3G 6G22G17G21G23G26
  23927008.125   -12327808.86749  -9577236.08145  23927007.208    23927021.788
       216.000         155.000
  21720823.873   -17172680.63549 -13358361.79247  21720823.747    21720834.435
       235.000         194.000
  23987553.250   -11363565.28549  -8837483.48545  23987552.963    23987568.764
       216.000         155.000
  20774776.062   -23915455.14949 -18248467.15348  20774775.372    20774783.682
       244.000         213.000
  23014289.566   -12158404.75149  -9457667.24846  23014288.739    23014302.338
       227.000         176.000
  20745137.926   -24166681.58349 -17977053.58048  20745137.140    20745145.358
       247.000         217.000
  22082100.464   -16173366.36349 -10094566.44246  22082100.700    22082109.373
       232.000         185.000
 00  4 18  0 35  0.0000000  0  7G 3G 6G22G17G21G23G26
  23908532.785   -12424896.64549  -9652888.65845  23908532.228    23908545.718
       216.000         155.000
  21736933.901   -17088022.40649 -13292394.48747  21736934.084    21736944.501
       235.000         194.000
  23994384.994   -11327664.70049  -8809509.13445  23994384.603    23994399.319
       216.000         154.000
  20775726.565   -23910460.07749 -18244574.88948  20775725.804    20775734.080
       245.000         213.000
  23001597.565   -12225101.07949  -9509638.20246  23001596.996    23001609.386
       227.000         177.000
  20743623.103   -24174641.94149 -17983256.43548  20743622.559    20743630.570
       246.000         217.000
  22091571.447   -16123596.48149 -10055784.73646  22091571.263    22091580.350
       230.000         184.000
 00  4 18  0 35 30.0000000  0  7G 3G 6G22G17G21G23G26
  23890093.956   -12521792.17049  -9728391.43545  23890092.473    23890107.442
       216.000         155.000
  21753114.447   -17002993.71249 -13226138.50147  21753114.572    21753125.190
       235.000         193.000
  24001281.197   -11291425.44649  -8781270.90545  24001280.040    24001296.776
       215.000         154.000
  20776715.479   -23905263.39349 -18240525.52048  20776714.970    20776723.196
       244.000         213.000
  22988953.404   -12291545.62749  -9561412.92646  22988952.439    22988965.867
       228.000         176.000
  20742171.410   -24182270.45449 -17989200.70448  20742170.694    20742178.919
       247.000         217.000
  22101143.514   -16073294.80449 -10016588.64946  22101143.757    22101151.970
       230.000         184.000
 00  4 18  0 36  0.0000000  0  8G 3G 6G22G17G21G29G23G26
  23871694.470   -12618481.27249  -9803733.36345  23871694.480    23871707.580
       216.000         155.000
  21769359.619   -16917625.30349 -13159617.80147  21769359.756    21769370.423
       234.000         193.000
  24008241.976   -11254846.87449  -8752768.25645  24008240.771    24008256.984
       216.000         154.000
  20777743.175   -23899862.93449 -18236317.36148  20777742.448    20777750.655
       245.000         213.000
  22976358.798   -12357729.51149  -9612984.55546  22976357.379    22976371.336
       228.000         177.000
  24457195.288    -4934174.59949  -2575224.80445  24457194.427    24457217.108
       203.000         139.000
  20740781.131   -24189576.36249 -17994893.59148  20740780.586    20740788.564
       247.000         217.000
  22110813.852   -16022476.75249  -9976990.18546  22110813.712    22110822.214
       230.000         184.000
 00  4 18  0 36 30.0000000  0  8G 3G 6G22G17G21G29G23G26
  23853332.761   -12714971.72749  -9878920.49745  23853331.412    23853345.718
       215.000         154.000
  21785665.436   -16831937.98949 -13092848.61947  21785665.438    21785675.998
       234.000         192.000
  24015266.433   -11217933.60749  -8724004.82345  24015265.418    24015282.469
       215.000         155.000
  20778805.705   -23894279.07049 -18231966.29448  20778805.033    20778812.925
       245.000         213.000
  22963813.879   -12423652.45449  -9664352.85246  22963813.043    22963826.153
       228.000         177.000
  24436556.273    -5042631.37649  -2659735.93145  24436555.035    24436578.309
       203.000         140.000
  20739449.872   -24196571.96749 -18000344.68648  20739449.268    20739457.130
       247.000         217.000
  22120581.529   -15971146.46649  -9936992.58046  22120581.880    22120590.308
       231.000         184.000
 00  4 18  0 37  0.0000000  0  8G 3G 6G22G17G21G29G23G26
  23835015.481   -12811228.30249  -9953925.37945  23835014.243    23835028.244
       214.000         154.000
  21802040.541   -16745886.81749 -13025795.90947  21802040.701    21802051.318
       234.000         192.000
  24022361.109   -11180651.32949  -8694953.83845  24022360.486    24022376.917
       217.000         155.000
  20779913.632   -23888456.91649 -18227429.54448  20779912.946    20779921.181
       245.000         213.000
  22951325.768   -12489277.26749  -9715488.83346  22951325.308    22951337.934
       228.000         177.000
  24415916.052    -5151093.57849  -2744251.30445  24415915.074    24415938.190
       206.000         140.000
  20738186.343   -24203211.78149 -18005518.53548  20738185.853    20738193.721
       247.000         217.000
  22130456.158   -15919255.23049  -9896557.86946  22130456.354    22130464.422
       230.000         184.000
 00  4 18  0 37 30.0000000  0  8G 3G 6G22G17G21G29G23G26
  23816742.221   -12907253.88149 -10028750.27045  23816741.113    23816754.838
       216.000         155.000
  21818483.798   -16659477.54449 -12958464.15647  21818483.778    21818494.189
       234.000         192.000
  24029525.834   -11143000.90649  -8665616.00445  24029524.866    24029541.688
       216.000         156.000
  20781069.453   -23882383.07349 -18222696.67148  20781068.825    20781076.902
       244.000         213.000
  22938887.354   -12554641.17549  -9766421.51346  22938886.170    22938898.972
       228.000         177.000
  24395274.097    -5259565.77249  -2828774.48345  24395272.774    24395295.975
       209.000         142.000
  20736988.227   -24209507.95849 -18010424.60848  20736987.552    20736995.614
       247.000         217.000
  22140436.939   -15866806.50249  -9855688.74446  22140437.014    22140445.537
       231.000         183.000
 00  4 18  0 38  0.0000000  0  8G 3G 6G22G17G21G29G23G26
  23798510.129   -13003063.08949 -10103406.55645  23798508.995    23798522.187
       216.000         156.000
  21834995.120   -16572710.72749 -12890853.80147  21834994.908    21835005.547
       234.000         192.000
  24036761.122   -11104980.01349  -8635989.48945  24036760.147    24036776.421
       216.000         156.000
  20782272.012   -23876063.57449 -18217772.38448  20782271.323    20782279.619
       244.000         213.000
  22926492.842   -12619773.82149  -9817173.98046  22926491.580    22926504.099
       228.000         177.000
  24374629.189    -5368052.98049  -2913309.37845  24374627.656    24374649.976
       208.000         142.000
  20735856.790   -24215453.51749 -18015057.48148  20735856.076    20735864.206
       247.000         217.000
  22150525.556   -15813790.54649  -9814377.63346  22150525.600    22150533.686
       229.000         183.000
 00  4 18  0 38 30.0000000  0  8G 3G 6G22G17G21G29G23G26
  23780313.901   -13098684.21149 -10177916.28945  23780313.212    23780326.846
       216.000         156.000
  21851576.520   -16485575.35849 -12822956.24947  21851576.818    21851587.414
       233.000         191.000
  24044067.812   -11066583.59649  -8606070.34445  24044066.779    24044084.161
       216.000         156.000
  20783522.397   -23869492.69349 -18212652.20748  20783521.727    20783529.955
       244.000         213.000
  22914136.039   -12684708.07649  -9867771.85146  22914135.244    22914147.808
       230.000         177.000
  24353984.213    -5476540.71149  -2997844.65645  24353982.928    24354005.040
       207.000         140.000
  20734793.767   -24221039.64649 -18019410.27448  20734793.071    20734801.070
       247.000         217.000
  22160724.635   -15760193.97249  -9772614.08246  22160724.450    22160733.479
       230.000         183.000
 00  4 18  0 39  0.0000000  0  8G 3G 6G22G17G21G29G23G26
  23762154.324   -13194112.80249 -10252275.98945  23762152.924    23762166.610
       217.000         156.000
  21868226.860   -16398077.70649 -12754776.41447  21868226.961    21868237.584
       232.000         190.000
  24051448.054   -11027800.79249  -8575850.13445  24051448.029    24051463.566
       216.000         157.000
  20784824.208   -23862651.56149 -18207321.45648  20784823.576    20784831.545
       244.000         213.000
  22901816.839   -12749445.05749  -9918216.01246  22901815.633    22901828.770
       230.000         178.000
  24333342.875    -5585009.03949  -3082364.82345  24333342.637    24333365.493
       207.000         138.000
  20733801.956   -24226251.45949 -18023471.39748  20733801.388    20733809.206
       247.000         217.000
  22171034.145   -15706017.11749  -9730398.37146  22171034.342    22171042.634
       230.000         183.000
 00  4 18  0 39 30.0000000  0  8G 3G 6G22G17G21G29G23G26
  23744035.170   -13289328.65149 -10326469.93045  23744034.187    23744047.478
       218.000         156.000
  21884945.066   -16310223.32549 -12686318.60247  21884944.948    21884956.044
       233.000         190.000
  24058905.679   -10988611.28549  -8545313.01745  24058905.336    24058921.652
       217.000         157.000
  20786174.460   -23855555.85149 -18201792.32548  20786173.661    20786181.808
       244.000         213.000
  22889535.783   -12813981.46349  -9968503.87346  22889534.245    22889546.791
       228.000         178.000
  24312707.559    -5693446.08349  -3166860.62345  24312706.154    24312728.315
       208.000         139.000
  20732880.559   -24231093.35349 -18027244.27048  20732879.706    20732887.801
       247.000         217.000
  22181455.721   -15651251.12649  -9687723.59046  22181456.147    22181464.025
       230.000         183.000
 00  4 18  0 40  0.0000000  0  8G 3G 6G22G17G21G29G23G26
  23725956.492   -13384331.76749 -10400498.09645  23725955.143    23725968.402
       219.000         157.000
  21901731.163   -16222012.39649 -12617582.96747  21901731.347    21901742.117
       233.000         190.000
  24066441.132   -10949012.96949  -8514457.33745  24066440.620    24066456.356
       217.000         157.000
  20787566.860   -23848238.71649 -18196090.65848  20787566.317    20787574.409
       244.000         213.000
  22877295.667   -12878302.48349 -10018623.92846  22877294.738    22877306.862
       230.000         178.000
  24292077.729    -5801854.12049  -3251333.80145  24292076.056    24292098.850
       209.000         138.000
  20732028.068   -24235573.01649 -18030734.88648  20732027.516    20732035.243
       247.000         217.000
  22191987.380   -15595906.94149  -9644598.27246  22191988.156    22191995.238
       231.000         182.000
 00  4 18  0 40 30.0000000  0  8G 3G 6G22G17G21G29G23G26
  23707919.607   -13479115.03849 -10474354.96345  23707918.160    23707932.314
       219.000         158.000
  21918584.060   -16133450.67049 -12548573.97247  21918584.240    21918595.250
       233.000         190.000
  24074052.562   -10909015.46449  -8483290.59545  24074052.111    24074068.736
       217.000         157.000
  20788999.580   -23840709.88949 -18190224.03548  20788998.995    20789007.061
       244.000         213.000
  22865097.410   -12942403.89749 -10068572.83346  22865096.663    22865108.293
       229.000         179.000
  24271452.794    -5910236.20049  -3335786.75045  24271450.994    24271472.597
       209.000         138.000
  20731240.657   -24239710.65549 -18033958.99148  20731239.931    20731248.088
       246.000         217.000
  22202623.752   -15540012.80549  -9601044.41146  22202623.833    22202632.321
       230.000         182.000
 00  4 18  0 41  0.0000000  0  8G 3G 6G22G17G21G29G23G26
  23689928.201   -13573659.67949 -10548025.88145  23689927.255    23689941.354
       218.000         159.000
  21935502.680   -16044543.16149 -12479295.55047  21935502.937    21935513.712
       232.000         190.000
  24081736.827   -10868635.03749  -8451825.47645  24081735.611    24081752.900
       216.000         157.000
  20790470.506   -23832980.15749 -18184200.86748  20790469.747    20790478.029
       244.000         213.000
  22852943.115   -13006274.10549 -10118341.58146  22852942.087    22852954.728
       230.000         179.000
  24250830.621    -6018604.17249  -3420228.72345  24250828.121    24250850.392
       210.000         140.000
  20730518.368   -24243506.28049 -18036916.59648  20730517.731    20730525.774
       246.000         217.000
  22213360.880   -15483588.59749  -9557077.51746  22213361.020    22213369.342
       229.000         181.000
 00  4 18  0 41 30.0000000  0  8G 3G 6G22G17G21G29G23G26
  23671983.450   -13667959.36249 -10621505.92145  23671982.607    23671996.807
       218.000         159.000
  21952488.241   -15955283.91549 -12409743.04747  21952488.728    21952499.702
       232.000         189.000
  24089493.148   -10827875.58849  -8420065.00445  24089492.741    24089508.563
       217.000         157.000
  20791980.167   -23825046.82649 -18178019.05048  20791979.502    20791987.650
       244.000         213.000
  22840831.552   -13069920.07449 -10167935.61846  22840830.232    22840843.160
       230.000         179.000
  24230207.870    -6126974.97849  -3504672.86445  24230206.027    24230228.077
       214.000         143.000
  20729859.801   -24246966.93249 -18039613.18448  20729859.027    20729867.135
       247.000         217.000
  22224197.386   -15426642.95549  -9512704.32146  22224197.648    22224205.909
       229.000         181.000
 00  4 18  0 42  0.0000000  0  8G 3G 6G22G17G21G29G23G26
  23654086.749   -13762006.11149 -10694788.87445  23654085.927    23654099.215
       220.000         160.000
  21969540.122   -15865676.48349 -12339919.22947  21969540.953    21969551.203
       233.000         189.000
  24097318.867   -10786751.94349  -8388020.78045  24097317.624    24097334.923
       217.000         157.000
  20793533.194   -23816885.77449 -18171659.78848  20793532.457    20793540.507
       244.000         213.000
  22828763.516   -13133337.02249 -10217351.20246  22828762.027    22828774.628
       229.000         179.000
  24209584.634    -6235348.60049  -3589119.21045  24209583.034    24209605.185
       215.000         145.000
  20729266.148   -24250086.50749 -18042043.99848  20729265.438    20729273.578
       247.000         217.000
  22235130.415   -15369189.41349  -9467935.35446  22235130.599    22235138.980
       229.000         181.000
 00  4 18  0 42 30.0000000  0  8G 3G 6G22G17G21G29G23G26
  23636240.564   -13855787.81749 -10767865.31445  23636239.792    23636252.537
       221.000         161.000
  21986655.610   -15775734.61349 -12269834.81347  21986655.805    21986666.742
       232.000         189.000
  24105212.010   -10745273.74349  -8355700.26345  24105212.089    24105228.630
       216.000         158.000
  20795133.689   -23808475.00449 -18165105.94348  20795133.169    20795141.374
       244.000         213.000
  22816740.956   -13196515.02149 -10266580.60346  22816739.810    22816752.228
       229.000         179.000
  24188962.079    -6343718.32649  -3673562.52545  24188960.761    24188981.936
       214.000         145.000
  20728740.659   -24252847.86149 -18044195.68148  20728739.932    20728747.889
       246.000         217.000
  22246161.840   -15311219.18349  -9422763.77646  22246161.973    22246169.925
       229.000         180.000
 00  4 18  0 43  0.0000000  0  8G 3G 6G22G17G21G29G23G26
  23618446.763   -13949293.93149 -10840727.01045  23618446.570    23618458.577
       219.000         161.000
  22003835.833   -15685452.67049 -12199485.40747  22003836.101    22003847.242
       232.000         188.000
  24113174.075   -10703433.68449  -8323097.77145  24113172.598    24113190.177
       216.000         157.000
  20796783.433   -23799805.48149 -18158350.47248  20796782.537    20796790.720
       244.000         213.000
  22804769.944   -13259422.20549 -10315598.98446  22804769.217    22804780.252
       230.000         180.000
  24168341.031    -6452080.43849  -3757999.90645  24168339.687    24168361.526
       214.000         144.000
  20728285.689   -24255238.56949 -18046058.54448  20728285.087    20728292.945
       246.000         217.000
  22257294.476   -15252716.65749  -9377177.41946  22257294.735    22257303.270
       227.000         180.000
 00  4 18  0 43 30.0000000  0  8G 3G 6G22G17G21G29G23G26
  23600704.367   -14042530.03149 -10913378.31645  23600704.312    23600716.759
       218.000         161.000
  22021080.388   -15594832.55649 -12128872.48047  22021080.583    22021091.497
       232.000         188.000
  24121203.792   -10661237.64449  -8290217.90745  24121203.618    24121219.964
       216.000         157.000
  20798482.868   -23790874.83349 -18151391.52748  20798482.120    20798490.351
       244.000         213.000
  22792852.521   -13322047.80149 -10364397.94446  22792851.357    22792863.702
       230.000         180.000
  24147724.003    -6560420.93549  -3842420.44045  24147722.300    24147743.622
       209.000         143.000
  20727896.343   -24257284.68349 -18047652.89048  20727895.716    20727903.730
       247.000         217.000
  22268531.311   -15193667.16149  -9331164.85746  22268531.287    22268539.782
       230.000         180.000
 00  4 18  0 44  0.0000000  0  8G 3G 6G22G17G21G29G23G26
  23583009.268   -14135517.86549 -10985836.16745  23583008.673    23583020.972
       219.000         161.000
  22038386.908   -15503886.89549 -12058005.89547  22038386.882    22038398.717
       231.000         188.000
  24129296.662   -10618709.71149  -8257079.43045  24129296.336    24129311.914
       216.000         157.000
  20800226.767   -23781710.54849 -18144250.53748  20800226.193    20800234.382
       244.000         213.000
  22780989.523   -13384387.45949 -10412974.11546  22780987.760    22781000.541
       230.000         180.000
  24127115.013    -6668719.17249  -3926808.02645  24127113.337    24127134.636
       207.000         140.000
  20727570.889   -24258994.78649 -18048985.41148  20727570.142    20727578.131
       246.000         217.000
  22279873.278   -15134064.88849  -9284721.55946  22279873.664    22279881.601
       227.000         180.000
 00  4 18  0 44 30.0000000  0  8G 3G 6G22G17G21G29G23G26
  23565357.069   -14228279.84349 -11058118.01045  23565356.143    23565369.601
       217.000         161.000
  22055755.983   -15412612.38649 -11986883.05446  22055755.988    22055767.088
       231.000         187.000
  24137451.428   -10575856.79049  -8223687.71345  24137450.930    24137468.814
       216.000         157.000
  20802011.275   -23772333.00749 -18136943.36348  20802010.528    20802018.664
       244.000         213.000
  22769178.407   -13446454.40149 -10461337.77846  22769177.227    22769189.325
       229.000         181.000
  24106514.335    -6776973.76949  -4011161.60045  24106513.308    24106534.215
       210.000         140.000
  20727309.266   -24260369.51749 -18050056.59848  20727308.663    20727316.522
       246.000         217.000
  22291320.590   -15073908.76149  -9237846.68346  22291320.250    22291328.811
       228.000         180.000
 00  4 18  0 45  0.0000000  0  8G 3G 6G22G17G21G29G23G26
  23547745.842   -14320826.41549 -11130232.01145  23547745.285    23547758.359
       219.000         161.000
  22073189.875   -15320997.14749 -11915494.71346  22073190.448    22073201.208
       231.000         187.000
  24145670.181   -10532667.82649  -8190034.15345  24145670.700    24145686.450
       217.000         157.000
  20803835.695   -23762745.66049 -18129472.71148  20803834.945    20803843.205
       244.000         213.000
  22757416.193   -13508264.40749 -10509501.23946  22757415.589    22757427.220
       230.000         181.000
  24085922.900    -6885179.85049  -4095477.38745  24085920.804    24085943.503
       206.000         139.000
  20727108.622   -24261423.73749 -18050878.03648  20727107.952    20727115.970
       247.000         217.000
  22302872.338   -15013203.75549  -9190544.12746  22302872.573    22302881.457
       227.000         179.000
 00  4 18  0 45 30.0000000  0  8G 3G 6G22G17G21G29G23G26
  23530175.063   -14413160.37049 -11202180.35445  23530174.029    23530187.203
       220.000         161.000
  22090686.122   -15229054.40949 -11843851.17546  22090686.726    22090697.195
       231.000         186.000
  24153952.671   -10489143.79049  -8156119.49545  24153951.837    24153969.563
       216.000         156.000
  20805699.238   -23752952.78449 -18121841.90348  20805698.575    20805706.596
       244.000         213.000
  22745695.969   -13569853.85549 -10557492.84746  22745694.543    22745706.372
       230.000         181.000
  24065341.309    -6993334.19949  -4179752.85245  24065339.482    24065360.769
       208.000         141.000
  20726968.177   -24262161.64849 -18051452.99748  20726967.439    20726975.336
       247.000         217.000
  22314526.842   -14951959.18649  -9142821.11646  22314527.124    22314535.674
       229.000         179.000
 00  4 18  0 46  0.0000000  0  8G 3G 6G22G17G21G29G23G26
  23512648.209   -14505263.97449 -11273949.19145  23512646.903    23512660.425
       218.000         161.000
  22108244.459   -15136785.45849 -11771953.44646  22108244.701    22108256.429
       231.000         186.000
  24162301.518   -10445271.09049  -8121933.15645  24162301.507    24162318.317
       216.000         157.000
  20807603.935   -23742943.44049 -18114042.42148  20807603.336    20807611.464
       244.000         213.000
  22734016.091   -13631231.28649 -10605319.24646  22734015.079    22734027.091
       230.000         181.000
  24044768.475    -7101442.47049  -4263992.39545  24044766.255    24044786.543
       208.000         144.000
  20726891.710   -24262563.46449 -18051766.06748  20726891.232    20726898.992
       246.000         217.000
  22326279.002   -14890201.22549  -9094698.07446  22326279.139    22326287.700
       229.000         179.000
 00  4 18  0 46 30.0000000  0  8G 3G 6G22G17G21G29G23G26
  23495170.394   -14597109.32549 -11345516.79545  23495169.752    23495181.699
       218.000         160.000
  22125867.453   -15044176.71349 -11699790.94346  22125867.790    22125878.665
       230.000         185.000
  24170719.103   -10401037.00849  -8087465.22245  24170718.630    24170735.242
       215.000         157.000
  20809555.845   -23732686.09849 -18106049.69248  20809555.225    20809563.304
       244.000         213.000
  22722376.580   -13692396.57549 -10652980.35346  22722376.026    22722387.505
       229.000         182.000
  24024202.297    -7209515.86749  -4348204.76745  24024200.372    24024221.471
       209.000         146.000
  20726879.272   -24262628.86149 -18051816.98748  20726878.491    20726886.600
       246.000         217.000
  22338125.831   -14827946.17249  -9046187.67046  22338125.527    22338134.201
       228.000         179.000
 00  4 18  0 47  0.0000000  0  8G 3G 6G22G17G21G29G23G26
  23477745.005   -14688679.38249 -11416869.88145  23477744.316    23477756.520
       218.000         161.000
  22143553.897   -14951234.36049 -11627368.49046  22143554.166    22143565.027
       230.000         185.000
  24179206.168   -10356437.98849  -8052712.92245  24179205.125    24179221.792
       212.000         156.000
  20811558.935   -23722159.99349 -18097847.54348  20811557.988    20811566.287
       245.000         213.000
  22710779.170   -13753340.92449 -10700469.27546  22710778.046    22710790.559
       232.000         182.000
  24003642.835    -7317553.94049  -4432389.60245  24003641.685    24003661.154
       210.000         147.000
  20726930.073   -24262361.71549 -18051608.79048  20726929.365    20726937.324
       246.000         217.000
  22350066.315   -14765198.57049  -8997293.47646  22350067.340    22350075.481
       229.000         178.000
 00  4 18  0 47 30.0000000  0  8G 3G 6G22G17G21G29G23G26
  23460375.112   -14779957.77949 -11487995.72345  23460374.431    23460386.842
       218.000         161.000
  22161303.005   -14857962.66849 -11554689.42046  22161302.959    22161314.552
       230.000         185.000
  24187758.038   -10311497.97249  -8017694.92245  24187757.844    24187774.850
       216.000         156.000
  20813615.250   -23711353.94749 -18089427.25348  20813614.505    20813622.769
       244.000         213.000
  22699223.845   -13814064.11849 -10747785.87946  22699222.875    22699234.759
       231.000         183.000
  23983091.821    -7425547.36049  -4516539.63845  23983089.742    23983110.631
       205.000         148.000
  20727045.150   -24261756.64249 -18051137.27348  20727044.456    20727052.359
       246.000         217.000
  22362100.543   -14701958.44449  -8948015.47146  22362101.010    22362109.692
       228.000         178.000
 00  4 18  0 48  0.0000000  0  8G 3G 6G22G17G21G29G23G26
  23443060.546   -14870945.59849 -11558895.11345  23443059.707    23443072.074
       218.000         161.000
  22179114.906   -14764361.07749 -11481753.28946  22179114.948    22179126.786
       230.000         185.000
  24196374.075   -10266221.51149  -7982414.75745  24196372.950    24196391.713
       216.000         156.000
  20815726.324   -23700260.11149 -18080782.71647  20815725.523    20815733.654
       245.000         212.000
  22687712.265   -13874557.12949 -10794923.14246  22687711.504    22687722.537
       229.000         183.000
  23962550.334    -7533491.10149  -4600650.95945  23962549.072    23962569.717
       210.000         149.000
  20727225.650   -24260807.91949 -18050397.98248  20727225.081    20727232.967
       246.000         217.000
  22374230.192   -14638216.70649  -8898346.62046  22374230.163    22374238.758
       227.000         178.000
 00  4 18  0 48 30.0000000  0  8G 3G 6G22G17G21G29G23G26
  23425800.161   -14961648.81849 -11629572.75145  23425799.037    23425812.400
       221.000         162.000
  22196987.969   -14670438.11149 -11408566.72646  22196988.155    22196999.445
       230.000         185.000
  24205053.810   -10220610.02649  -7946873.54145  24205053.650    24205069.800
       215.000         156.000
  20817889.447   -23688892.85649 -18071925.11947  20817888.736    20817896.945
       244.000         212.000
  22676244.021   -13934822.03449 -10841882.63946  22676243.393    22676255.102
       230.000         183.000
  23942021.580    -7641367.61549  -4684709.88045  23942019.105    23942041.112
       209.000         148.000
  20727471.336   -24259516.66749 -18049391.78548  20727470.611    20727478.464
       246.000         217.000
  22386460.247   -14573947.33549  -8848266.60446  22386459.537    22386469.011
       226.000         177.000
 00  4 18  0 49  0.0000000  0  8G 3G 6G22G17G21G29G23G26
  23408592.945   -15052073.20849 -11700033.12446  23408591.879    23408605.044
       220.000         163.000
  22214918.827   -14576211.55149 -11335143.60746  22214919.251    22214930.829
       230.000         185.000
  24213795.803   -10174671.09749  -7911077.16745  24213795.508    24213812.219
       216.000         156.000
  20820101.521   -23677268.31149 -18062867.04047  20820100.904    20820109.088
       244.000         212.000
  22664818.570   -13994862.76049 -10888667.45946  22664817.224    22664829.681
       232.000         183.000
  23921508.758    -7749160.57449  -4768703.72245  23921506.795    23921526.386
       210.000         148.000
  20727780.104   -24257893.91949 -18048127.28648  20727779.337    20727787.190
       246.000         217.000
  22398792.010   -14509143.53849  -8797770.16646  22398790.930    22398800.421
       225.000         177.000
 00  4 18  0 49 30.0000000  0  8G 3G 6G22G17G21G29G23G26
  23391438.424   -15142219.59249 -11770276.85846  23391437.695    23391451.224
       219.000         163.000
  22232904.750   -14481695.58049 -11261494.96546  22232905.150    22232916.346
       230.000         184.000
  24222599.544   -10128407.90149  -7875028.12145  24222598.914    24222616.230
       215.000         155.000
  20822358.869   -23665405.92449 -18053623.63047  20822358.131    20822366.467
       244.000         212.000
  22653434.724   -14054684.64049 -10935281.75546  22653434.374    22653445.546
       231.000         183.000
  23901011.022    -7856874.43449  -4852635.93845  23901009.475    23901029.359
       211.000         150.000
  20728148.191   -24255959.57049 -18046619.98248  20728147.722    20728155.525
       247.000         217.000
  22411223.813   -14443813.96549  -8746864.04046  22411223.982    22411232.954
       227.000         176.000
 00  4 18  0 50  0.0000000  0  8G 3G 6G22G17G21G29G23G26
  23374333.550   -15232105.79149 -11840317.83946  23374332.436    23374344.995
       221.000         164.000
  22250943.777   -14386900.68349 -11187628.97746  22250944.412    22250955.369
       229.000         183.000
  24231466.529   -10081812.36449  -7838720.11145  24231465.426    24231483.472
       214.000         155.000
  20824658.255   -23653322.55149 -18044208.02347  20824657.570    20824665.668
       244.000         212.000
  22642094.756   -14114275.96949 -10981716.39446  22642093.765    22642105.186
       232.000         184.000
  23880525.499    -7964524.30449  -4936518.29445  23880523.967    23880543.663
       209.000         150.000
  20728572.070   -24253732.13049 -18044884.29748  20728571.449    20728579.355
       246.000         217.000
  22423752.559   -14377975.47549  -8695561.34846  22423752.249    22423761.033
       227.000         176.000
 00  4 18  0 50 30.0000000  0  8G 3G 6G22G17G21G29G23G26
  23357277.372   -15321735.66149 -11910159.09446  23357276.434    23357288.883
       221.000         165.000
  22269035.671   -14291827.84449 -11113546.42946  22269035.567    22269046.940
       229.000         182.000
  24240391.163   -10034913.76049  -7802175.93245  24240390.277    24240408.004
       213.000         154.000
  20826998.063   -23641026.93949 -18034627.03047  20826997.300    20827005.648
       244.000         212.000
  22630799.435   -14173632.67549 -11027968.21446  22630798.544    22630809.352
       232.000         184.000
  23860050.428    -8072118.73749  -5020357.44945  23860048.292    23860067.592
       213.000         149.000
  20729048.188   -24251229.90249 -18042934.49348  20729047.549    20729055.361
       246.000         217.000
  22436375.042   -14311644.15449  -8643874.63546  22436374.681    22436384.585
       225.000         175.000
 00  4 18  0 51  0.0000000  0  8G 3G 6G22G17G21G29G23G26
  23340270.022   -15411109.25249 -11979800.65346  23340269.598    23340282.077
       219.000         165.000
  22287181.372   -14196472.07049 -11039243.40646  22287182.035    22287193.065
       229.000         183.000
  24249371.832    -9987720.69549  -7765402.29845  24249371.310    24249389.147
       213.000         153.000
  20829378.521   -23628517.57949 -18024879.48447  20829377.892    20829386.102
       244.000         212.000
  22619551.120   -14232742.11649 -11074027.35446  22619549.911    22619561.510
       231.000         184.000
  23839582.748    -8179674.56249  -5104166.53045  23839580.322    23839600.293
       206.000         148.000
  20729576.466   -24248453.69649 -18040771.20248  20729575.753    20729583.637
       246.000         217.000
  22449087.949   -14244837.48749  -8591817.51846  22449087.650    22449097.280
       226.000         175.000
 00  4 18  0 51 30.0000000  0  8G 3G 6G22G17G21G29G23G26
  23323311.763   -15500224.80849 -12049241.14046  23323310.728    23323323.054
       222.000         166.000
  22305382.147   -14100827.15449 -10964715.09346  22305382.345    22305393.884
       229.000         183.000
  24258407.978    -9940235.96449  -7728401.41645  24258408.463    24258424.608
       212.000         153.000
  20831799.284   -23615796.27649 -18014966.78347  20831798.506    20831806.716
       244.000         212.000
  22608351.691   -14291594.87349 -11119886.49446  22608351.014    22608362.340
       232.000         184.000
  23819121.375    -8287196.59749  -5187949.26945  23819120.026    23819138.616
       204.000         148.000
  20730160.284   -24245385.61449 -18038380.46948  20730159.719    20730167.544
       246.000         217.000
  22461891.746   -14177553.25749  -8539388.26646  22461891.936    22461900.498
       226.000         176.000
 00  4 18  0 52  0.0000000  0  8G 3G 6G22G17G21G29G23G26
  23306404.410   -15589073.31949 -12118473.55046  23306403.363    23306416.223
       222.000         168.000
  22323640.106   -14004881.80349 -10889952.66746  22323640.036    22323652.143
       229.000         183.000
  24267498.795    -9892464.18549  -7691176.83445  24267497.511    24267515.812
       213.000         153.000
  20834261.812   -23602855.53749 -18004883.10147  20834261.181    20834269.294
       244.000         212.000
  22597202.148   -14350185.43849 -11165541.31746  22597200.923    22597211.952
       232.000         185.000
  23798669.695    -8394668.29849  -5271692.79145  23798668.635    23798686.654
       208.000         149.000
  20730804.170   -24242001.87949 -18035743.77648  20730803.493    20730811.333
       246.000         217.000
  22474788.517   -14109780.16249  -8486578.09346  22474788.288    22474797.638
       226.000         175.000
 00  4 18  0 52 30.0000000  0  8G 3G 6G22G17G21G29G23G26
  23289552.407   -15677630.37249 -12187478.84046  23289551.819    23289563.409
       223.000         168.000
  22341955.468   -13908634.44449 -10814954.91446  22341954.807    22341967.503
       229.000         182.000
  24276645.929    -9844396.25249  -7653721.48245  24276646.487    24276663.550
       212.000         152.000
  20836767.387   -23589688.68449 -17994623.22247  20836766.727    20836774.770
       244.000         212.000
  22586101.028   -14408521.29549 -11210997.67746  22586100.208    22586112.361
       232.000         185.000
  23778228.955    -8502082.68249  -5355391.68545  23778228.035    23778246.385
       213.000         150.000
  20731512.816   -24238277.88949 -18032841.94748  20731512.143    20731520.033
       246.000         217.000
  22487780.620   -14041505.93849  -8433377.43346  22487780.124    22487789.133
       226.000         175.000
 00  4 18  0 53  0.0000000  0  8G 3G 6G22G17G21G29G23G26
  23272758.851   -15765880.84249 -12256245.25346  23272758.405    23272770.568
       224.000         169.000
  22360328.533   -13812084.03849 -10739721.01746  22360329.026    22360340.487
       228.000         181.000
  24285855.374    -9796001.09249  -7616011.15445  24285854.643    24285872.387
       213.000         152.000
  20839317.914   -23576285.58649 -17984179.25247  20839317.331    20839325.539
       244.000         212.000
  22575048.971   -14466599.42949 -11256253.20646  22575047.790    22575059.716
       232.000         185.000
  23757801.823    -8609425.58249  -5439034.87045  23757799.727    23757818.368
       213.000         152.000
  20732287.833   -24234204.93149 -18029668.19448  20732287.166    20732294.831
       246.000         217.000
  22500868.433   -13972729.23249  -8379785.22846  22500868.493    22500876.567
       226.000         175.000
 00  4 18  0 53 30.0000000  0  8G 3G 6G22G17G21G29G23G26
  23256023.775   -15853823.70949 -12324771.97846  23256023.330    23256034.485
       224.000         170.000
  22378759.908   -13715227.08749 -10664248.26046  22378760.237    22378771.790
       228.000         179.000
  24295124.456    -9747292.39849  -7578056.49645  24295123.176    24295141.908
       212.000         152.000
  20841915.605   -23562634.67749 -17973542.18347  20841915.032    20841923.213
       244.000         212.000
  22564043.146   -14524434.97549 -11301319.72246  22564042.139    22564053.809
       232.000         185.000
  23737391.246    -8716681.41349  -5522610.23745  23737390.157    23737407.908
       212.000         152.000
  20733127.691   -24229791.53749 -18026229.16848  20733127.065    20733134.919
       246.000         217.000
  22514052.433   -13903446.92949  -8325799.05146  22514052.076    22514061.138
       224.000         175.000
 00  4 18  0 54  0.0000000  0  8G 3G 6G22G17G21G29G23G26
  23239347.738   -15941455.76049 -12393056.49946  23239347.584    23239359.704
       225.000         170.000
  22397248.566   -13618069.29149 -10588541.07946  22397248.228    22397260.653
       228.000         179.000
  24304453.207    -9698270.14549  -7539857.53045  24304451.878    24304470.498
       212.000         152.000
  20844562.658   -23548724.34849 -17962702.96747  20844561.930    20844570.119
       244.000         212.000
  22553081.461   -14582038.64549 -11346205.56446  22553080.617    22553092.122
       232.000         186.000
  23716998.107    -8823845.44549  -5606114.07445  23716996.325    23717014.731
       213.000         152.000
  20734030.435   -24225047.43249 -18022532.44648  20734029.800    20734037.645
       246.000         217.000
  22527331.233   -13833666.26349  -8271424.55546  22527331.503    22527340.467
       226.000         175.000
 00  4 18  0 54 30.0000000  0  8G 3G 6G22G17G21G29G23G26
  23222729.874   -16028782.08349 -12461102.80746  23222728.590    23222740.861
       224.000         170.000
  22415794.071   -13520612.80549 -10512601.14746  22415794.558    22415806.517
       228.000         179.000
  24313841.068    -9648937.13149  -7501416.39245  24313841.168    24313859.299
       214.000         151.000
  20847261.871   -23534539.89249 -17951650.15247  20847261.051    20847269.462
       244.000         212.000
  22542161.221   -14639424.44949 -11390921.62646  22542160.347    22542171.832
       232.000         186.000
  23696622.603    -8930916.67449  -5689545.58745  23696621.320    23696638.864
       212.000         153.000
  20734993.082   -24219988.74249 -18018590.59348  20734992.433    20735000.392
       246.000         217.000
  22540702.294   -13763400.87049  -8216672.33746  22540702.037    22540711.333
       224.000         175.000
 00  4 18  0 55  0.0000000  0  8G 3G 6G22G17G21G29G23G26
  23206166.728   -16115821.53949 -12528925.58246  23206165.866    23206177.713
       225.000         170.000
  22434397.975   -13422849.57649 -10436422.19146  22434398.299    22434410.011
       228.000         179.000
  24323285.076    -9599309.24949  -7462745.51345  24323284.061    24323302.920
       210.000         152.000
  20850015.009   -23520072.17449 -17940376.60447  20850014.495    20850022.487
       244.000         211.000
  22531281.978   -14696594.60949 -11435469.66846  22531281.329    22531292.718
       233.000         186.000
  23676265.509    -9037891.32549  -5772901.85945  23676264.213    23676282.221
       213.000         155.000
  20736011.284   -24214637.98349 -18014421.15548  20736010.679    20736018.495
       246.000         217.000
  22554164.659   -13692655.86349  -8161546.39346  22554164.907    22554173.066
       225.000         175.000
 00  4 18  0 55 30.0000000  0  8G 3G 6G22G17G21G29G23G26
  23189656.675   -16202581.56449 -12596530.62046  23189655.186    23189667.399
       223.000         170.000
  22453058.377   -13324789.33049 -10360011.80546  22453058.641    22453070.798
       229.000         180.000
  24332783.206    -9549397.08849  -7423853.13845  24332781.636    24332800.354
       211.000         150.000
  20852822.202   -23505320.25749 -17928881.60847  20852821.662    20852829.699
       244.000         211.000
  22520442.334   -14753556.67949 -11479855.56046  22520441.433    22520452.975
       232.000         186.000
  23655924.724    -9144780.67449  -5856191.66045  23655923.415    23655940.499
       215.000         156.000
  20737084.992   -24208995.55749 -18010024.44548  20737084.325    20737092.224
       246.000         217.000
  22567716.869   -13621438.65749  -8106052.50846  22567717.774    22567725.907
       226.000         175.000
 00  4 18  0 56  0.0000000  0  8G 3G 6G22G17G21G29G23G26
  23173200.776   -16289057.22149 -12663914.07446  23173199.878    23173212.604
       224.000         170.000
  22471773.753   -13226440.22649 -10283376.33846  22471774.504    22471786.114
       227.000         179.000
  24342338.966    -9499181.73549  -7384724.50045  24342339.019    24342357.343
       211.000         151.000
  20855683.568   -23490283.70449 -17917164.82047  20855682.971    20855690.920
       244.000         211.000
  22509643.653   -14810303.46949 -11524073.68446  22509642.339    22509653.869
       233.000         186.000
  23635599.573    -9251587.89349  -5939417.48145  23635597.606    23635615.771
       217.000         158.000
  20738216.537   -24203049.45149 -18005391.09848  20738215.802    20738223.754
       246.000         217.000
  22581358.129   -13549753.35849  -8050193.87046  22581358.691    22581366.078
       226.000         174.000
 00  4 18  0 56 30.0000000  0  8G 3G 6G22G17G21G29G23G26
  23156798.936   -16375248.47249 -12731075.92446  23156798.262    23156809.846
       225.000         170.000
  22490545.033   -13127796.99649 -10206511.69146  22490545.319    22490557.255
       226.000         178.000
  24351951.489    -9448668.15049  -7345363.49645  24351951.924    24351969.547
       211.000         150.000
  20858599.367   -23474961.15749 -17905225.18247  20858598.483    20858606.776
       244.000         211.000
  22498888.973   -14866819.26249 -11568111.82546  22498887.974    22498899.188
       233.000         187.000
  23615291.748    -9358303.86249  -6022572.22045  23615289.425    23615306.957
       215.000         158.000
  20739407.809   -24196789.21549 -18000512.98148  20739407.207    20739415.056
       246.000         217.000
  22595089.376   -13477595.28949  -7993966.84546  22595089.935    22595098.588
       224.000         174.000
 00  4 18  0 57  0.0000000  0  8G 3G 6G22G17G21G29G23G26
  23140453.648   -16461142.60849 -12798006.24346  23140452.978    23140465.002
       224.000         170.000
  22509371.475   -13028864.10249 -10129421.31446  22509371.626    22509383.731
       225.000         177.000
  24361622.219    -9397848.98149  -7305764.35645  24361621.400    24361640.321
       211.000         151.000
  20861566.863   -23459366.87849 -17893073.80647  20861566.158    20861574.360
       243.000         211.000
  22488183.643   -14923075.49049 -11611947.70346  22488182.985    22488194.132
       233.000         187.000
  23595002.354    -9464923.17749  -6105651.63845  23595000.341    23595017.918
       216.000         157.000
  20740661.811   -24190199.33849 -17995377.99848  20740661.209    20740668.940
       246.000         217.000
  22608911.483   -13404959.82849  -7937367.82246  22608911.266    22608920.150
       224.000         175.000
 00  4 18  0 57 30.0000000  0  8G 3G 6G22G17G21G29G23G26
  23124170.527   -16546710.17549 -12864682.10546  23124169.571    23124181.260
       224.000         171.000
  22528250.115   -12929656.92849 -10052117.22246  22528250.067    22528262.979
       225.000         176.000
  24371352.040    -9346719.30749  -7265923.27345  24371351.704    24371370.296
       210.000         150.000
  20864584.683   -23443508.02349 -17880716.26547  20864584.199    20864592.333
       244.000         211.000
  22477529.126   -14979064.80449 -11655575.59946  22477527.971    22477539.367
       233.000         187.000
  23574734.945    -9571426.59149  -6188640.77145  23574732.962    23574750.295
       215.000         157.000
  20741980.775   -24183267.87449 -17989976.84848  20741980.176    20741987.915
       246.000         216.000
  22622823.904   -13331849.80249  -7880399.01446  22622824.514    22622832.933
       224.000         175.000
 00  4 18  0 58  0.0000000  0  8G 3G 6G22G17G21G29G23G26
  23107952.456   -16631936.06749 -12931091.73446  23107951.608    23107963.037
       224.000         171.000
  22547181.433   -12830172.77849  -9974597.29546  22547181.271    22547192.781
       226.000         175.000
  24381139.260    -9295287.77449  -7225846.97845  24381139.538    24381156.998
       211.000         149.000
  20867651.565   -23427391.46849 -17868157.92247  20867650.746    20867658.884
       243.000         211.000
  22466928.404   -15034771.44449 -11698983.22246  22466927.070    22466938.918
       234.000         187.000
  23554493.029    -9677796.06349  -6271525.53845  23554490.825    23554509.188
       216.000         155.000
  20743363.508   -24176001.55449 -17984314.77048  20743362.939    20743370.795
       246.000         216.000
  22636827.431   -13258261.10649  -7823057.21146  22636827.700    22636836.613
       226.000         175.000
 00  4 18  0 58 30.0000000  0  8G 3G 6G22G17G21G29G23G26
  23091802.655   -16716803.54549 -12997222.07546  23091802.088    23091813.149
       223.000         171.000
  22566165.436   -12730411.97949  -9896861.80346  22566165.029    22566178.573
       226.000         175.000
  24390980.606    -9243572.10149  -7185549.27845  24390980.645    24390998.100
       211.000         149.000
  20870764.134   -23411034.88049 -17855412.53947  20870763.431    20870771.462
       243.000         211.000
  22456381.118   -15090197.13349 -11742171.93847  22456380.102    22456391.230
       233.000         188.000
  23534276.479    -9784032.41449  -6354306.57845  23534274.261    23534290.879
       216.000         156.000
  20744805.560   -24168423.38749 -17978409.69548  20744805.090    20744812.608
       246.000         216.000
  22650919.827   -13184205.26749  -7765351.41846  22650919.685    22650928.379
       227.000         175.000
 00  4 18  0 59  0.0000000  0  8G 3G 6G22G17G21G29G23G26
  23075721.880   -16801307.47749 -13063069.12946  23075721.281    23075731.990
       224.000         171.000
  22585201.570   -12630377.27949  -9818912.88546  22585201.131    22585214.835
       226.000         175.000
  24400875.024    -9191577.33749  -7145034.10045  24400875.415    24400893.681
       208.000         149.000
  20873918.916   -23394456.40649 -17842494.26047  20873918.267    20873926.516
       244.000         211.000
  22445884.090   -15145358.93049 -11785154.99847  22445883.168    22445894.319
       234.000         188.000
  23514082.153    -9890152.22749  -6436996.82245  23514080.391    23514098.108
       216.000         157.000
  20746301.176   -24160563.71049 -17972285.26048  20746300.605    20746308.393
       246.000         216.000
  22665098.021   -13109698.68649  -7707294.38246  22665098.189    22665107.264
       225.000         175.000
 00  4 18  0 59 30.0000000  0  8G 3G 6G22G17G21G29G23G26
  23059707.779   -16885461.43549 -13128643.47446  23059707.027    23059718.348
       225.000         172.000
  22604288.283   -12530076.58749  -9740756.71746  22604288.737    22604301.108
       223.000         175.000
  24410816.708    -9139334.19549  -7104325.39445  24410816.683    24410836.166
       209.000         149.000
  20877115.087   -23377660.48249 -17829406.53647  20877114.324    20877122.675
       244.000         211.000
  22435431.863   -15200285.19349 -11827954.54347  22435430.874    22435441.645
       234.000         188.000
  23493906.479    -9996174.10349  -6519610.74145  23493904.928    23493922.177
       215.000         156.000
  20747846.544   -24152442.62249 -17965957.12548  20747845.945    20747853.809
       246.000         216.000
  22679359.976   -13034751.66949  -7648894.14846  22679359.916    22679368.832
       225.000         175.000
 00  4 18  1  0  0.0000000  0  8G 3G 6G22G17G21G29G23G26
  23043756.246   -16969286.70849 -13193961.72946  23043755.280    23043766.511
       223.000         172.000
  22623425.571   -12429509.98849  -9662393.35046  22623425.418    22623438.084
       223.000         174.000
  24420804.461    -9086849.03049  -7063428.10245  24420804.209    24420822.620
       210.000         150.000
  20880352.380   -23360648.51249 -17816150.47247  20880351.453    20880359.826
       243.000         211.000
  22425023.339   -15254981.87749 -11870575.19847  22425022.260    22425033.740
       234.000         188.000
  23473746.955   -10102110.93349  -6602158.39945  23473745.264    23473761.911
       214.000         155.000
  20749440.822   -24144064.74649 -17959428.89548  20749440.211    20749448.247
       246.000         216.000
  22693703.672   -12959375.34649  -7590159.38446  22693703.486    22693712.529
       225.000         175.000
 00  4 18  1  0 30.0000000  0  8G 3G 6G22G17G21G29G23G26
  23027865.681   -17052791.56549 -13259030.29146  23027865.141    23027876.483
       223.000         172.000
  22642612.557   -12328682.41549  -9583826.61846  22642612.885    22642625.971
       223.000         174.000
  24430840.351    -9034111.13449  -7022333.84345  24430840.151    24430859.106
       211.000         149.000
  20883633.413   -23343406.59149 -17802715.22247  20883632.862    20883640.979
       243.000         211.000
  22414655.125   -15309466.49449 -11913030.59347  22414654.028    22414664.888
       233.000         189.000
  23453603.119   -10207965.40549  -6684641.86945  23453601.550    23453617.797
       217.000         155.000
  20751085.581   -24135421.49249 -17952693.88048  20751084.933    20751092.967
       246.000         216.000
  22708128.845   -12883570.80049  -7531090.95546  22708129.319    22708138.578
       224.000         175.000
 00  4 18  1  1  0.0000000  0  8G 3G 6G22G17G21G29G23G26
  23012031.569   -17135999.71349 -13323867.63446  23012030.223    23012042.486
       225.000         172.000
  22661847.676   -12227602.10449  -9505062.95046  22661847.539    22661860.240
       224.000         174.000
  24440924.482    -8981119.50049  -6981041.89445  24440924.750    24440942.312
       210.000         148.000
  20886963.891   -23325904.70549 -17789077.40347  20886963.256    20886971.517
       243.000         210.000
  22404327.002   -15363740.52449 -11955321.89947  22404326.208    22404337.027
       234.000         189.000
  23433476.156   -10313731.13549  -6767056.20045  23433474.053    23433490.449
       216.000         154.000
  20752784.392   -24126494.05249 -17945737.41948  20752783.887    20752791.608
       246.000         216.000
  22722637.368   -12807328.14049  -7471681.12946  22722637.355    22722646.487
       225.000         175.000
 00  4 18  1  1 30.0000000  0  8G 3G 6G22G17G21G29G23G26
  22996256.805   -17218895.97649 -13388461.95746  22996256.133    22996267.873
       225.000         172.000
  22681129.270   -12126277.46349  -9426108.89546  22681130.040    22681142.118
       225.000         174.000
  24451058.008    -8927868.43049  -6939547.75945  24451057.375    24451076.745
       211.000         148.000
  20890349.112   -23308115.43749 -17775215.65247  20890348.303    20890356.571
       243.000         210.000
  22394040.828   -15417794.17349 -11997441.48247  22394039.999    22394050.416
       234.000         189.000
  23413372.132   -10419376.56549  -6849376.79145  23413371.620    23413386.767
       219.000         155.000
  20754544.232   -24117245.99349 -17938531.12448  20754543.578    20754551.354
       246.000         216.000
  22737231.477   -12730635.74449  -7411920.85646  22737231.013    22737240.058
       221.000         174.000
 00  4 18  1  2  0.0000000  0  8G 3G 6G22G17G21G29G23G26
  22980544.001   -17301466.79049 -13452802.69746  22980543.471    22980554.362
       224.000         172.000
  22700458.752   -12024701.34149  -9346958.87646  22700458.979    22700471.915
       224.000         173.000
  24461247.261    -8874324.57249  -6897825.49445  24461246.392    24461265.381
       211.000         148.000
  20893791.427   -23290025.78249 -17761119.83147  20893790.730    20893798.815
       243.000         210.000
  22383797.939   -15471620.52949 -12039383.95147  22383797.499    22383807.760
       235.000         189.000
  23393296.770   -10524871.51549  -6931580.14045  23393296.318    23393311.562
       218.000         155.000
  20756366.743   -24107668.45049 -17931068.08948  20756366.227    20756373.994
       246.000         216.000
  22751913.742   -12653480.19949  -7351799.69746  22751913.258    22751922.500
       224.000         174.000
 00  4 18  1  2 30.0000000  0  8G 3G 6G22G17G21G29G23G26
  22964894.101   -17383706.88149 -13516885.72746  22964893.465    22964904.258
       226.000         172.000
  22719836.695   -11922870.48549  -9267610.37046  22719836.904    22719850.227
       223.000         172.000
  24471490.013    -8820499.38449  -6855884.02445  24471490.360    24471508.698
       211.000         146.000
  20897291.596   -23271632.48949 -17746787.40647  20897290.927    20897299.066
       243.000         210.000
  22373597.518   -15525223.56349 -12081152.40147  22373596.671    22373607.218
       235.000         189.000
  23373249.797   -10630217.02049  -7013667.02345  23373249.436    23373263.840
       216.000         154.000
  20758250.087   -24097771.43649 -17923356.11248  20758249.553    20758257.252
       246.000         216.000
  22766686.576   -12575848.54449  -7291307.54046  22766687.061    22766695.760
       225.000         174.000
 00  4 18  1  3  0.0000000  0  8G 3G 6G22G17G21G29G23G26
  22949308.116   -17465610.90249 -13580706.88446  22949307.165    22949319.011
       225.000         173.000
  22739262.007   -11820790.58749  -9188067.80646  22739262.286    22739274.992
       223.000         171.000
  24481782.270    -8766414.18349  -6813739.91345  24481781.635    24481800.162
       208.000         146.000
  20900847.965   -23252943.70449 -17732224.73047  20900847.304    20900855.471
       243.000         210.000
  22363439.257   -15578604.93349 -12122748.13447  22363438.264    22363449.037
       234.000         190.000
  23353231.872   -10735409.81449  -7095634.90545  23353230.015    23353246.743
       214.000         155.000
  20760191.230   -24087570.49949 -17915407.31348  20760190.559    20760198.404
       245.000         216.000
  22781550.142   -12497739.94649  -7230443.74746  22781550.111    22781558.971
       226.000         173.000
 00  4 18  1  3 30.0000000  0  8G 3G 6G22G17G21G29G23G26
  22933788.929   -17547164.16949 -13644254.72846  22933788.289    22933799.936
       225.000         173.000
  22758732.463   -11718473.38749  -9108340.34446  22758733.027    22758746.142
       222.000         171.000
  24492122.568    -8712076.26549  -6771398.94145  24492122.287    24492140.946
       210.000         146.000
  20904455.815   -23233984.31049 -17717451.19047  20904455.127    20904463.454
       243.000         210.000
  22353321.926   -15631771.35649 -12164176.37247  22353320.988    22353331.908
       234.000         190.000
  23333241.358   -10840458.40249  -7177490.41945  23333240.214    23333255.951
       216.000         156.000
  20762185.823   -24077088.87349 -17907239.79248  20762185.228    20762192.979
       246.000         216.000
  22796503.243   -12419161.30949  -7169213.67846  22796503.879    22796511.848
       228.000         173.000
 00  4 18  1  4  0.0000000  0  8G 3G 6G22G17G21G29G23G26
  22918331.992   -17628390.05349 -13707547.47646  22918331.469    22918342.397
       227.000         174.000
  22778248.973   -11615914.25849  -9028424.36246  22778249.246    22778262.528
       223.000         172.000
  24502508.710    -8657497.70549  -6728870.39845  24502508.266    24502527.423
       212.000         145.000
  20908111.620   -23214772.89249 -17702481.27247  20908110.946    20908119.161
       243.000         210.000
  22343244.931   -15684725.79049 -12205439.42147  22343243.884    22343254.532
       234.000         190.000
  23313273.250   -10945389.59749  -7259254.47345  23313272.088    23313287.259
       216.000         156.000
  20764227.096   -24066361.83649 -17898881.04548  20764226.485    20764234.193
       246.000         216.000
  22811541.931   -12340132.54249  -7107632.86646  22811541.558    22811550.854
       225.000         173.000
 00  4 18  1  4 30.0000000  0  8G 3G 6G22G17G21G29G23G26
  22902937.786   -17709286.61049 -13770583.60146  22902936.647    22902948.367
       226.000         174.000
  22797809.369   -11513124.54649  -8948328.71846  22797809.565    22797823.163
       223.000         173.000
  24512935.040    -8602707.78149  -6686177.20045  24512934.119    24512952.915
       212.000         146.000
  20911814.635   -23195313.58049 -17687318.18547  20911813.982    20911822.237
       243.000         210.000
  22333207.861   -15737470.04749 -12246538.69447  22333207.132    22333217.709
       235.000         190.000
  23293324.836   -11050216.95849  -7340937.62945  23293324.077    23293339.890
       216.000         157.000
  20766314.020   -24055394.82049 -17890335.29848  20766313.280    20766321.087
       246.000         216.000
  22826662.234   -12260674.71249  -7045717.70846  22826662.311    22826670.710
       225.000         173.000
 00  4 18  1  5  0.0000000  0  8G 3G 6G22G17G21G29G23G26
  22887607.962   -17789844.73249 -13833356.02646  22887607.149    22887618.759
       226.000         174.000
  22817411.744   -11410114.17849  -8868061.13046  22817412.304    22817425.348
       224.000         174.000
  24523403.373    -8547697.27249  -6643312.10945  24523403.381    24523421.465
       212.000         145.000
  20915563.429   -23175613.66949 -17671967.62147  20915562.857    20915570.982
       243.000         209.000
  22323212.308   -15789996.55249 -12287468.29547  22323211.212    22323221.839
       235.000         190.000
  23273396.229   -11154940.35849  -7422539.77445  23273393.695    23273409.054
       217.000         158.000
  20768446.524   -24044188.31949 -17881602.94348  20768445.914    20768453.728
       246.000         216.000
  22841860.859   -12180805.48749  -6983481.99546  22841861.458    22841869.755
       225.000         172.000
 00  4 18  1  5 30.0000000  0  8G 3G 6G22G17G21G29G23G26
  22872342.179   -17870066.57649 -13895866.39746  22872342.227    22872352.477
       227.000         175.000
  22837057.184   -11306877.89149  -8787617.50546  22837057.404    22837071.070
       224.000         174.000
  24533916.334    -8492452.20549  -6600264.23945  24533915.754    24533935.182
       212.000         144.000
  20919357.625   -23155675.18549 -17656431.14447  20919356.791    20919365.092
       243.000         209.000
  22313261.850   -15842286.15649 -12328213.29847  22313260.861    22313271.729
       234.000         191.000
  23253487.897   -11259557.11949  -7504058.83345  23253486.786    23253501.305
       214.000         159.000
  20770626.662   -24032731.70949 -17872675.69648  20770626.155    20770633.835
       246.000         216.000
  22857135.289   -12100538.01249  -6920935.95446  22857134.865    22857143.948
       221.000         172.000
 00  4 18  1  6  0.0000000  0  8G 3G 6G22G17G21G29G23G26
  22857141.385   -17949946.82949 -13958110.60746  22857140.321    22857152.068
       226.000         176.000
  22856744.803   -11203419.58149  -8707000.86446  22856745.225    22856758.695
       224.000         173.000
  24544473.986    -8436972.54249  -6557033.60345  24544474.024    24544492.493
       212.000         146.000
  20923199.295   -23135486.96949 -17640700.08047  20923198.571    20923206.806
       243.000         209.000
  22303358.375   -15894328.56549 -12368765.68947  22303357.517    22303368.210
       235.000         191.000
  23233602.023   -11364056.09649  -7585486.12345  23233601.103    23233615.848
       216.000         161.000
  20772857.538   -24021008.37649 -17863540.61748  20772857.000    20772864.647
       246.000         216.000
  22872485.785   -12019870.98949  -6858078.59746  22872485.768    22872495.115
       222.000         170.000
 00  4 18  1  6 30.0000000  0  8G 3G 6G22G17G21G29G23G26
  22842011.921   -18029452.03249 -14020062.58546  22842011.624    22842022.042
       227.000         176.000
  22876470.643   -11099760.44149  -8626227.72946  22876471.209    22876484.197
       223.000         172.000
  24555075.929    -8381259.96649  -6513621.46145  24555075.945    24555094.699
       212.000         145.000
  20927091.548   -23115033.07849 -17624761.99847  20927090.956    20927099.145
       243.000         209.000
  22293503.414   -15946116.30349 -12409119.64347  22293502.619    22293513.060
       236.000         191.000
  23213741.738   -11468420.63849  -7666808.66145  23213740.482    23213756.196
       218.000         161.000
  20775140.487   -24009011.42249 -17854192.32548  20775139.860    20775147.646
       246.000         216.000
  22887914.751   -11938791.03349  -6794899.46246  22887914.526    22887924.355
       222.000         170.000
 00  4 18  1  7  0.0000000  0  8G 3G 6G22G17G21G29G23G26
  22826953.860   -18108581.99749 -14081722.15846  22826953.319    22826964.437
       228.000         176.000
  22896233.657   -10995905.82549  -8545302.29346  22896234.307    22896247.304
       221.000         170.000
  24565723.158    -8325309.29649  -6470023.79545  24565722.084    24565742.841
       212.000         143.000
  20931034.224   -23094314.20049 -17608617.42847  20931033.617    20931041.747
       243.000         209.000
  22283697.860   -15997644.21549 -12449271.12947  22283696.798    22283707.332
       235.000         191.000
  23193908.855   -11572641.34749  -7748019.14545  23193906.842    23193923.518
       219.000         162.000
  20777476.028   -23996738.01449 -17844628.61348  20777475.393    20777483.164
       245.000         216.000
  22903420.995   -11857305.27949  -6731404.10846  22903420.572    22903429.773
       222.000         168.000
 00  4 18  1  7 30.0000000  0  8G 3G 6G22G17G21G29G23G26
  22811969.856   -18187323.04549 -14143078.68546  22811969.422    22811980.023
       227.000         177.000
  22916033.916   -10891855.50349  -8464224.35346  22916034.400    22916047.456
       222.000         169.000
  24576415.765    -8269120.47649  -6426240.56145  24576416.101    24576434.567
       211.000         144.000
  20935029.769   -23073317.61549 -17592256.46647  20935029.131    20935037.245
       243.000         209.000
  22273941.193   -16048915.28249 -12489222.49647  22273940.472    22273950.597
       235.000         191.000
  23174107.382   -11676697.07449  -7829101.09246  23174105.730    23174121.132
       217.000         163.000
  20779866.863   -23984174.06849 -17834838.51448  20779866.238    20779873.925
       245.000         216.000
  22919003.808   -11775417.39649  -6667595.42546  22919004.383    22919012.790
       222.000         167.000
 00  4 18  1  8  0.0000000  0  8G 3G 6G22G17G21G29G23G26
  22797063.136   -18265657.71249 -14204118.54946  22797063.202    22797073.266
       228.000         177.000
  22935873.285   -10787600.02849  -8382986.55046  22935873.075    22935886.961
       222.000         169.000
  24587153.071    -8212696.69749  -6382274.23345  24587153.558    24587171.648
       213.000         144.000
  20939079.314   -23052036.99249 -17575674.17247  20939078.697    20939086.927
       243.000         209.000
  22264230.233   -16099946.20749 -12528986.73747  22264229.265    22264239.583
       236.000         192.000
  23154340.341   -11780571.64749  -7910041.85846  23154338.315    23154352.916
       219.000         164.000
  20782311.894   -23971325.17749 -17824826.38048  20782311.255    20782318.997
       245.000         216.000
  22934661.998   -11693133.57349  -6603478.20446  22934662.004    22934671.585
       220.000         167.000
 00  4 18  1  8 30.0000000  0  8G 3G 6G22G17G21G29G23G26
  22782230.931   -18343600.86449 -14264853.34346  22782230.400    22782241.752
       227.000         178.000
  22955754.334   -10683125.13549  -8301577.77246  22955754.832    22955767.853
       225.000         171.000
  24597933.451    -8156046.33549  -6338131.37545  24597933.315    24597951.796
       212.000         144.000
  20943181.275   -23030481.19149 -17558877.45547  20943180.728    20943188.874
       243.000         209.000
  22254561.947   -16150753.01649 -12568576.34347  22254561.198    22254571.596
       235.000         192.000
  23134608.043   -11884264.11049  -7990840.75646  23134607.325    23134621.263
       220.000         166.000
  20784809.509   -23958199.97449 -17814598.93748  20784808.856    20784816.567
       245.000         216.000
  22950391.895   -11610472.88249  -6539067.33246  22950391.275    22950400.773
       224.000         167.000
 00  4 18  1  9  0.0000000  0  8G 3G 6G22G17G21G29G23G26
  22767473.074   -18421153.72349 -14325284.01246  22767472.367    22767483.732
       228.000         178.000
  22975686.198   -10578383.61349  -8219961.23046  22975686.563    22975700.021
       223.000         172.000
  24608762.095    -8099142.56849  -6293791.02545  24608761.939    24608781.329
       213.000         145.000
  20947337.565   -23008639.82349 -17541858.22347  20947336.930    20947345.338
       243.000         209.000
  22244938.370   -16201324.82849 -12607982.83447  22244937.590    22244947.972
       236.000         192.000
  23114913.678   -11987756.89149  -8071484.04146  23114912.939    23114927.126
       220.000         167.000
  20787366.878   -23944760.78849 -17804126.83248  20787366.176    20787374.113
       245.000         216.000
  22966197.200   -11527415.24249  -6474347.13546  22966197.412    22966206.028
       221.000         166.000
 00  4 18  1  9 30.0000000  0  8G 3G 6G22G17G21G29G23G26
  22752786.341   -18498332.14049 -14385422.91146  22752785.085    22752797.015
       227.000         178.000
  22995667.628   -10473381.60349  -8138141.71946  22995668.060    22995682.048
       224.000         172.000
  24619636.327    -8041998.87149  -6249263.72145  24619637.030    24619655.619
       210.000         144.000
  20951547.946   -22986514.14249 -17524617.44847  20951547.336    20951555.503
       243.000         209.000
  22235355.675   -16251681.62349 -12647221.78847  22235354.874    22235364.771
       235.000         192.000
  23095254.215   -12091066.20349  -8151984.37346  23095252.879    23095267.216
       218.000         167.000
  20789981.712   -23931019.68549 -17793419.46748  20789981.026    20789988.883
       245.000         215.000
  22982080.021   -11443950.47749  -6409309.71346  22982079.667    22982090.180
       219.000         165.000
 00  4 18  1 10  0.0000000  0  8G 3G 6G22G17G21G29G23G26
  22738167.829   -18575152.42849 -14445282.74946  22738167.444    22738177.704
       228.000         179.000
  23015697.068   -10368127.20349  -8056125.53146  23015696.925    23015711.285
       221.000         171.000
  24630555.786    -7984617.85449  -6204551.54445  24630556.940    24630575.141
       216.000         147.000
  20955812.474   -22964103.97449 -17507154.99547  20955812.003    20955819.912
       243.000         209.000
  22225813.823   -16301823.95849 -12686293.63947  22225813.260    22225823.528
       236.000         192.000
  23075626.289   -12194209.97149  -8232355.71546  23075625.737    23075639.010
       220.000         167.000
  20792653.761   -23916977.95749 -17782477.85148  20792653.046    20792660.794
       245.000         215.000
  22998043.901   -11360059.99049  -6343940.55046  22998043.076    22998052.841
       217.000         164.000
 00  4 18  1 10 30.0000000  0  8G 3G 6G22G17G21G29G23G26
  22723617.415   -18651614.78849 -14504863.66746  22723616.807    22723627.899
       229.000         179.000
  23035771.975   -10262633.87349  -7973923.16746  23035772.047    23035785.408
       220.000         169.000
  24641519.555    -7927004.23349  -6159658.07245  24641519.661    24641539.147
       215.000         146.000
  20960131.453   -22941407.69449 -17489469.59647  20960130.933    20960139.169
       243.000         209.000
  22216315.811   -16351736.01749 -12725186.05847  22216315.295    22216325.615
       237.000         192.000
  23056027.520   -12297200.31049  -8312607.50446  23056026.115    23056040.058
       221.000         168.000
  20795385.495   -23902622.57949 -17771291.82948  20795385.025    20795392.495
       245.000         215.000
  23014090.874   -11275732.43549  -6278230.84046  23014090.966    23014100.368
       220.000         164.000
 00  4 18  1 11  0.0000000  0  8G 3G 6G22G17G21G29G23G26
  22709139.154   -18727698.11149 -14564149.24846  22709138.900    22709149.502
       228.000         179.000
  23055889.542   -10156915.99749  -7891545.84746  23055889.950    23055903.694
       219.000         167.000
  24652527.908    -7869155.91049  -6114581.70545  24652527.380    24652547.045
       213.000         147.000
  20964505.575   -22918421.70349 -17471558.45347  20964504.875    20964513.109
       243.000         208.000
  22206865.316   -16401398.26049 -12763883.80247  22206864.218    22206874.416
       238.000         192.000
  23036459.946   -12400026.93549  -8392731.72346  23036458.572    23036472.601
       221.000         168.000
  20798176.719   -23887954.54349 -17759862.18148  20798176.062    20798183.792
       245.000         215.000
  23030220.350   -11190971.65549  -6212183.54446  23030220.160    23030229.749
       218.000         164.000
 00  4 18  1 11 30.0000000  0  8G 3G 6G22G17G21G29G23G26
  22694735.285   -18803390.49249 -14623130.19746  22694734.652    22694746.338
       229.000         180.000
  23076046.935   -10050988.78949  -7809005.41346  23076047.485    23076060.914
       217.000         165.000
  24663579.150    -7811082.40349  -6069329.89545  24663578.930    24663598.603
       214.000         146.000
  20968936.934   -22895134.65749 -17453412.71847  20968936.228    20968944.447
       243.000         208.000
  22197464.810   -16450797.86149 -12802376.91147  22197464.345    22197474.202
       236.000         192.000
  23016925.176   -12502680.90549  -8472721.42146  23016924.275    23016937.779
       220.000         168.000
  20801023.616   -23872993.94249 -17748204.55748  20801023.041    20801030.959
       245.000         215.000
  23046430.499   -11105786.99649  -6145805.93446  23046430.358    23046439.204
       218.000         164.000
 00  4 18  1 12  0.0000000  0  8G 3G 6G22G17G21G29G23G26
  22680407.976   -18878680.93349 -14681797.95146  22680407.720    22680418.167
       228.000         180.000
  23096243.947    -9944853.51449  -7726302.85146  23096245.312    23096258.797
       217.000         164.000
  24674671.024    -7752795.25549  -6023911.60145  24674670.951    24674691.822
       214.000         146.000
  20973422.736   -22871561.74449 -17435044.22647  20973422.022    20973430.453
       243.000         208.000
  22188116.745   -16499921.74349 -12840655.15747  22188115.857    22188126.188
       237.000         193.000
  22997426.512   -12605145.55849  -8552563.58746  22997426.013    22997438.871
       221.000         168.000
  20803923.376   -23857755.57949 -17736330.49348  20803922.784    20803930.448
       245.000         215.000
  23062716.758   -11020202.00949  -6079116.40146  23062717.363    23062725.666
       219.000         164.000
 00  4 18  1 12 30.0000000  0  8G 3G 6G22G17G21G29G23G26
  22666159.094   -18953558.38349 -14740143.88246  22666158.015    22666168.637
       228.000         180.000
  23116480.873    -9838508.61549  -7643436.92946  23116481.093    23116495.304
       218.000         164.000
  24685800.225    -7694312.04949  -5978340.54845  24685801.106    24685819.715
       215.000         146.000
  20977962.188   -22847706.76449 -17416455.94847  20977961.449    20977969.725
       242.000         208.000
  22178823.435   -16548758.09949 -12878709.37347  22178822.381    22178832.875
       237.000         193.000
  22977966.833   -12707405.06949  -8632245.92646  22977965.945    22977978.503
       220.000         168.000
  20806871.665   -23842262.18649 -17724257.70848  20806871.093    20806878.769
       245.000         215.000
  23079074.455   -10934241.99549  -6012134.62945  23079075.329    23079083.747
       217.000         162.000
 00  4 18  1 13  0.0000000  0  8G 3G 6G22G17G21G29G23G26
  22651988.280   -19028025.47849 -14798170.07246  22651987.455    22651998.099
       228.000         180.000
  23136755.216    -9731967.32549  -7560417.97946  23136755.877    23136770.217
       220.000         164.000
  24696965.919    -7635636.88249  -5932619.93845  24696964.507    24696985.280
       212.000         147.000
  20982555.668   -22823567.80249 -17397646.38547  20982554.989    20982563.220
       242.000         208.000
  22169581.749   -16597323.11849 -12916552.15747  22169581.128    22169590.859
       237.000         193.000
  22958545.444   -12809463.46349  -8711771.53946  22958543.981    22958558.642
       221.000         168.000
  20809863.053   -23826542.34849 -17712008.47048  20809862.482    20809870.112
       245.000         215.000
  23095503.429   -10847907.49849  -5944861.04845  23095502.876    23095512.757
       216.000         161.000
 00  4 18  1 13 30.0000000  0  8G 3G 6G22G17G21G29G23G26
  22637891.628   -19102103.15849 -14855892.81746  22637891.214    22637902.303
       228.000         181.000
  23157063.272    -9625249.00449  -7477261.09046  23157062.829    23157077.849
       219.000         164.000
  24708164.840    -7576787.24149  -5886763.37745  24708164.783    24708184.596
       214.000         146.000
  20987202.279   -22799149.78949 -17378619.37547  20987201.743    20987210.025
       242.000         208.000
  22160385.787   -16645647.79249 -12954207.65747  22160385.175    22160394.793
       236.000         193.000
  22939159.314   -12911336.75749  -8791152.93746  22939157.991    22939171.649
       221.000         168.000
  20812895.073   -23810609.04249 -17699592.89848  20812894.403    20812901.996
       245.000         215.000
  23112004.472   -10761194.35349  -5877292.44045  23112004.862    23112013.783
       219.000         162.000
 00  4 18  1 14  0.0000000  0  8G 3G 6G22G17G21G29G23G26
  22623870.832   -19175782.91949 -14913305.49346  22623870.191    22623881.335
       229.000         181.000
  23177402.773    -9518365.28449  -7393975.30746  23177402.908    23177417.339
       217.000         164.000
  24719395.482    -7517771.10449  -5840777.02245  24719395.908    24719415.226
       215.000         144.000
  20991899.278   -22774466.92949 -17359385.99147  20991898.651    20991906.900
       242.000         208.000
  22151231.373   -16693754.17849 -12991693.05447  22151230.592    22151240.728
       236.000         193.000
  22919807.245   -13013030.80149  -8870394.67046  22919806.778    22919819.718
       221.000         167.000
  20815968.028   -23794460.41549 -17687009.54148  20815967.456    20815975.025
       245.000         215.000
  23128576.485   -10674107.97749  -5809432.98445  23128577.119    23128585.340
       221.000         162.000
 00  4 18  1 14 30.0000000  0  8G 3G 6G22G17G21G29G23G26
  22609924.613   -19249070.26249 -14970412.39846  22609923.965    22609935.229
       229.000         181.000
  23197770.884    -9411330.98549  -7310572.21646  23197771.197    23197785.460
       218.000         163.000
  24730658.856    -7458582.80349  -5794656.54345  24730658.631    24730678.488
       212.000         145.000
  20996648.380   -22749510.39449 -17339939.36047  20996647.753    20996655.999
       242.000         208.000
  22142113.045   -16741670.82049 -13029030.60247  22142112.195    22142122.460
       238.000         193.000
  22900484.110   -13114573.03249  -8949518.11546  22900483.355    22900496.929
       220.000         167.000
  20819082.589   -23778093.10149 -17674255.78248  20819082.029    20819089.802
       245.000         215.000
  23145220.560   -10586643.39149  -5741278.81045  23145221.027    23145230.222
       221.000         162.000
 00  4 18  1 15  0.0000000  0  8G 3G 6G22G17G21G29G23G26
  22596050.288   -19321979.63549 -15027224.78246  22596050.050    22596060.777
       228.000         181.000
  23218168.730    -9304140.72449  -7227047.60545  23218169.436    23218183.340
       216.000         162.000
  24741957.630    -7399208.43949  -5748391.13745  24741957.869    24741978.318
       211.000         145.000
  21001448.813   -22724284.08349 -17320282.50747  21001448.180    21001456.423
       242.000         208.000
  22133025.568   -16789425.58149 -13066242.01747  22133024.796    22133034.842
       238.000         193.000
  22881188.306   -13215971.59749  -9028529.62546  22881187.004    22881200.731
       218.000         166.000
  20822241.131   -23761494.96049 -17661322.16048  20822240.553    20822248.204
       246.000         215.000
  23161938.284   -10498791.35249  -5672822.74046  23161938.354    23161947.617
       222.000         163.000
 00  4 18  1 15 30.0000000  0  8G 3G 6G22G17G21G29G23G26
  22582247.519   -19394512.98849 -15083744.16446  22582246.856    22582257.605
       229.000         182.000
  23238598.889    -9196780.29849  -7143390.42045  23238598.253    23238614.003
       215.000         160.000
  24753289.428    -7339660.39749  -5701990.37645  24753289.244    24753310.123
       213.000         147.000
  21006301.166   -22698784.93149 -17300413.04147  21006300.681    21006308.699
       242.000         207.000
  22123969.427   -16837015.51449 -13103324.98747  22123968.875    22123978.761
       238.000         194.000
  22861921.470   -13317217.89449  -9107422.47746  22861920.782    22861933.355
       219.000         166.000
  20825447.705   -23744644.15249 -17648191.65548  20825447.193    20825454.931
       246.000         215.000
  23178727.233   -10410564.82649  -5604074.84446  23178727.931    23178737.166
       222.000         163.000
 00  4 18  1 16  0.0000000  0  8G 3G 6G22G17G21G29G23G26
  22568519.615   -19466653.15849 -15139957.17946  22568519.239    22568529.929
       229.000         182.000
  23259066.616    -9089222.53949  -7059579.46745  23259067.093    23259081.136
       216.000         159.000
  24764656.395    -7279927.85649  -5655445.82245  24764657.344    24764677.403
       212.000         145.000
  21011205.382   -22673013.06049 -17280331.07747  21011204.746    21011213.038
       242.000         207.000
  22114947.846   -16884424.15849 -13140266.69547  22114946.921    22114956.998
       237.000         194.000
  22842684.965   -13418304.63749  -9186191.01046  22842683.879    22842696.622
       221.000         166.000
  20828704.008   -23727532.12049 -17634857.59848  20828703.389    20828711.057
       246.000         215.000
  23195586.337   -10321969.62549  -5535039.68646  23195586.969    23195595.408
       222.000         163.000
 00  4 18  1 16 30.0000000  0  8G 3G 6G22G17G21G29G23G26
  22554863.902   -19538414.48949 -15195874.99346  22554863.333    22554873.877
       229.000         182.000
  23279572.734    -8981463.32649  -6975611.52045  23279573.437    23279588.016
       217.000         160.000
  24776060.191    -7220001.90749  -5608750.58045  24776059.471    24776080.453
       209.000         142.000
  21016162.825   -22646961.54749 -17260031.20647  21016162.054    21016170.548
       242.000         207.000
  22105963.794   -16931635.26049 -13177054.48147  22105962.920    22105972.926
       238.000         194.000
  22823482.162   -13519214.65549  -9264821.85846  22823481.303    22823494.619
       221.000         167.000
  20832012.024   -23710148.44949 -17621311.87848  20832011.419    20832019.014
       246.000         214.000
  23212515.397   -10233007.32749  -5465718.47946  23212515.200    23212525.163
       221.000         163.000
 00  4 18  1 17  0.0000000  0  8G 3G 6G22G17G21G29G23G26
  22541283.248   -19609781.03749 -15251485.18046  22541282.405    22541293.748
       229.000         182.000
  23300118.452    -8873495.93449  -6891481.35245  23300118.454    23300132.796
       219.000         160.000
  24787498.317    -7159895.31649  -5561914.58645  24787499.071    24787519.029
       209.000         143.000
  21021172.551   -22620635.31349 -17239517.26747  21021171.796    21021179.928
       242.000         207.000
  22097022.632   -16978621.16649 -13213666.78547  22097021.820    22097031.737
       237.000         194.000
  22804319.177   -13619915.26449  -9343289.53046  22804317.939    22804331.284
       220.000         168.000
  20835371.921   -23692491.91049 -17607553.53248  20835371.373    20835378.952
       246.000         214.000
  23229513.632   -10143681.07049  -5396113.64346  23229513.942    23229523.019
       216.000         163.000
 00  4 18  1 17 30.0000000  0  8G 3G 6G22G17G21G29G23G26
  22527781.058   -19680735.28049 -15306774.09646  22527780.502    22527790.659
       229.000         182.000
  23320702.269    -8765328.44449  -6807195.25545  23320702.983    23320717.294
       222.000         159.000
  24798969.465    -7099615.36349  -5514943.52145  24798969.221    24798989.927
       213.000         146.000
  21026236.342   -22594024.76049 -17218781.78347  21026235.860    21026243.757
       242.000         207.000
  22088129.287   -17025355.46849 -13250083.03647  22088128.507    22088138.771
       237.000         194.000
  22785198.947   -13720391.18249  -9421582.12946  22785197.776    22785211.920
       221.000         168.000
  20838782.927   -23674567.15649 -17593586.19548  20838782.291    20838790.095
       246.000         214.000
  23246579.614   -10053999.15549  -5326231.69846  23246580.647    23246588.996
       219.000         163.000
 00  4 18  1 18  0.0000000  0  8G 3G 6G22G17G21G29G23G26
  22514358.714   -19751269.43649 -15361735.66246  22514358.194    22514368.719
       230.000         182.000
  23341323.006    -8656966.96249  -6722757.99345  23341323.158    23341337.514
       217.000         158.000
  24810476.458    -7039146.98949  -5467825.61245  24810476.664    24810496.400
       212.000         148.000
  21031352.318   -22567140.21149 -17197832.79147  21031351.698    21031359.987
       242.000         206.000
  22079285.090   -17071831.59849 -13286298.10547  22079284.300    22079294.424
       237.000         194.000
  22766122.918   -13820635.22749  -9499694.04746  22766121.982    22766134.597
       222.000         168.000
  20842241.038   -23656394.58849 -17579425.75048  20842240.517    20842247.965
       246.000         214.000
  23263713.615    -9963959.88049  -5256071.29046  23263713.456    23263723.099
       218.000         163.000
 00  4 18  1 18 30.0000000  0  8G 3G 6G22G17G21G29G23G26
  22501015.623   -19821387.69349 -15416373.16946  22501014.912    22501025.497
       230.000         183.000
  23361976.143    -8548435.46949  -6638188.27145  23361977.330    23361990.973
       219.000         158.000
  24822014.981    -6978513.32649  -5420578.92545  24822014.507    24822035.072
       212.000         148.000
  21036521.818   -22539974.43249 -17176664.66447  21036521.079    21036529.600
       242.000         206.000
  22070488.363   -17118058.40949 -13322318.91047  22070487.429    22070497.604
       236.000         195.000
  22747092.233   -13920640.91649  -9577620.24546  22747091.696    22747103.968
       223.000         168.000
  20845742.188   -23637995.72449 -17565088.97348  20845741.493    20845749.204
       246.000         214.000
  23280914.901    -9873567.07249  -5185635.38346  23280914.708    23280924.370
       218.000         163.000
 00  4 18  1 19  0.0000000  0  8G 3G 6G22G17G21G29G23G26
  22487752.539   -19891085.08349 -15470682.70846  22487751.943    22487762.589
       230.000         183.000
  23382660.442    -8439739.66949  -6553490.52945  23382661.450    23382675.644
       219.000         158.000
  24833579.375    -6917743.01549  -5373225.74745  24833578.371    24833601.127
       212.000         148.000
  21041745.065   -22512526.22649 -17155276.45747  21041744.423    21041752.533
       241.000         206.000
  22061736.373   -17164050.27549 -13358156.64047  22061735.648    22061745.167
       236.000         195.000
  22728103.909   -14020424.19949  -9655373.13646  22728102.272    22728115.227
       224.000         169.000
  20849283.149   -23619387.77349 -17550589.26948  20849282.522    20849290.353
       246.000         214.000
  23298181.237    -9782832.12549  -5114932.90546  23298180.535    23298190.561
       218.000         163.000
 00  4 18  1 19 30.0000000  0  8G 3G 6G22G17G21G29G23G26
  22474568.970   -19960364.79049 -15524666.80146  22474568.690    22474579.247
       230.000         183.000
  23403373.787    -8330891.17549  -6468673.81645  23403373.602    23403388.493
       218.000         159.000
  24845171.661    -6856826.46749  -5325758.64245  24845171.736    24845191.862
       213.000         146.000
  21047023.751   -22484786.63349 -17133661.20447  21047022.959    21047031.263
       241.000         206.000
  22053026.907   -17209818.50749 -13393820.11547  22053026.108    22053036.215
       236.000         195.000
  22709156.015   -14119994.92349  -9732960.40546  22709154.909    22709167.196
       222.000         170.000
  20852865.773   -23600561.05649 -17535919.09948  20852865.222    20852872.729
       245.000         214.000
  23315510.888    -9691764.35749  -5043971.07146  23315511.118    23315520.509
       220.000         163.000
 00  4 18  1 20  0.0000000  0  8G 3G 6G22G17G21G29G23G26
  22461466.724   -20029217.38849 -15578318.07846  22461466.111    22461476.463
       230.000         183.000
  23424114.374    -8221899.82049  -6383745.77545  23424113.993    23424129.402
       216.000         159.000
  24856790.994    -6795767.79049  -5278180.77345  24856790.012    24856811.702
       211.000         145.000
  21052357.735   -22456756.45249 -17111819.51447  21052357.166    21052365.279
       241.000         206.000
  22044358.637   -17255370.06149 -13429314.74747  22044357.849    22044367.433
       237.000         195.000
  22690249.737   -14219346.68449  -9810377.04346  22690248.168    22690261.414
       223.000         171.000
  20856492.572   -23581502.17049 -17521068.02048  20856492.111    20856499.736
       246.000         214.000
  23332903.395    -9600366.57849  -4972752.07846  23332903.037    23332912.901
       221.000         163.000
 00  4 18  1 20 30.0000000  0  8G 3G 6G22G17G21G29G23G26
  22448446.481   -20097638.62149 -15631633.22146  22448445.734    22448456.212
       232.000         183.000
  23444881.118    -8112770.85649  -6298710.52645  23444881.576    23444896.762
       218.000         160.000
  24868436.761    -6734570.15749  -5230494.63945  24868436.710    24868457.300
       209.000         143.000
  21057749.989   -22428420.09649 -17089739.25047  21057749.383    21057757.552
       241.000         206.000
  22035734.043   -17300692.35049 -13464630.73247  22035733.149    22035743.277
       237.000         195.000
  22671386.102   -14318474.54449  -9887619.21546  22671384.867    22671397.675
       223.000         172.000
  20860168.424   -23562185.54849 -17506016.10548  20860167.836    20860175.433
       246.000         214.000
  23350360.358    -9508629.70949  -4901268.86345  23350360.612    23350371.849
       218.000         162.000
 00  4 18  1 21  0.0000000  0  8G 3G 6G22G17G21G29G23G26
  22435510.258   -20165619.00049 -15684604.83246  22435509.570    22435519.815
       232.000         184.000
  23465675.804    -8003495.47449  -6213561.17545  23465676.260    23465691.922
       218.000         160.000
  24880114.235    -6673205.61149  -5182678.46645  24880113.326    24880134.918
       207.000         141.000
  21063200.235   -22399778.91149 -17067421.45347  21063199.580    21063207.805
       241.000         206.000
  22027156.737   -17345765.89949 -13499752.89647  22027155.847    22027165.508
       237.000         196.000
  22652565.236   -14417377.86349  -9964686.42646  22652564.706    22652576.873
       224.000         172.000
  20863899.677   -23542577.84949 -17490737.37248  20863899.143    20863906.717
       246.000         214.000
  23367883.034    -9416547.68049  -4829516.67445  23367882.432    23367892.846
       217.000         162.000
 00  4 18  1 21 30.0000000  0  7G 3G 6G17G21G29G23G26
  22422655.538   -20233170.46349 -15737242.22146  22422654.619    22422665.194
       232.000         184.000
  23486496.859    -7894081.07449  -6128303.49545  23486497.806    23486513.115
       218.000         161.000
  21068705.072   -22370850.85149 -17044880.13047  21068704.399    21068712.521
       241.000         206.000
  22018625.625   -17390597.25549 -13534686.34147  22018624.503    22018634.548
       237.000         196.000
  22633784.756   -14516068.58649 -10041587.96346  22633783.398    22633796.161
       225.000         173.000
  20867682.944   -23522696.53949 -17475245.43648  20867682.434    20867690.133
       246.000         214.000
  23385469.846    -9324128.53549  -4757501.82845  23385470.056    23385479.794
       218.000         162.000
 00  4 18  1 22  0.0000000  0  7G 3G 6G17G21G29G23G26
  22409885.589   -20300276.65849 -15789532.65946  22409885.109    22409895.177
       231.000         184.000
  23507351.318    -7784491.22749  -6042909.12145  23507352.329    23507367.332
       220.000         162.000
  21074268.741   -22341613.70849 -17022097.95947  21074268.158    21074276.333
       241.000         206.000
  22010145.520   -17435159.91649 -13569410.41047  22010144.724    22010154.316
       237.000         196.000
  22615049.463   -14614521.95849 -10118304.55846  22615048.528    22615059.845
       224.000         174.000
  20871517.827   -23502544.14649 -17459542.26048  20871517.289    20871524.826
       246.000         214.000
  23403126.476    -9231342.96949  -4685201.44645  23403126.423    23403136.442
       220.000         162.000
 00  4 18  1 22 30.0000000  0  7G 3G 6G17G21G29G23G26
  22397199.526   -20366941.86349 -15841479.46046  22397198.882    22397208.980
       232.000         185.000
  23528241.849    -7674712.23449  -5957367.35246  23528242.497    23528257.920
       219.000         163.000
  21079891.271   -22312067.22349 -16999074.74447  21079890.765    21079898.919
       241.000         206.000
  22001715.942   -17479457.37649 -13603927.83147  22001715.339    22001724.770
       238.000         196.000
  22596357.840   -14712745.89849 -10194842.36646  22596356.948    22596369.212
       226.000         174.000
  20875401.339   -23482136.07049 -17443639.85448  20875400.861    20875408.504
       245.000         214.000
  23420853.666    -9138186.36349  -4612611.94545  23420853.660    23420862.750
       219.000         162.000
 00  4 18  1 23  0.0000000  0  8G 3G 6G17G21G29G23G26G 9
  22384597.963   -20433163.23649 -15893080.41846  22384596.866    22384607.482
       232.000         185.000
  23549166.841    -7564752.16349  -5871684.48346  23549166.541    23549182.829
       221.000         163.000
  21085570.733   -22282221.46149 -16975818.33747  21085569.944    21085578.164
       241.000         205.000
  21993331.682   -17523516.52549 -13638259.55547  21993330.654    21993340.527
       238.000         196.000
  22577709.731   -14810741.08349 -10271201.93246  22577709.407    22577720.481
       225.000         175.000
  20879329.585   -23461492.95749 -17427554.30548  20879328.891    20879336.533
       245.000         214.000
  23438645.199    -9044691.16249  -4539758.60645  23438645.893    23438655.173
       217.000         161.000
                  -1537403.61949  -1170269.27043
       215.000          74.000
 00  4 18  1 23 30.0000000  0  8G 3G 6G17G21G29G23G26G 9
  22372080.282   -20498943.62149 -15944337.74646  22372080.081    22372089.878
       232.000         185.000
  23570122.827    -7454628.79449  -5785874.36445  23570123.623    23570138.410
       217.000         162.000
  21091307.383   -22252075.08549 -16952327.67747  21091306.802    21091315.345
       241.000         205.000
  21984988.388   -17567360.37349 -13672423.50547  21984987.820    21984997.565
       237.000         196.000
  22559105.867   -14908503.82449 -10347380.37746  22559104.407    22559116.632
       224.000         175.000
  20883297.018   -23440643.69749 -17411308.11948  20883296.225    20883304.004
       245.000         214.000
  23456497.471    -8950876.85249  -4466656.60245  23456497.904    23456505.882
       218.000         160.000
                  -1598585.52049  -1217943.07845                  24422120.935
       218.000         133.000
 00  4 18  1 24  0.0000000  0  8G 3G 6G17G21G29G23G26G 9
  22359645.364   -20564288.87449 -15995256.01246  22359644.330    22359654.841
       232.000         185.000
  23591104.332    -7344371.52949  -5699959.91345  23591105.288    23591120.396
       217.000         160.000
  21097100.422   -22221632.52849 -16928606.22947  21097099.722    21097108.195
       241.000         205.000
  21976682.770   -17611006.27349 -13706433.20747  21976681.920    21976691.587
       237.000         197.000
  22540546.231   -15006034.05049 -10423377.64646  22540544.945    22540557.575
       225.000         175.000
  20887304.087   -23419586.34549 -17394899.78248  20887303.641    20887311.309
       245.000         214.000
  23474408.688    -8856753.51449  -4393313.80745  23474408.075    23474418.015
       217.000         161.000
  24410508.551    -1659538.70249  -1265438.89545  24410507.897    24410521.652
       218.000         150.000
 00  4 18  1 24 30.0000000  0  8G 3G 6G17G21G29G23G26G 9
  22347295.663   -20629186.52849 -16045825.50746  22347295.219    22347305.305
       232.000         185.000
  23612108.050    -7233997.29549  -5613954.32845  23612108.328    23612123.627
       214.000         158.000
  21102950.605   -22190889.85849 -16904650.93247  21102950.172    21102958.221
       241.000         205.000
  21968414.532   -17654455.65149 -13740289.77547  21968413.884    21968423.683
       239.000         197.000
  22522031.041   -15103330.53149 -10499192.77746  22522030.153    22522041.607
       224.000         175.000
  20891354.607   -23398300.80149 -17378313.63448  20891354.047    20891361.926
       245.000         214.000
  23492377.875    -8762324.94549  -4319733.15845  23492377.485    23492387.053
       213.000         160.000
  24398955.639    -1720249.75149  -1312745.99145  24398955.245    24398968.618
       217.000         153.000
 00  4 18  1 25  0.0000000  0  8G 3G 6G17G21G29G23G26G 9
  22335032.713   -20693628.37549 -16096039.82646  22335032.179    22335041.788
       233.000         186.000
  23633134.776    -7123502.16149  -5527854.54645  23633135.860    23633150.852
       211.000         156.000
  21108859.844   -22159836.69549 -16880453.69047  21108859.201    21108867.298
       241.000         205.000
  21960184.313   -17697705.35649 -13773990.75347  21960183.471    21960193.421
       239.000         197.000
  22503563.102   -15200378.92449 -10574814.59946  22503562.428    22503573.845
       226.000         176.000
  20895451.560   -23376771.17049 -17361537.28648  20895451.070    20895458.670
       245.000         214.000
  23510405.637    -8667588.43449  -4245912.56345  23510406.314    23510415.564
       216.000         160.000
  24387448.129    -1780720.88449  -1359866.13845  24387447.891    24387460.916
       215.000         153.000
 00  4 18  1 25 30.0000000  0  8G 3G 6G17G21G29G23G26G 9
  22322855.659   -20757618.39149 -16145902.06746  22322854.819    22322865.064
       233.000         186.000
  23654186.991    -7012873.22849  -5441650.51845  23654187.707    23654202.339
       212.000         155.000
  21114828.808   -22128469.74049 -16856011.92647  21114828.189    21114836.267
       241.000         205.000
  21951995.999   -17740734.92249 -13807520.19647  21951995.360    21952004.928
       239.000         197.000
  22485141.425   -15297184.06849 -10650246.88446  22485140.481    22485152.754
       226.000         176.000
  20899594.419   -23355000.22149 -17344572.90048  20899593.722    20899601.434
       245.000         214.000
  23528496.048    -8572522.34949  -4171835.16545  23528495.671    23528506.116
       218.000         160.000
  24375987.313    -1840947.12649  -1406795.44445  24375986.736    24376000.109
       215.000         150.000
 00  4 18  1 26  0.0000000  0  8G 3G 6G17G21G29G23G26G 9
  22310765.211   -20821154.01549 -16195410.23846  22310764.489    22310774.482
       233.000         186.000
  23675265.715    -6902104.74749  -5355337.74345  23675265.725    23675282.326
       211.000         155.000
  21120855.450   -22096799.60349 -16831333.92447  21120854.587    21120862.734
       241.000         205.000
  21943849.673   -17783543.87749 -13840877.72947  21943849.159    21943858.581
       238.000         197.000
  22466764.584   -15393753.77449 -10725495.71546  22466763.563    22466775.100
       227.000         177.000
  20903783.004   -23332989.11749 -17327421.37748  20903782.423    20903790.174
       245.000         213.000
  23546649.203    -8477127.17049  -4097501.31945  23546649.604    23546658.705
       217.000         160.000
  24364573.476    -1900926.34549  -1453532.27445  24364572.677    24364585.665
       216.000         148.000
 00  4 18  1 26 30.0000000  0  8G 3G 6G17G21G29G23G26G 9
  22298761.396   -20884234.18749 -16244563.51146  22298760.619    22298771.102
       232.000         186.000
  23696373.592    -6791183.01849  -5268905.56745  23696374.261    23696389.728
       212.000         155.000
  21126938.741   -22064831.70449 -16806423.89547  21126938.035    21126946.243
       241.000         205.000
  21935746.764   -17826124.52749 -13874057.36947  21935746.129    21935755.521
       238.000         197.000
  22448434.366   -15490078.69949 -10800553.82346  22448433.413    22448444.924
       226.000         177.000
  20908015.256   -23310748.41049 -17310090.94748  20908014.593    20908022.136
       245.000         213.000
  23564861.952    -8381418.90549  -4022923.52345  23564861.486    23564871.473
       214.000         160.000
  24353206.254    -1960660.76149  -1500078.39945  24353205.507    24353218.249
       219.000         150.000
 00  4 18  1 27  0.0000000  0  8G 3G 6G17G21G29G23G26G 9
  22286844.297   -20946858.49349 -16293361.57546  22286843.779    22286853.170
       232.000         187.000
  23717511.563    -6680103.66049  -5182350.55145  23717511.908    23717527.754
       211.000         155.000
  21133077.083   -22032574.41949 -16781288.36747  21133076.496    21133084.920
       241.000         205.000
  21927686.599   -17868480.84749 -13907062.19547  21927685.789    21927695.186
       238.000         198.000
  22430152.029   -15586151.68449 -10875415.61046  22430151.529    22430162.059
       227.000         177.000
  20912288.760   -23288290.84749 -17292591.53748  20912288.194    20912295.953
       245.000         213.000
  23583132.721    -8285405.67049  -3948108.07145  23583133.506    23583143.665
       215.000         160.000
  24341883.186    -2020162.99449  -1546443.57645  24341882.316    24341895.910
       217.000         152.000
 00  4 18  1 27 30.0000000  0  8G 3G 6G17G21G29G23G26G 9
  22275014.247   -21009025.12149 -16341803.00046  22275013.579    22275023.728
       233.000         187.000
  23738674.494    -6568892.85549  -5095693.11145  23738674.288    23738691.454
       212.000         155.000
  21139269.947   -22000030.81349 -16755929.72347  21139269.398    21139277.749
       241.000         205.000
  21919668.238   -17910617.32649 -13939895.72947  21919667.420    21919676.881
       238.000         198.000
  22411916.532   -15681978.80649 -10950085.83046  22411915.754    22411927.393
       226.000         178.000
  20916600.197   -23265634.17049 -17274936.97548  20916599.629    20916607.301
       245.000         213.000
  23601460.069    -8189095.20649  -3873061.02745  23601459.729    23601469.358
       213.000         159.000
  24330605.069    -2079429.53649  -1592625.06745  24330604.333    24330617.936
       215.000         153.000
 00  4 18  1 28  0.0000000  0  8G 3G 6G17G21G29G23G26G 9
  22263271.836   -21070731.44449 -16389885.75046  22263271.068    22263281.405
       233.000         187.000
  23759858.520    -6457571.32149  -5008949.39545  23759859.182    23759874.732
       210.000         154.000
  21145517.189   -21967201.23749 -16730348.25847  21145516.474    21145525.006
       241.000         205.000
  21911688.351   -17952551.46049 -13972571.59447  21911687.574    21911697.283
       238.000         198.000
  22393728.858   -15777554.55849 -11024560.17846  22393728.065    22393739.560
       226.000         178.000
  20920950.231   -23242774.51149 -17257124.25248  20920949.648    20920957.379
       245.000         213.000
  23619840.952    -8092503.41849  -3797794.78145  23619842.313    23619851.080
       216.000         157.000
  24319371.575    -2138461.18449  -1638623.50145  24319371.110    24319384.110
       216.000         151.000
 00  4 18  1 28 30.0000000  0  8G 3G 6G17G21G29G23G26G 9
  22251617.488   -21131975.01549 -16437607.91846  22251616.906    22251626.796
       233.000         187.000
  23781061.170    -6346151.84049  -4922129.36545  23781061.973    23781078.004
       210.000         152.000
  21151819.262   -21934083.78249 -16704542.46647  21151818.741    21151826.973
       242.000         205.000
  21903748.490   -17994275.37649 -14005083.65047  21903747.841    21903757.239
       239.000         198.000
  22375590.370   -15872871.98149 -11098833.24046  22375589.422    22375600.711
       226.000         179.000
  20925339.098   -23219710.90349 -17239152.60848  20925338.460    20925346.196
       245.000         213.000
  23638276.463    -7995624.40549  -3722304.70045  23638277.751    23638286.675
       215.000         154.000
  24308184.657    -2197248.18249  -1684431.38945  24308183.755    24308198.020
       214.000         150.000
 00  4 18  1 29  0.0000000  0  8G 3G 6G17G21G29G23G26G 9
  22240052.951   -21192746.70549 -16484962.39846  22240052.472    22240062.479
       232.000         187.000
  23802278.313    -6234656.42449  -4835250.17845  23802279.275    23802295.343
       211.000         151.000
  21158175.740   -21900680.39149 -16678513.87047  21158175.240    21158183.443
       241.000         205.000
  21895846.522   -18035800.17049 -14037440.55347  21895845.731    21895855.124
       238.000         198.000
  22357498.958   -15967941.80949 -11172913.36846  22357498.026    22357509.262
       225.000         179.000
  20929767.010   -23196442.02949 -17221021.01648  20929766.364    20929773.965
       245.000         213.000
  23656769.618    -7898442.37549  -3646578.51045  23656769.579    23656779.507
       214.000         153.000
  24297046.238    -2255780.17849  -1730040.47745  24297045.385    24297058.633
       213.000         150.000
 00  4 18  1 29 30.0000000  0  8G 3G 6G17G21G29G23G26G 9
  22228576.484   -21253055.53649 -16531956.19746  22228576.117    22228585.353
       232.000         187.000
  23823506.983    -6123100.49449  -4748323.82345  23823507.129    23823524.747
       208.000         150.000
  21164586.099   -21866993.75449 -16652264.55147  21164585.552    21164593.902
       242.000         204.000
  21887982.682   -18077124.69549 -14069641.39847  21887982.175    21887991.272
       239.000         199.000
  22339453.104   -16062772.39449 -11246807.08046  22339452.319    22339463.738
       226.000         179.000
  20934232.141   -23172977.59749 -17202737.04048  20934231.593    20934239.092
       245.000         213.000
  23675320.765    -7800955.29949  -3570614.62045  23675320.707    23675331.133
       212.000         152.000
  24285957.952    -2314048.49149  -1775444.19145  24285957.052    24285969.547
       211.000         150.000
 00  4 18  1 30  0.0000000  0  8G 3G 6G17G21G29G23G26G 9
  22217187.191   -21312906.05149 -16578592.86947  22217186.792    22217196.829
       233.000         188.000
  23844749.090    -6011473.50749  -4661342.12745  23844750.543    23844765.607
       211.000         148.000
  21171048.216   -21833035.28049 -16625803.41547  21171047.459    21171055.948
       241.000         204.000
  21880156.812   -18118249.59049 -14101686.69447  21880156.093    21880165.535
       239.000         199.000
  22321453.628   -16157359.31249 -11320510.92346  22321452.720    22321463.010
       227.000         180.000
  20938735.602   -23149311.69249 -17184296.07548  20938735.105    20938742.676
       244.000         213.000
  23693928.371    -7703172.00349  -3494419.89845  23693928.525    23693937.681
       212.000         151.000
  24274920.491    -2372049.87949  -1820639.83745  24274919.473    24274933.022
       212.000         151.000
 00  4 18  1 30 30.0000000  0  8G 3G 6G17G21G29G23G26G 9
  22205884.757   -21372300.21749 -16624873.95247  22205884.316    22205894.096
       233.000         188.000
  23866006.111    -5899768.68249  -4574299.76145  23866007.357    23866022.531
       211.000         147.000
  21177562.236   -21798803.77649 -16599129.53547  21177561.439    21177569.762
       242.000         204.000
  21872367.647   -18159181.49049 -14133581.59947  21872366.796    21872376.402
       239.000         199.000
  22303501.214   -16251698.88549 -11394022.04246  22303500.458    22303511.392
       226.000         180.000
  20943274.945   -23125457.17949 -17165708.13948  20943274.353    20943282.020
       244.000         213.000
  23712591.899    -7605094.25549  -3417995.74345  23712592.644    23712602.219
       211.000         151.000
  24263934.977    -2429778.35149  -1865622.85145  24263934.238    24263947.835
       211.000         151.000
 00  4 18  1 31  0.0000000  0  8G 3G 6G17G21G29G23G26G 9
  22194667.663   -21431246.18949 -16670805.79847  22194667.252    22194676.832
       234.000         188.000
  23887280.042    -5787974.83049  -4487188.02345  23887279.820    23887297.309
       214.000         145.000
  21184130.209   -21764288.92649 -16572234.86747  21184129.592    21184138.051
       241.000         204.000
  21864613.293   -18199930.67549 -14165334.13047  21864612.604    21864622.015
       239.000         199.000
  22285596.146   -16345789.47549 -11467339.15246  22285595.803    22285605.989
       226.000         180.000
  20947850.104   -23101414.40349 -17146973.50948  20947849.576    20947857.366
       244.000         213.000
  23731308.682    -7506737.36049  -3341354.06245  23731308.057    23731318.344
       208.000         151.000
  24253000.271    -2487239.63749  -1910397.67345  24252998.858    24253013.149
       212.000         152.000
 00  4 18  1 31 30.0000000  0  8G 3G 6G17G21G29G23G26G 9
  22183535.372   -21489747.06349 -16716390.81247  22183534.848    22183544.800
       234.000         189.000
  23908575.605    -5676067.31949  -4399987.71945  23908576.477    23908592.951
       215.000         144.000
  21190754.622   -21729477.50949 -16545109.10247  21190753.896    21190762.569
       241.000         204.000
  21856896.306   -18240483.44649 -14196933.61047  21856895.676    21856904.976
       239.000         199.000
  22267741.507   -16439615.38549 -11540450.00446  22267740.254    22267751.770
       228.000         180.000
  20952462.202   -23077177.65649 -17128087.72747  20952461.733    20952469.288
       244.000         212.000
  23750074.231    -7408123.87349  -3264512.43645  23750074.855    23750083.662
       212.000         152.000
  24242116.563    -2544432.95849  -1954963.64445  24242115.433    24242128.561
       210.000         151.000
 00  4 18  1 32  0.0000000  0  8G 3G 6G17G21G29G23G26G 9
  22172490.315   -21547789.24549 -16761618.40747  22172489.685    22172499.197
       233.000         189.000
  23929897.348    -5564022.41549  -4312680.34645  23929898.496    23929913.924
       215.000         144.000
  21197439.326   -21694349.31649 -16517736.51947  21197438.759    21197446.897
       241.000         204.000
  21849217.039   -18280837.95849 -14228378.59947  21849216.192    21849225.313
       239.000         199.000
  22249942.341   -16533149.78549 -11613333.73646  22249942.086    22249952.470
       228.000         181.000
  20957113.793   -23052733.39949 -17109040.25047  20957113.252    20957120.948
       245.000         212.000
  23768886.730    -7309263.88949  -3187478.73145  23768887.791    23768896.627
       216.000         153.000
  24231284.958    -2601352.91049  -1999316.66345  24231283.422    24231297.078
       210.000         152.000
 00  4 18  1 32 30.0000000  0  8G 3G 6G17G21G29G23G26G 9
  22161534.146   -21605363.76849 -16806481.59847  22161533.620    22161543.454
       233.000         189.000
  23951245.053    -5451840.87349  -4225266.49145  23951245.518    23951262.682
       217.000         145.000
  21204188.304   -21658883.24149 -16490100.63847  21204187.686    21204196.129
       241.000         204.000
  21841577.300   -18320984.69549 -14259661.68347  21841576.461    21841585.820
       239.000         199.000
  22232201.152   -16626379.43149 -11685979.99046  22232200.518    22232211.606
       228.000         181.000
  20961806.498   -23028073.11349 -17089824.43747  20961805.874    20961813.685
       244.000         212.000
  23787748.148    -7210146.87349  -3110244.75345  23787748.065    23787758.358
       214.000         153.000
  24220507.034    -2657990.26049  -2043449.44945  24220506.542    24220518.279
       212.000         152.000
 00  4 18  1 33  0.0000000  0  8G 3G 6G17G21G29G23G26G 9
  22150668.807   -21662460.43449 -16850972.44347  22150668.182    22150678.220
       234.000         189.000
  23972617.456    -5339529.90849  -4137751.79945  23972618.472    23972634.244
       217.000         148.000
  21211001.486   -21623079.96649 -16462201.99647  21211000.530    21211009.035
       241.000         203.000
  21833982.054   -18360897.79449 -14290762.71247  21833981.219    21833990.530
       239.000         199.000
  22214519.133   -16719298.23949 -11758384.03246  22214518.669    22214529.378
       228.000         181.000
  20966544.834   -23003173.04349 -17070421.77347  20966544.183    20966551.738
       244.000         212.000
  23806659.689    -7110766.24249  -3032805.34445  23806659.213    23806670.363
       216.000         154.000
  24209784.446    -2714336.61849  -2087355.47445  24209783.356    24209797.099
       212.000         153.000
 00  4 18  1 33 30.0000000  0  8G 3G 6G17G21G29G23G26G 9
  22139898.305   -21719059.92249 -16895075.87347  22139897.808    22139907.453
       234.000         190.000
  23994012.448    -5227099.80649  -4050144.29645  23994013.610    23994029.232
       219.000         150.000
  21217878.952   -21586938.42549 -16434039.77947  21217878.279    21217886.457
       240.000         203.000
  21826433.697   -18400564.21649 -14321671.52747  21826432.895    21826442.076
       239.000         200.000
  22196897.700   -16811898.42149 -11830539.80846  22196897.498    22196907.944
       228.000         182.000
  20971328.965   -22978032.10449 -17050831.41847  20971328.391    20971335.994
       243.000         212.000
  23825622.468    -7011116.87149  -2955156.53445  23825623.304    23825630.722
       218.000         154.000
  24199118.938    -2770383.56349  -2131028.22945  24199117.879    24199130.713
       211.000         154.000
 00  4 18  1 34  0.0000000  0  8G 3G 6G17G21G29G23G26G 9
  22129224.090   -21775153.42349 -16938785.02747  22129223.337    22129233.576
       234.000         190.000
  24015425.159    -5114576.86049  -3962464.46945  24015425.627    24015442.553
       219.000         152.000
  21224820.873   -21550458.42349 -16405613.83247  21224820.393    21224828.813
       241.000         203.000
  21818932.596   -18439982.40949 -14352386.91147  21818931.998    21818941.072
       238.000         200.000
  22179335.689   -16904186.56949 -11902452.44946  22179334.876    22179345.478
       227.000         182.000
  20976158.413   -22952653.10649 -17031055.56247  20976157.868    20976165.493
       243.000         212.000
  23844640.254    -6911178.14649  -2877282.23145  23844640.969    23844650.079
       211.000         154.000
  24188512.068    -2826122.66449  -2174461.09545  24188511.582    24188523.981
       210.000         152.000
 00  4 18  1 34 30.0000000  0  8G 3G 6G17G21G29G23G26G 9
  22118646.508   -21830738.93849 -16982098.35147  22118645.760    22118655.494
       234.000         190.000
  24036851.143    -5001984.29149  -3874730.37745  24036852.663    24036868.279
       220.000         152.000
  21231823.972   -21513657.09549 -16376937.49147  21231823.275    21231831.834
       240.000         203.000
  21811479.961   -18479145.90849 -14382903.82647  21811478.947    21811488.463
       239.000         200.000
  22161826.795   -16996195.42449 -11974147.45346  22161826.487    22161836.370
       228.000         183.000
  20981031.354   -22927045.77049 -17011101.77847  20981030.815    20981038.229
       243.000         212.000
  23863712.997    -6810949.94549  -2799182.40145  23863714.304    23863721.535
       218.000         155.000
  24177961.267    -2881566.83249  -2217664.13045  24177960.356    24177973.612
       211.000         152.000
 00  4 18  1 35  0.0000000  0  8G 3G 6G17G21G29G23G26G 9
  22108167.788   -21885804.78549 -17025006.75047  22108166.935    22108177.078
       234.000         190.000
  24058290.701    -4889320.20649  -3786940.57145  24058291.931    24058309.157
       217.000         152.000
  21238886.429   -21476543.65849 -16348017.93847  21238885.665    21238894.365
       240.000         202.000
  21804076.093   -18518053.00349 -14413220.96147  21804075.393    21804084.761
       239.000         200.000
  22144370.570   -17087927.76249 -12045627.00346  22144370.202    22144380.058
       229.000         183.000
  20985945.608   -22901220.94549 -16990978.51947  20985944.983    20985952.801
       243.000         212.000
  23882838.457    -6710445.58149  -2720867.34645  23882837.915    23882846.173
       210.000         154.000
  24167465.363    -2936722.41249  -2260642.29045  24167464.532    24167477.075
       215.000         153.000
 00  4 18  1 35 30.0000000  0  8G 3G 6G17G21G29G23G26G 9
  22097787.525   -21940353.08949 -17067511.86647  22097786.711    22097796.886
       234.000         190.000
  24079744.849    -4776579.34449  -3699090.94645  24079744.929    24079763.020
       214.000         151.000
  21246007.894   -21439120.20949 -16318856.82847  21246007.235    21246015.663
       240.000         202.000
  21796718.489   -18556717.28049 -14443348.88047  21796717.586    21796726.887
       240.000         200.000
  22126965.210   -17179392.84349 -12116898.30546  22126965.061    22126974.902
       229.000         184.000
  20990897.411   -22875198.85849 -16970701.55347  20990896.745    20990904.303
       243.000         212.000
  23902012.704    -6609684.02749  -2642351.90345  23902013.870    23902022.561
       212.000         153.000
  24157023.949    -2991591.43249  -2303397.19745  24157023.211    24157035.792
       209.000         149.000
 00  4 18  1 36  0.0000000  0  8G 3G 6G17G21G29G23G26G 9
  22087503.360   -21994396.32349 -17109623.42947  22087502.660    22087512.083
       233.000         190.000
  24101213.297    -4663763.29949  -3611182.74145  24101214.027    24101231.754
       213.000         149.000
  21253186.260   -21401397.69049 -16289462.69047  21253185.766    21253194.050
       240.000         202.000
  21789405.479   -18595147.05349 -14473294.08247  21789404.809    21789413.998
       239.000         200.000
  22109607.334   -17270608.35149 -12187975.13946  22109606.088    22109617.178
       230.000         184.000
  20995886.920   -22848978.62849 -16950270.19547  20995886.490    20995894.115
       243.000         212.000
  23921236.036    -6508665.01149  -2563635.85645  23921235.843    23921245.726
       209.000         152.000
  24146637.128    -3046173.66749  -2345928.59845  24146637.411    24146649.499
       209.000         150.000
 00  4 18  1 36 30.0000000  0  8G 3G 6G17G21G29G23G26G 9
  22077314.120   -22047940.28549 -17151345.94447  22077313.284    22077323.037
       235.000         190.000
  24122698.544    -4550859.15149  -3523205.88445  24122698.923    24122716.139
       210.000         146.000
  21260419.672   -21363385.95449 -16259843.17447  21260418.888    21260427.484
       240.000         202.000
  21782135.785   -18633349.04049 -14503061.78747  21782135.322    21782144.407
       239.000         200.000
  22092299.067   -17361563.02149 -12258848.72946  22092298.590    22092308.762
       231.000         184.000
  21000912.083   -22822571.26149 -16929693.01647  21000911.492    21000919.315
       243.000         212.000
  23940505.929    -6407401.13549  -2484729.01945  23940505.753    23940516.604
       211.000         151.000
  24136305.525    -3100465.82749  -2388233.99545  24136305.963    24136317.043
       208.000         150.000
 00  4 18  1 37  0.0000000  0  8G 3G 6G17G21G29G23G26G 9
  22067218.027   -22100995.26149 -17192687.43647  22067217.773    22067227.303
       234.000         191.000
  24144199.700    -4437870.93449  -3435163.54645  24144200.218    24144218.450
       209.000         145.000
  21267706.617   -21325093.06749 -16230004.58447  21267706.273    21267714.523
       240.000         202.000
  21774904.102   -18671351.62449 -14532674.11547  21774903.398    21774912.408
       239.000         200.000
  22075042.039   -17452248.66149 -12329512.68446  22075041.697    22075051.422
       230.000         185.000
  21005972.207   -22795980.15949 -16908972.66347  21005971.598    21005979.246
       243.000         212.000
  23959820.757    -6305901.30349  -2405638.29445  23959820.571    23959832.683
       211.000         150.000
  24126032.892    -3154448.15349  -2430297.96045  24126031.386    24126044.598
       207.000         149.000
 00  4 18  1 37 30.0000000  0  8G 3G 6G17G21G29G23G26G 9
  22057211.646   -22153578.89249 -17233661.64247  22057211.120    22057220.558
       235.000         191.000
  24165716.160    -4324802.44049  -3347058.64445  24165718.062    24165734.259
       207.000         144.000
  21275048.469   -21286511.37849 -16199940.94647  21275047.801    21275056.119
       240.000         202.000
  21767707.510   -18709169.50749 -14562142.52647  21767706.880    21767715.773
       239.000         200.000
  22057837.067   -17542660.76049 -12399963.49946  22057836.518    22057846.417
       231.000         185.000
  21011067.527   -22769203.86649 -16888108.01047  21011066.901    21011074.595
       243.000         212.000
  23979182.678    -6204153.84349  -2326354.61645  23979181.168    23979190.143
       211.000         148.000
  24115821.845    -3208106.59349  -2472109.51945  24115821.894    24115834.144
       208.000         148.000
 00  4 18  1 38  0.0000000  0  8G 3G 6G17G21G29G23G26G 9
  22047294.738   -22205692.12949 -17274269.31347  22047294.616    22047304.225
       235.000         191.000
  24187246.135    -4211663.12849  -3258898.56645  24187247.417    24187264.226
       209.000         143.000
  21282444.913   -21247642.94549 -16169653.86747  21282444.160    21282452.798
       240.000         202.000
  21760543.966   -18746813.90649 -14591475.75447  21760543.369    21760552.307
       239.000         201.000
  22040688.860   -17632774.47449 -12470181.80046  22040688.719    22040698.438
       231.000         186.000
  21016197.701   -22742244.46449 -16867100.67547  21016197.219    21016204.865
       243.000         211.000
  23998593.107    -6102151.68249  -2246872.48345  23998592.940    23998604.583
       215.000         147.000
  24105671.124    -3261448.48449  -2513674.45345  24105671.401    24105682.553
       206.000         147.000
 00  4 18  1 38 30.0000000  0  8G 3G 6G17G21G29G23G26G 9
  22037468.365   -22257329.58849 -17314506.24247  22037467.689    22037477.723
       234.000         191.000
  24208790.078    -4098451.04749  -3170681.76345  24208790.473    24208809.712
       209.000         143.000
  21289895.667   -21208489.06549 -16139144.37247  21289894.783    21289903.193
       240.000         201.000
  21753412.775   -18784288.22749 -14620676.45047  21753411.876    21753421.147
       240.000         201.000
  22023603.692   -17722556.78349 -12540141.87446  22023603.037    22023612.979
       231.000         186.000
  21021359.764   -22715117.44749 -16845962.73147  21021359.076    21021366.859
       243.000         211.000
  24018046.786    -5999921.98849  -2167213.01545  24018046.233    24018056.399
       203.000         145.000
  24095580.457    -3314474.01749  -2554992.86145  24095579.817    24095592.631
       205.000         146.000
 00  4 18  1 39  0.0000000  0  8G 3G 6G17G21G29G23G26G 9
  22027732.391   -22308492.33049 -17354373.26147  22027731.749    22027741.257
       235.000         192.000
  24230346.159    -3985174.72749  -3082414.91745  24230346.900    24230365.032
       208.000         144.000
  21297404.289   -21169030.94549 -16108397.81047  21297403.504    21297412.288
       240.000         201.000
  21746314.800   -18821588.10649 -14649741.22247  21746314.110    21746323.010
       240.000         201.000
  22006581.780   -17812006.85349 -12609843.05246  22006580.791    22006591.590
       231.000         186.000
  21026556.033   -22687810.88849 -16824684.88847  21026555.439    21026563.133
       243.000         211.000
  24037542.728    -5897470.13249  -2087380.46645  24037542.396    24037553.298
       212.000         145.000
  24085548.482    -3367191.81349  -2596071.46545  24085547.532    24085559.881
       203.000         146.000
 00  4 18  1 39 30.0000000  0  8G 3G 6G17G21G29G23G26G 9
  22018089.584   -22359165.58649 -17393858.85847  22018089.254    22018098.734
       235.000         192.000
  24251913.736    -3871837.50249  -2994100.59745  24251914.839    24251933.253
       209.000         143.000
  21304973.142   -21129256.44449 -16077404.71447  21304972.395    21304981.070
       240.000         201.000
  21739255.274   -18858686.09549 -14678648.67947  21739254.747    21739263.277
       240.000         201.000
  21989626.224   -17901108.17549 -12679272.48946  21989625.609    21989635.511
       231.000         186.000
  21031785.647   -22660329.05249 -16803270.46547  21031785.168    21031792.841
       243.000         211.000
  24057082.942    -5794785.95349  -2007366.87545  24057082.358    24057092.762
       212.000         144.000
  24075573.894    -3419608.08249  -2636915.15745  24075573.647    24075585.233
       208.000         147.000
 00  4 18  1 40  0.0000000  0  8G 3G 6G17G21G29G23G26G 9
  22008543.102   -22409332.32449 -17432949.76647  22008542.933    22008552.727
       235.000         192.000
  24273492.522    -3758441.99049  -2905740.87445  24273492.761    24273511.704
       208.000         144.000
  21312602.681   -21089163.07549 -16046163.13647  21312602.113    21312610.343
       240.000         201.000
  21732236.438   -18895569.81349 -14707389.17147  21732235.646    21732244.462
       240.000         201.000
  21972736.021   -17989865.93249 -12748434.20746  21972735.182    21972745.387
       231.000         187.000
  21037046.398   -22632683.72349 -16781728.64847  21037045.836    21037053.631
       243.000         211.000
  24076665.204    -5691880.88849  -1927181.14045  24076665.072    24076674.599
       209.000         144.000
  24065655.804    -3471726.74149  -2677526.93145  24065655.314    24065666.675
       204.000         147.000
 00  4 18  1 40 30.0000000  0  8G 3G 6G17G21G29G23G26G 9
  21999092.577   -22458995.16149 -17471648.02047  21999092.245    21999101.566
       235.000         192.000
  24295081.060    -3644994.82749  -2817340.89945  24295081.925    24295099.610
       210.000         143.000
  21320294.495   -21048742.14749 -16014666.31747  21320294.128    21320302.516
       239.000         201.000
  21725260.516   -18932228.24449 -14735954.11747  21725259.716    21725268.739
       240.000         201.000
  21955907.584   -18078299.02649 -12817342.93146  21955907.412    21955916.955
       231.000         187.000
  21042339.617   -22604867.65749 -16760053.79047  21042339.212    21042346.782
       243.000         211.000
  24096288.113    -5588762.12549  -1846828.89445  24096286.638    24096297.346
       215.000         144.000
  24055796.073    -3523539.60649  -2717900.40545  24055795.439    24055807.382
       208.000         148.000
 00  4 18  1 41  0.0000000  0  8G 3G 6G17G21G29G23G26G 9
  21989739.588   -22508145.00849 -17509946.53647  21989738.901    21989748.447
       235.000         192.000
  24316678.449    -3531501.11649  -2728904.65145  24316679.093    24316698.694
       209.000         144.000
  21328051.495   -21007979.10849 -15982902.93047  21328050.958    21328059.465
       239.000         201.000
  21718326.565   -18968666.12249 -14764347.20747  21718325.876    21718334.686
       240.000         201.000
  21939137.174   -18166427.42449 -12886014.23746  21939136.512    21939146.209
       232.000         187.000
  21047668.134   -22576866.11749 -16738234.41047  21047667.573    21047675.321
       243.000         211.000
  24115956.687    -5485403.55249  -1766289.78845  24115954.702    24115966.457
       208.000         145.000
  24045998.674    -3575024.27149  -2758018.17045  24045997.982    24046010.344
       211.000         148.000
 00  4 18  1 41 30.0000000  0  8G 3G 6G17G21G29G23G26G 9
  21980485.575   -22556774.99649 -17547839.97247  21980485.417    21980494.330
       236.000         193.000
  24338284.361    -3417963.10849  -2640433.90145  24338285.286    24338303.560
       206.000         145.000
  21335869.349   -20966896.12649 -15950890.22647  21335868.975    21335877.267
       239.000         201.000
  21711431.922   -19004897.43449 -14792579.34147  21711431.069    21711440.018
       239.000         201.000
  21922425.332   -18254248.04949 -12954445.71447  21922424.821    21922434.840
       231.000         188.000
  21053030.212   -22548688.08949 -16716277.50147  21053029.631    21053037.385
       243.000         211.000
  24135669.935    -5381809.73449  -1685567.36245  24135671.153    24135680.991
       217.000         147.000
  24036267.015    -3626163.58849  -2797866.83045  24036266.449    24036278.376
       207.000         149.000
 00  4 18  1 42  0.0000000  0  9G 3G 6G17G21G29G23G26G31G 9
  21971329.339   -22604891.04749 -17585332.92947  21971329.155    21971338.411
       235.000         193.000
  24359900.269    -3304372.12749  -2551921.87245  24359900.922    24359920.366
       205.000         145.000
  21343749.660   -20925484.74049 -15918621.62647  21343748.900    21343757.551
       239.000         201.000
  21704574.751   -19040931.66249 -14820657.90247  21704574.216    21704582.909
       240.000         201.000
  21905772.433   -18341758.83249 -13022635.76347  21905771.770    21905781.748
       232.000         188.000
  21058430.888   -22520307.42749 -16694162.69947  21058430.242    21058437.953
       243.000         211.000
  24155426.972    -5277985.98849  -1604665.78945  24155426.216    24155437.698
       218.000         147.000
  24489871.382    -8585350.96049  -6644149.63745  24489870.246    24489884.917
       202.000         139.000
  24026603.648    -3676944.16349  -2837435.93345  24026602.639    24026615.251
       205.000         149.000
 00  4 18  1 42 30.0000000  0  9G 3G 6G17G21G29G23G26G31G 9
  21962269.679   -22652499.66949 -17622430.48147  21962269.247    21962278.308
       236.000         193.000
  24381521.511    -3190753.63549  -2463388.40645  24381521.774    24381541.314
       204.000         143.000
  21351689.493   -20883760.73249 -15886109.42947  21351688.993    21351697.309
       239.000         200.000
  21697751.229   -19076789.16649 -14848598.76647  21697750.550    21697759.636
       240.000         201.000
  21889178.085   -18428962.10949 -13090586.19647  21889177.688    21889187.129
       231.000         189.000
  21063871.525   -22491716.78749 -16671884.27647  21063870.726    21063878.608
       243.000         211.000
  24175225.089    -5173946.15749  -1523595.81545  24175226.879    24175230.653
       218.000         147.000
  24472480.533    -8676740.15949  -6715361.83645  24472479.435    24472494.245
       204.000         140.000
  24017009.021    -3727363.25349  -2876723.35845  24017009.011    24017020.674
       211.000         151.000
 00  4 18  1 43  0.0000000  0  9G 3G 6G17G21G29G23G26G31G 9
  21953309.284   -22699586.92349 -17659121.78347  21953308.601    21953318.180
       236.000         193.000
  24403146.366    -3077115.67649  -2374839.77245  24403146.643    24403166.355
       203.000         142.000
  21359687.795   -20841729.29049 -15853357.67747  21359687.006    21359695.465
       239.000         200.000
  21690961.737   -19112467.83849 -14876400.27547  21690960.940    21690970.193
       239.000         201.000
  21872644.343   -18515846.75849 -13158288.34547  21872643.894    21872653.674
       232.000         189.000
  21069351.421   -22462919.63349 -16649444.94047  21069350.872    21069358.494
       243.000         211.000
  24195064.510    -5069689.35649  -1442356.76745  24195064.475    24195072.025
       215.000         147.000
  24455144.319    -8767842.53449  -6786350.54945  24455144.266    24455157.765
       208.000         141.000
  24007485.052    -3777412.25949  -2915722.42445  24007484.484    24007496.400
       209.000         151.000
 00  4 18  1 43 30.0000000  0  9G 3G 6G17G21G29G23G26G31G 9
  21944447.345   -22746156.33149 -17695409.56147  21944446.646    21944456.190
       237.000         193.000
  24424775.960    -2963453.38949  -2286272.19945  24424776.999    24424796.011
       201.000         142.000
  21367744.925   -20799388.94049 -15820365.22647  21367744.258    21367752.725
       239.000         200.000
  21684211.549   -19147940.13749 -14904040.97647  21684210.963    21684219.795
       240.000         202.000
  21856174.118   -18602397.48649 -13225730.29747  21856173.656    21856183.416
       233.000         189.000
  21074871.864   -22433909.51949 -16626839.65447  21074871.310    21074878.876
       243.000         211.000
  24214944.421    -4965220.01149  -1360952.11845  24214945.002    24214952.247
       208.000         149.000
  24437862.827    -8858657.17449  -6857115.06845  24437862.430    24437876.885
       209.000         143.000
  23998029.031    -3827103.97049  -2954443.08945  23998028.491    23998040.490
       206.000         152.000
 00  4 18  1 44  0.0000000  0  9G 3G 6G17G21G29G23G26G31G 9
  21935685.462   -22792200.57749 -17731288.11447  21935684.761    21935694.502
       236.000         194.000
  24446411.660    -2849758.65749  -2197679.33845  24446412.481    24446430.834
       206.000         140.000
  21375864.754   -20756718.68849 -15787115.70247  21375864.047    21375872.834
       239.000         200.000
  21677505.039   -19183182.96449 -14931502.87047  21677504.426    21677513.336
       240.000         202.000
  21839768.722   -18688607.74949 -13292906.94447  21839768.083    21839777.882
       233.000         189.000
  21080434.626   -22404676.99849 -16604061.06447  21080434.109    21080441.747
       243.000         211.000
  24234864.764    -4860538.08049  -1279381.85245  24234865.282    24234874.797
       216.000         149.000
  24420636.798    -8949180.02449  -6927652.19645  24420635.696    24420649.558
       213.000         144.000
  23988640.753    -3876438.20449  -2992885.14245  23988640.010    23988651.937
       210.000         150.000
 00  4 18  1 44 30.0000000  0  9G 3G 6G17G21G29G23G26G31G 9
  21927027.838   -22837696.35449 -17766739.29247  21927027.265    21927036.574
       237.000         194.000
  24468055.050    -2736023.49649  -2109054.94345  24468056.117    24468075.097
       206.000         143.000
  21384048.271   -20713714.30449 -15753605.81847  21384047.632    21384056.290
       239.000         200.000
  21670844.489   -19218184.06349 -14958776.40247  21670843.697    21670852.936
       240.000         202.000
  21823430.918   -18774462.91849 -13359806.90147  21823430.234    21823440.089
       233.000         190.000
  21086035.569   -22375243.80449 -16581126.10647  21086034.832    21086042.527
       243.000         211.000
  24254824.058    -4755651.64449  -1197652.17445  24254823.665    24254834.449
       201.000         147.000
  24403469.761    -9039392.33049  -6997947.35445  24403468.470    24403483.378
       212.000         145.000
  23979321.641    -3925410.26649  -3031045.06945  23979321.291    23979332.856
       207.000         150.000
 00  4 18  1 45  0.0000000  0  9G 3G 6G17G21G29G23G26G31G 9
  21918471.758   -22882658.74449 -17801774.84647  21918471.308    21918480.463
       236.000         194.000
  24489709.578    -2622229.78649  -2020384.93245  24489710.756    24489730.259
       208.000         144.000
  21392295.902   -20670372.65649 -15719833.13147  21392295.612    21392303.642
       239.000         200.000
  21664230.241   -19252941.96349 -14985860.43047  21664229.556    21664238.756
       241.000         202.000
  21807159.643   -18859968.20449 -13426434.22747  21807158.938    21807168.931
       233.000         191.000
  21091672.098   -22345623.44449 -16558045.31147  21091671.500    21091679.327
       243.000         211.000
  24274821.874    -4650562.16249  -1115764.34445  24274821.411    24274831.736
       208.000         144.000
  24386360.141    -9129303.70649  -7068007.99645  24386358.415    24386372.892
       214.000         146.000
  23970070.069    -3974026.42649  -3068927.62245  23970068.227    23970081.312
       210.000         149.000
 00  4 18  1 45 30.0000000  0  9G 3G 6G17G21G29G23G26G31G 9
  21910016.013   -22927093.68249 -17836399.39647  21910015.332    21910024.829
       236.000         194.000
  24511379.543    -2508355.10549  -1931651.83445  24511380.924    24511400.049
       209.000         145.000
  21400609.497   -20626684.51949 -15685790.45847  21400608.887    21400617.275
       239.000         200.000
  21657659.325   -19287472.19649 -15012767.04947  21657658.585    21657667.437
       241.000         202.000
  21790955.709   -18945119.86549 -13492785.99747  21790954.856    21790964.283
       233.000         191.000
  21097342.396   -22315825.93249 -16534826.47747  21097342.044    21097349.418
       242.000         211.000
  24294856.937    -4545277.29149  -1033724.26345  24294858.609    24294866.323
       208.000         144.000
  24369306.984    -9218918.07549  -7137837.22345  24369306.490    24369320.041
       213.000         146.000
  23960886.447    -4022286.27049  -3106532.53845  23960885.674    23960897.883
       209.000         150.000
 00  4 18  1 46  0.0000000  0  8G 3G17G21G29G23G26G31G 9
  21901661.729   -22970995.26349 -17870608.33947  21901661.405    21901670.454
       237.000         194.000
  21408986.523   -20582662.81949 -15651487.86647  21408985.748    21408994.297
       238.000         199.000
  21651124.866   -19321810.83449 -15039524.37147  21651124.159    21651133.035
       240.000         202.000
  21774816.030   -19029933.66649 -13558874.49647  21774815.319    21774824.498
       233.000         191.000
  21103041.707   -22285875.92249 -16511488.81747  21103041.249    21103048.901
       243.000         210.000
  24314923.940    -4439824.39149   -951553.20445  24314923.988    24314934.363
       205.000         143.000
  24352309.396    -9308240.40049  -7207438.90045  24352308.947    24352322.377
       216.000         145.000
  23951771.314    -4070185.75749  -3143856.65145  23951770.244    23951783.070
       211.000         150.000
 00  4 18  1 46 30.0000000  0  8G 3G17G21G29G23G26G31G 9
  21893410.575   -23014355.02149 -17904395.08747  21893410.008    21893419.468
       237.000         194.000
  21417425.903   -20538313.70449 -15616930.14847  21417425.325    21417433.762
       238.000         199.000
  21644625.449   -19355965.17249 -15066138.07847  21644624.658    21644633.852
       240.000         202.000
  21758740.442   -19114410.66049 -13624700.55247  21758739.968    21758749.015
       234.000         192.000
  21108769.037   -22255778.43049 -16488036.23847  21108768.484    21108776.314
       243.000         210.000
  24335024.870    -4334192.75849   -869242.88545  24335024.713    24335033.840
       195.000         140.000
  24335370.531    -9397254.40949  -7276800.33345  24335369.864    24335383.633
       215.000         144.000
  23942725.638    -4117720.87449  -3180896.84145  23942725.506    23942735.094
       210.000         150.000
 00  4 18  1 47  0.0000000  0  8G 3G17G21G29G23G26G31G 9
  21885259.686   -23057188.05149 -17937771.40247  21885259.460    21885268.228
       236.000         194.000
  21425925.659   -20493647.40949 -15582125.27247  21425925.101    21425933.548
       239.000         199.000
  21638161.415   -19389933.77949 -15092607.06047  21638160.653    21638169.473
       240.000         202.000
  21742728.020   -19198555.98149 -13690268.15747  21742727.213    21742736.835
       234.000         192.000
  21114527.017   -22225520.02649 -16464458.27647  21114526.388    21114534.052
       243.000         210.000
  24355161.804    -4228371.87649   -786785.15045  24355163.841    24355172.206
       206.000         140.000
  24318491.051    -9485955.98149  -7345918.30945  24318490.409    24318503.237
       216.000         145.000
  23933749.494    -4164890.27049  -3217652.02445  23933750.140    23933760.135
       217.000         151.000
 00  4 18  1 47 30.0000000  0  8G 3G17G21G29G23G26G31G 9
  21877210.730   -23099485.00849 -17970729.98847  21877209.943    21877219.442
       236.000         195.000
  21434480.977   -20448689.04149 -15547092.79747  21434480.488    21434489.275
       238.000         199.000
  21631733.658   -19423711.62649 -15118927.39447  21631732.833    21631741.919
       241.000         203.000
  21726778.863   -19282368.51849 -13755576.45847  21726778.224    21726787.933
       234.000         192.000
  21120314.609   -22195105.94749 -16440759.00647  21120314.091    21120321.767
       243.000         210.000
  24375334.545    -4122363.66949   -704181.39645  24375334.657    24375344.875
       202.000         142.000
  24301671.715    -9574341.44849  -7414789.93945  24301670.853    24301684.142
       217.000         145.000
  23924842.166    -4211698.85449  -3254126.10945  23924841.357    23924851.786
       216.000         152.000
 00  4 18  1 48  0.0000000  0  9G 3G15G17G21G29G23G26G31G 9
  21869261.075   -23141260.28349 -18003282.07847  21869260.466    21869269.517
       237.000         195.000
  24277943.226    -6451793.03449  -4617757.46745  24277941.531    24277957.733
       208.000         143.000
  21443087.345   -20403462.20349 -15511851.13647  21443086.570    21443095.136
       238.000         199.000
  21625343.166   -19457293.64749 -15145095.13847  21625342.517    21625351.194
       241.000         203.000
  21710891.881   -19365854.53249 -13820630.32247  21710891.622    21710900.849
       234.000         193.000
  21126129.550   -22164548.30849 -16416947.87647  21126129.105    21126137.057
       243.000         210.000
  24395542.025    -4016172.58949   -621435.15545  24395542.827    24395552.978
       203.000         143.000
  24284910.478    -9662421.85349  -7483423.89845  24284909.067    24284923.367
       218.000         144.000
  23915999.731    -4258165.27649  -3290333.58945  23915997.689    23916009.632
       210.000         151.000
 00  4 18  1 48 30.0000000  0  9G 3G15G17G21G29G23G26G31G 9
  21861406.538   -23182535.69049 -18035444.66347  21861405.754    21861415.543
       236.000         195.000
  24260362.511    -6544179.40249  -4689746.55645  24260360.892    24260376.789
       212.000         143.000
  21451745.165   -20357965.32349 -15476399.05047  21451744.336    21451752.838
       238.000         198.000
  21618990.787   -19490675.47749 -15171106.88547  21618990.095    21618998.968
       242.000         203.000
  21695070.073   -19448997.95949 -13885417.23647  21695069.536    21695079.294
       234.000         193.000
  21131972.045   -22133845.90149 -16393023.94147  21131971.521    21131979.160
       243.000         210.000
  24415785.986    -3909790.39349   -538539.98745  24415786.343    24415796.046
       202.000         143.000
  24268205.542    -9750206.41849  -7551827.32745  24268204.272    24268217.747
       217.000         144.000
  23907220.183    -4304301.45349  -3326283.69045  23907220.276    23907230.947
       212.000         152.000
 00  4 18  1 49  0.0000000  0  9G 3G15G17G21G29G23G26G31G 9
  21853649.801   -23223297.40349 -18067206.96947  21853649.493    21853658.580
       237.000         195.000
  24242775.180    -6636600.29649  -4761762.55045  24242773.477    24242789.694
       212.000         145.000
  21460461.028   -20312163.10949 -15440709.04447  21460460.263    21460469.011
       238.000         198.000
  21612681.026   -19523833.15149 -15196943.97147  21612680.333    21612689.185
       241.000         203.000
  21679318.210   -19531773.83349 -13949917.75047  21679318.110    21679327.162
       234.000         193.000
  21137846.284   -22102976.60349 -16368969.96047  21137845.834    21137853.498
       243.000         210.000
  24436069.977    -3803197.59049   -455480.71745  24436069.971    24436081.046
       207.000         146.000
  24251560.366    -9837677.20649  -7619986.25545  24251559.705    24251573.528
       216.000         145.000
  23898508.264    -4350082.19749  -3361956.81745  23898506.898    23898519.274
       212.000         151.000
 00  4 18  1 49 30.0000000  0  9G 3G15G17G21G29G23G26G31G 9
  21845992.739   -23263535.16949 -18098561.00447  21845992.404    21846001.539
       237.000         195.000
  24225179.843    -6729063.43749  -4833811.47045  24225177.938    24225194.561
       215.000         146.000
  21469237.714   -20266041.49249 -15404770.15047  21469236.987    21469245.476
       238.000         198.000
  21606412.046   -19556776.53649 -15222614.07447  21606411.343    21606420.123
       241.000         203.000
  21663636.038   -19614183.57349 -14014132.95847  21663635.217    21663644.640
       235.000         193.000
  21143749.703   -22071954.06349 -16344796.56247  21143749.347    21143757.017
       242.000         210.000
  24456391.728    -3696406.63849   -372267.02945  24456391.522    24456402.123
       204.000         146.000
  24234976.113    -9924827.66849  -7687895.58345  24234974.946    24234989.395
       215.000         144.000
  23889865.135    -4395500.91149  -3397347.84545  23889864.331    23889876.444
       214.000         152.000
 00  4 18  1 50  0.0000000  0  9G 3G15G17G21G29G23G26G31G 9
  21838435.213   -23303249.99149 -18129507.55347  21838434.606    21838443.918
       236.000         195.000
  24207575.782    -6821572.62749  -4905896.28745  24207575.774    24207590.058
       215.000         146.000
  21478080.290   -20219573.47349 -15368561.33147  21478079.575    21478088.408
       238.000         197.000
  21600179.585   -19589528.04349 -15248134.66847  21600178.747    21600187.706
       242.000         203.000
  21648021.649   -19696237.12049 -14078070.61647  21648021.157    21648030.191
       236.000         193.000
  21149682.962   -22040774.60349 -16320500.88547  21149682.270    21149690.205
       243.000         210.000
  24476747.884    -3589434.78949   -288912.38445  24476748.420    24476758.553
       208.000         148.000
  24218452.670   -10011658.07249  -7755555.51745  24218452.124    24218465.293
       215.000         143.000
  23881291.874    -4440553.40649  -3432453.51545  23881291.106    23881302.560
       216.000         153.000
 00  4 18  1 50 30.0000000  0  9G 3G15G17G21G29G23G26G31G 9
  21830980.563   -23342423.98649 -18160032.68447  21830979.877    21830989.405
       236.000         195.000
  24189964.163    -6914121.22149  -4978011.84645  24189962.427    24189978.576
       217.000         146.000
  21486989.491   -20172755.26249 -15332079.62847  21486988.987    21486997.488
       238.000         197.000
  21593982.988   -19622091.08349 -15273508.41047  21593982.487    21593991.199
       242.000         203.000
  21632471.085   -19777955.18149 -14141746.86347  21632470.352    21632479.558
       235.000         194.000
  21155648.509   -22009425.48849 -16296073.00947  21155647.990    21155655.537
       243.000         210.000
  24497137.926    -3482284.54749   -205418.72845  24497138.684    24497148.604
       211.000         149.000
  24201991.808   -10098159.87849  -7822959.38145  24201991.900    24202003.243
       212.000         144.000
  23872791.973    -4485220.31349  -3467258.72945  23872790.821    23872803.557
       211.000         152.000
 00  4 18  1 51  0.0000000  0  9G 3G15G17G21G29G23G26G31G 9
  21823632.273   -23381039.07449 -18190122.30447  21823631.844    21823640.790
       236.000         195.000
  24172346.555    -7006701.51249  -5050152.10445  24172346.203    24172360.780
       216.000         146.000
  21495964.856   -20125589.57149 -15295327.15947  21495964.354    21495973.178
       238.000         197.000
  21587823.666   -19654458.19849 -15298729.47947  21587822.861    21587831.805
       242.000         203.000
  21616982.216   -19859348.96049 -14205170.42047  21616981.785    21616990.723
       235.000         194.000
  21161647.032   -21977903.23349 -16271510.21847  21161646.567    21161654.381
       242.000         210.000
  24517560.890    -3374961.47149   -121790.39745  24517561.056    24517571.585
       215.000         151.000
  24185596.125   -10184318.52349  -7890095.82945  24185594.631    24185608.584
       210.000         144.000
  23864369.236    -4529480.91249  -3501747.33445  23864369.261    23864379.580
       212.000         152.000
 00  4 18  1 51 30.0000000  0  9G 3G15G17G21G29G23G26G31G 9
  21816393.274   -23419079.48349 -18219764.12347  21816392.756    21816402.139
       237.000         195.000
  24154722.845    -7099313.58349  -5122317.12445  24154722.244    24154736.291
       216.000         144.000
  21505004.507   -20078085.77349 -15258311.23347  21505004.055    21505012.564
       238.000         197.000
  21581700.069   -19686637.80449 -15323804.44047  21581699.390    21581708.240
       242.000         204.000
  21601555.625   -19940415.56249 -14268339.03547  21601555.244    21601563.879
       235.000         194.000
  21167680.075   -21946199.50149 -16246806.00847  21167679.500    21167687.143
       243.000         210.000
  24538014.737    -3267475.97349    -38035.49345  24538014.786    24538024.609
       212.000         152.000
  24169265.931   -10270133.60149  -7956964.57645  24169264.936    24169279.661
       209.000         144.000
  23856026.527    -4573321.01149  -3535908.24945  23856025.437    23856035.768
       214.000         152.000
 00  4 18  1 52  0.0000000  0  9G 3G15G17G21G29G23G26G31G 9
  21809264.868   -23456539.52149 -18248953.72047  21809264.590    21809273.645
       237.000         196.000
  24137094.877    -7191948.34949  -5194499.87345  24137093.158    24137109.173
       216.000         143.000
  21514107.076   -20030251.64649 -15221037.91047  21514106.504    21514114.785
       237.000         197.000
  21575613.804   -19718621.11849 -15348726.44447  21575613.124    21575621.816
       243.000         204.000
  21586192.467   -20021148.85849 -14331247.94247  21586191.720    21586200.934
       236.000         194.000
  21173750.465   -21914299.42249 -16221948.79747  21173749.938    21173757.718
       243.000         210.000
  24558501.210    -3159818.82149     45853.18045  24558501.343    24558511.180
       213.000         151.000
  24153001.276   -10355604.46649  -8023565.08645  24152999.966    24153012.567
       208.000         144.000
  23847764.372    -4616738.37649  -3569739.78645  23847765.106    23847775.722
       216.000         154.000
 00  4 18  1 52 30.0000000  0  9G 3G15G17G21G29G23G26G31G 9
  21802245.195   -23493427.98449 -18277697.93247  21802245.010    21802254.037
       236.000         196.000
  24119461.949    -7284609.01149  -5266702.75345  24119461.374    24119475.387
       217.000         143.000
  21523268.754   -19982106.58649 -15183522.29747  21523268.102    21523276.699
       237.000         197.000
  21569566.249   -19750401.13349 -15373490.04247  21569565.501    21569574.013
       243.000         204.000
  21570894.979   -20101536.94649 -14393887.84847  21570894.421    21570903.651
       236.000         195.000
  21179855.166   -21882218.98449 -16196951.04647  21179854.492    21179862.347
       242.000         210.000
  24579019.464    -3051995.24649    129871.52145  24579019.829    24579030.055
       213.000         150.000
  24136803.187   -10440725.11649  -8089892.68245  24136802.569    24136815.971
       208.000         143.000
  23839582.418    -4659734.51649  -3603243.10745  23839581.551    23839593.669
       215.000         154.000
 00  4 18  1 53  0.0000000  0  9G 3G15G17G21G29G23G26G31G 9
  21795332.093   -23529756.56549 -18306005.86647  21795331.826    21795340.631
       237.000         196.000
  24101823.880    -7377296.76349  -5338926.77545  24101822.815    24101838.231
       215.000         142.000
  21532490.535   -19933645.87449 -15145760.71847  21532490.047    21532498.596
       238.000         196.000
  21563555.638   -19781986.95049 -15398102.31947  21563554.902    21563563.513
       242.000         204.000
  21555667.992   -20181554.59549 -14456239.11047  21555667.752    21555676.725
       236.000         195.000
  21185991.600   -21849971.74649 -16171823.31747  21185990.974    21185998.820
       242.000         210.000
  24599568.994    -2944006.81949    214018.32545  24599568.773    24599580.008
       216.000         149.000
  24120673.870   -10525484.28749  -8155938.61045  24120672.536    24120686.492
       207.000         145.000
  23831478.816    -4702318.72249  -3636425.44245  23831479.180    23831489.348
       216.000         154.000
 00  4 18  1 53 30.0000000  0  8G 3G15G17G21G29G23G31G 9
  21788526.116   -23565522.52149 -18333875.40247  21788525.728    21788534.716
       238.000         196.000
  24084180.571    -7470011.77949  -5411172.02045  24084179.669    24084195.449
       213.000         143.000
  21541772.773   -19884867.46449 -15107751.59647  21541772.281    21541780.671
       238.000         196.000
  21557580.105   -19813388.20449 -15422570.77947  21557579.468    21557588.060
       242.000         204.000
  21540513.882   -20261189.46649 -14518292.09747  21540513.453    21540522.236
       236.000         195.000
  21192158.773   -21817562.98049 -16146569.72047  21192158.004    21192165.570
       242.000         209.000
  24104613.507   -10609881.54149  -8221702.51545  24104612.384    24104626.277
       205.000         146.000
  23823451.972    -4744498.56149  -3669292.68145  23823452.567    23823462.896
       217.000         153.000
 00  4 18  1 54  0.0000000  0  8G 3G15G17G21G29G23G31G 9
  21781824.915   -23600737.10549 -18361315.28847  21781824.377    21781833.933
       237.000         196.000
  24066533.326    -7562747.67349  -5483433.56145  24066532.027    24066547.009
       214.000         141.000
  21551117.769   -19835759.35149 -15069485.56447  21551117.022    21551125.878
       237.000         196.000
  21551641.645   -19844594.99149 -15446887.70647  21551641.059    21551649.685
       242.000         204.000
  21525437.188   -20340417.33049 -14580027.94947  21525436.650    21525445.592
       236.000         196.000
  21198354.633   -21785003.43049 -16121198.63447  21198353.995    21198361.730
       243.000         209.000
  24088623.409   -10693908.73649  -8287178.04245  24088622.564    24088635.653
       208.000         148.000
  23815500.473    -4786283.62449  -3701852.29845  23815500.572    23815511.447
       214.000         153.000
 00  4 18  1 54 30.0000000  0  8G 3G15G17G21G29G23G31G 9
  21775220.941   -23635440.68949 -18388357.00547  21775220.279    21775229.531
       238.000         196.000
  24048877.182    -7655530.28649  -5555731.48145  24048876.739    24048890.965
       213.000         142.000
  21560522.156   -19786339.23049 -15030976.40047  21560521.272    21560529.984
       237.000         196.000
  21545734.202   -19875638.64949 -15471077.52047  21545733.529    21545741.794
       242.000         204.000
  21510435.240   -20419252.47149 -14641457.77947  21510434.706    21510443.440
       236.000         196.000
  21204572.193   -21752329.81449 -16095738.66547  21204571.661    21204579.248
       242.000         209.000
  24072699.991   -10777586.59849  -8352381.37845  24072698.638    24072712.566
       208.000         148.000
  23807618.946    -4827700.54249  -3734125.06545  23807618.369    23807630.893
       215.000         153.000
 00  4 18  1 55  0.0000000  0  8G 3G15G17G21G29G23G31G 9
  21768713.389   -23669637.40749 -18415003.76447  21768713.133    21768722.159
       238.000         196.000
  24031211.610    -7748362.56649  -5628068.10845  24031210.209    24031226.046
       215.000         144.000
  21569985.240   -19736610.37049 -14992226.66947  21569984.610    21569993.462
       237.000         195.000
  21539855.415   -19906531.58049 -15495149.87947  21539854.659    21539863.464
       242.000         204.000
  21495508.335   -20497693.33249 -14702580.38347  21495507.830    21495516.935
       235.000         196.000
  21210812.381   -21719537.38049 -16070186.11247  21210811.721    21210819.570
       243.000         209.000
  24056840.749   -10860926.65349  -8417321.46345  24056839.077    24056853.431
       208.000         149.000
  23799806.804    -4868752.68949  -3766113.60245  23799806.647    23799817.130
       216.000         153.000
 00  4 18  1 55 30.0000000  0  8G 3G15G17G21G29G23G31G 9
  21762303.544   -23703322.29649 -18441251.69347  21762303.031    21762312.508
       238.000         196.000
  24013537.090    -7841241.97849  -5700441.42445  24013536.125    24013550.338
       212.000         145.000
  21579508.971   -19686562.86249 -14953228.62847  21579508.747    21579516.997
       236.000         195.000
  21534006.974   -19937265.06549 -15519097.99547  21534006.338    21534014.772
       242.000         204.000
  21480657.160   -20575736.16549 -14763392.83447  21480656.591    21480665.625
       236.000         196.000
  21217076.723   -21686617.98949 -16044534.63347  21217076.154    21217083.788
       243.000         209.000
  24041042.601   -10943945.35449  -8482011.15445  24041041.573    24041054.504
       208.000         150.000
  23792065.394    -4909433.86749  -3797813.07845  23792065.376    23792074.432
       215.000         153.000
 00  4 18  1 56  0.0000000  0  8G 3G15G17G21G29G23G31G 9
  21755990.364   -23736497.78649 -18467102.68747  21755990.121    21755999.118
       238.000         196.000
  23995855.547    -7934158.35949  -5772843.54145  23995854.366    23995869.907
       212.000         146.000
  21589096.355   -19636181.06149 -14913970.10247  21589095.810    21589104.141
       237.000         195.000
  21528193.091   -19967817.08749 -15542904.71347  21528192.433    21528200.958
       243.000         204.000
  21465882.225   -20653378.25549 -14823893.01747  21465881.499    21465890.637
       236.000         197.000
  21223366.892   -21653562.98349 -16018777.47947  21223366.369    21223373.991
       243.000         209.000
  24025306.944   -11026635.75149  -8546445.00745  24025305.647    24025319.632
       209.000         152.000
  23784396.110    -4949735.97049  -3829217.15845  23784396.475    23784407.648
       218.000         154.000
 00  4 18  1 56 30.0000000  0  8G 3G15G17G21G29G23G31G 9
  21749780.590   -23769130.23549 -18492530.53747  21749780.220    21749789.342
       239.000         197.000
  23978168.249    -8027104.82149  -5845269.08545  23978167.180    23978181.969
       212.000         146.000
  21598746.458   -19585469.54749 -14874454.66747  21598745.560    21598754.816
       237.000         195.000
  21522414.663   -19998182.59249 -15566566.09047  21522414.083    21522422.570
       242.000         205.000
  21451181.654   -20730629.89149 -14884088.95247  21451180.817    21451189.486
       237.000         197.000
  21229686.504   -21620353.10449 -15992899.65047  21229685.964    21229693.544
       242.000         209.000
  24009634.018   -11108997.13849  -8610622.50245  24009634.386    24009646.571
       212.000         152.000
  23776803.410    -4989635.63549  -3860307.65345  23776802.162    23776813.112
       216.000         155.000
 00  4 18  1 57  0.0000000  0  8G 3G15G17G21G29G23G31G 9
  21743679.862   -23801190.11949 -18517512.23347  21743679.294    21743688.550
       239.000         196.000
  23960476.789    -8120072.98649  -5917711.51745  23960474.868    23960489.737
       209.000         146.000
  21608460.718   -19534420.77449 -14834676.42547  21608460.214    21608468.645
       236.000         194.000
  21516675.265   -20028343.04149 -15590067.68547  21516674.436    21516683.122
       242.000         205.000
  21436555.372   -20807490.92449 -14943980.52847  21436555.112    21436563.777
       236.000         198.000
  21236037.329   -21586979.36049 -15966894.13347  21236036.798    21236044.246
       242.000         209.000
  23994022.551   -11191035.48749  -8674548.27945  23994021.555    23994035.072
       211.000         153.000
  23769290.664    -5029114.58349  -3891070.35045  23769290.173    23769301.661
       216.000         155.000
 00  4 18  1 57 30.0000000  0  8G 3G15G17G21G29G23G31G 9
  21737690.411   -23832665.03249 -18542038.10747  21737689.771    21737698.986
       238.000         197.000
  23942783.491    -8213050.57349  -5990161.28945  23942781.297    23942794.480
       209.000         145.000
  21618240.562   -19483027.64649 -14794629.84847  21618239.534    21618248.378
       236.000         194.000
  21510979.125   -20058276.14849 -15613392.13047  21510978.380    21510986.916
       242.000         205.000
  21422002.645   -20883965.42749 -15003570.90947  21422002.346    21422011.023
       237.000         198.000
  21242420.155   -21553437.30049 -15940757.46547  21242419.589    21242427.396
       242.000         209.000
  23978476.210   -11272731.32849  -8738207.16645  23978475.217    23978488.125
       213.000         154.000
  23761860.130    -5068161.64349  -3921496.48245  23761860.446    23761870.502
       218.000         155.000
 00  4 18  1 58  0.0000000  0  8G 3G15G17G21G29G23G31G 9
  21731814.045   -23863545.22349 -18566100.56647  21731813.509    21731822.761
       238.000         197.000
  23925090.394    -8306027.19049  -6062610.30745  23925088.326    23925103.871
       208.000         145.000
  21628083.557   -19431302.17349 -14754324.30847  21628082.770    21628091.654
       235.000         194.000
  21505327.179   -20087977.02049 -15636535.61247  21505326.452    21505335.060
       241.000         205.000
  21407522.059   -20960060.90349 -15062865.94247  21407521.441    21407530.250
       236.000         198.000
  21248837.318   -21519715.05349 -15914480.38747  21248836.766    21248844.338
       242.000         209.000
  23963001.562   -11354050.79149  -8801572.78645  23963000.560    23963013.850
       214.000         155.000
  23754515.450    -5106757.50649  -3951571.03445  23754514.632    23754526.266
       217.000         155.000
 00  4 18  1 58 30.0000000  0  8G 3G15G17G21G29G23G31G 9
  21726051.357   -23893828.03849 -18589697.53747  21726050.628    21726059.778
       239.000         197.000
  23907397.727    -8399001.53249  -6135057.54845  23907395.594    23907411.968
       209.000         146.000
  21637989.123   -19379248.12949 -14713762.74447  21637988.722    21637997.361
       236.000         194.000
  21499716.115   -20117463.13149 -15659511.74947  21499715.537    21499724.017
       242.000         205.000
  21393112.517   -21035782.94649 -15121869.99247  21393112.097    21393120.795
       237.000         198.000
  21255289.423   -21485808.90649 -15888060.01647  21255288.780    21255296.823
       242.000         208.000
  23947601.862   -11434976.13549  -8864631.31745  23947601.091    23947614.179
       216.000         156.000
  23747259.643    -5144885.63049  -3981281.09945  23747258.185    23747269.374
       217.000         155.000
 00  4 18  1 59  0.0000000  0  8G 3G15G17G21G29G23G31G 9
  21720396.619   -23923543.96949 -18612852.78447  21720396.093    21720404.942
       239.000         197.000
  23889705.711    -8491972.48949  -6207502.14245  23889704.152    23889718.780
       208.000         147.000
  21647958.398   -19326859.41849 -14672940.39547  21647957.931    21647966.404
       236.000         193.000
  21494145.453   -20146736.95849 -15682322.47147  21494144.853    21494153.595
       242.000         205.000
  21378773.748   -21111133.17849 -15180584.32147  21378773.293    21378781.683
       237.000         199.000
  21261773.893   -21451732.69549 -15861507.12847  21261773.351    21261780.981
       243.000         208.000
  23932281.495   -11515484.53749  -8927364.95245  23932280.377    23932292.717
       215.000         157.000
  23740090.187    -5182561.72249  -4010638.96945  23740089.728    23740099.293
       215.000         154.000
 00  4 18  1 59 30.0000000  0  8G 3G15G17G21G29G23G31G 9
  21714845.964   -23952711.75849 -18635580.90447  21714845.675    21714854.853
       236.000         197.000
  23872013.428    -8584945.09849  -6279948.03645  23872012.680    23872026.674
       210.000         148.000
  21657990.453   -19274140.81349 -14631860.98647  21657989.676    21657998.515
       236.000         193.000
  21488610.090   -20175825.30649 -15704988.66647  21488609.365    21488617.856
       241.000         205.000
  21364503.724   -21186122.14449 -15239017.14547  21364503.292    21364511.969
       237.000         199.000
  21268288.609   -21417497.51149 -15834830.36547  21268287.931    21268295.768
       242.000         208.000
  23917043.444   -11595560.35649  -8989761.54045  23917042.406    23917054.647
       215.000         156.000
  23733006.002    -5219788.87849  -4039646.99445  23733004.613    23733015.033
       215.000         154.000
 00  4 18  2  0  0.0000000  0  8G 3G15G17G21G29G23G31G 9
  21709397.970   -23981340.01949 -18657888.61647  21709397.727    21709407.015
       238.000         197.000
  23854318.378    -8677932.04049  -6352405.09745  23854315.691    23854332.378
       208.000         149.000
  21668084.463   -19221096.43749 -14590527.73347  21668083.748    21668092.690
       236.000         193.000
  21483105.117   -20204753.96949 -15727530.42947  21483104.336    21483112.978
       242.000         205.000
  21350301.614   -21260754.04149 -15297171.73647  21350301.074    21350309.811
       237.000         199.000
  21274829.804   -21383123.35749 -15808045.31747  21274829.282    21274837.005
       242.000         208.000
  23901884.109   -11675222.27349  -9051835.60545  23901882.921    23901896.117
       215.000         156.000
  23726007.818    -5256564.11449  -4068302.88645  23726006.138    23726017.316
       214.000         153.000
 00  4 18  2  0 30.0000000  0  8G 3G15G17G21G29G23G31G 9
  21704051.170   -24009438.23249 -18679783.30147  21704050.898    21704059.975
       240.000         197.000
  23836617.989    -8770946.90649  -6424883.90745  23836616.694    23836631.239
       212.000         149.000
  21678239.937   -19167729.18049 -14548942.87447  21678239.397    21678248.236
       236.000         193.000
  21477628.662   -20233532.66749 -15749955.34047  21477628.087    21477636.358
       242.000         205.000
  21336168.730   -21335022.23449 -15355042.92647  21336167.958    21336176.541
       237.000         200.000
  21281392.228   -21348637.54549 -15781173.26147  21281391.799    21281399.222
       242.000         208.000
  23886797.270   -11754503.23149  -9113612.83045  23886796.705    23886809.279
       215.000         155.000
  23719091.255    -5292908.30649  -4096622.86545  23719089.776    23719100.305
       216.000         152.000
 00  4 18  2  1  0.0000000  0  8G 3G15G17G21G29G23G31G 9
  21698805.569   -24037004.90549 -18701263.80547  21698804.800    21698813.992
       239.000         197.000
  23818910.674    -8863998.29849  -6497391.20945  23818909.332    23818923.496
       211.000         151.000
  21688454.175   -19114053.31449 -14507117.54247  21688453.686    21688462.356
       236.000         193.000
  21472181.920   -20262155.31149 -15772258.65547  21472181.278    21472189.740
       242.000         205.000
  21322108.258   -21408909.92749 -15412617.62447  21322107.812    21322116.114
       238.000         200.000
  21287973.642   -21314052.10749 -15754223.57747  21287973.263    21287980.940
       242.000         208.000
  23871779.519   -11833421.43449  -9175107.40645  23871778.332    23871791.559
       216.000         156.000
  23712254.796    -5328834.15249  -4124616.92745  23712254.598    23712265.002
       214.000         154.000
 00  4 18  2  1 30.0000000  0  8G 3G15G17G21G29G23G31G 9
  21693662.303   -24064031.99349 -18722323.84347  21693662.220    21693670.856
       238.000         197.000
  23801195.182    -8957092.65549  -6569931.97145  23801193.996    23801207.981
       213.000         153.000
  21698725.502   -19060077.31149 -14465058.33647  21698724.815    21698733.600
       235.000         193.000
  21466764.807   -20290622.34349 -15794440.71047  21466764.238    21466772.846
       242.000         205.000
  21308122.236   -21482406.61149 -15469887.64047  21308121.774    21308129.898
       238.000         200.000
  21294575.147   -21279360.90849 -15727191.47547  21294574.543    21294582.494
       242.000         208.000
  23856827.203   -11911995.68049  -9236333.97145  23856826.183    23856839.567
       216.000         156.000
  23705499.882    -5364330.81049  -4152276.51145  23705498.805    23705508.407
       215.000         153.000
 00  4 18  2  2  0.0000000  0  8G 3G15G17G21G29G23G31G 9
  21688623.188   -24090512.09949 -18742957.66747  21688623.219    21688631.939
       239.000         197.000
  23783472.662    -9050224.19049  -6642501.71845  23783470.926    23783485.944
       214.000         153.000
  21709052.782   -19005807.02149 -14422769.82047  21709051.946    21709060.997
       235.000         192.000
  21461381.131   -20318913.41549 -15816485.65047  21461380.475    21461389.051
       242.000         205.000
  21294215.710   -21555485.33449 -15526831.97147  21294215.032    21294223.730
       238.000         201.000
  21301199.333   -21244550.64149 -15700066.59847  21301198.607    21301206.291
       242.000         207.000
  23841940.887   -11990223.41249  -9297290.52745  23841939.629    23841952.986
       214.000         156.000
  23698826.152    -5399400.69249  -4179603.53145  23698825.694    23698835.354
       216.000         152.000
 00  4 18  2  2 30.0000000  0  8G 3G15G17G21G29G23G31G 9
  21683690.424   -24116434.26749 -18763156.73747  21683690.314    21683699.208
       238.000         198.000
  23765745.228    -9143381.43149  -6715091.50645  23765743.778    23765758.004
       213.000         154.000
  21719438.203   -18951231.48449 -14380243.44947  21719437.207    21719446.232
       235.000         192.000
  21456033.223   -20347016.67549 -15838384.24347  21456032.448    21456040.957
       242.000         205.000
  21280391.720   -21628130.38849 -15583438.38247  21280391.182    21280399.623
       238.000         201.000
  21307849.939   -21209601.37149 -15672833.40447  21307849.413    21307857.017
       242.000         207.000
  23827123.984   -12068085.76049  -9357962.36445  23827123.915    23827135.390
       216.000         156.000
  23692233.860    -5434043.91649  -4206598.12245  23692232.389    23692243.558
       217.000         154.000
 00  4 18  2  3  0.0000000  0  8G 3G15G17G21G29G23G31G 9
  21678866.698   -24141783.01749 -18782908.99047  21678866.383    21678875.508
       238.000         198.000
  23748015.524    -9236550.30649  -6787690.36045  23748013.752    23748028.835
       215.000         154.000
  21729884.412   -18896336.29949 -14337467.99647  21729883.715    21729892.494
       235.000         192.000
  21450722.112   -20374926.53949 -15860132.13947  21450721.534    21450730.076
       242.000         205.000
  21266651.434   -21700335.54049 -15639702.01047  21266651.094    21266659.415
       238.000         201.000
  21314531.068   -21174491.82349 -15645475.31947  21314530.468    21314538.165
       241.000         207.000
  23812380.567   -12145563.08849  -9418334.19445  23812380.152    23812392.145
       217.000         156.000
  23685725.047    -5468246.98049  -4233249.74645  23685726.503    23685736.559
       218.000         154.000
 00  4 18  2  3 30.0000000  0  8G 3G15G17G21G29G23G31G 9
  21674153.626   -24166549.93149 -18802207.85847  21674153.556    21674162.485
       238.000         198.000
  23730285.794    -9329719.78849  -6860289.69945  23730284.206    23730298.256
       213.000         154.000
  21740394.836   -18841103.63849 -14294429.58847  21740394.378    21740402.929
       234.000         192.000
  21445447.448   -20402645.04049 -15881730.91947  21445446.776    21445455.240
       242.000         206.000
  21252994.005   -21772105.25349 -15695626.33847  21252993.809    21253001.972
       239.000         201.000
  21321243.392   -21139218.42449 -15617989.55747  21321243.031    21321250.679
       242.000         207.000
  23797712.918   -12222641.92449  -9478395.50945  23797711.427    23797724.121
       216.000         156.000
  23679302.872    -5501995.57149  -4259547.19145  23679300.871    23679312.476
       215.000         154.000
 00  4 18  2  4  0.0000000  0  8G 3G15G17G21G29G23G31G 9
  21669552.230   -24190730.42049 -18821049.76947  21669552.011    21669560.990
       238.000         198.000
  23712555.935    -9422889.92949  -6932889.56145  23712554.570    23712568.249
       215.000         154.000
  21750969.555   -18785533.27549 -14251128.03247  21750968.868    21750977.785
       234.000         192.000
  21440208.704   -20430174.55449 -15903182.43347  21440208.053    21440216.398
       242.000         206.000
  21239417.135   -21843451.72349 -15751220.86747  21239416.508    21239424.837
       238.000         202.000
  21327983.855   -21103797.21049 -15590388.61347  21327983.354    21327990.982
       241.000         207.000
  23783123.067   -12299311.87249  -9538138.20645  23783121.667    23783133.894
       213.000         155.000
  23672968.231    -5535284.18049  -4285486.22645  23672969.105    23672978.794
       218.000         155.000
 00  4 18  2  4 30.0000000  0  8G 3G15G17G21G29G23G31G 9
  21665063.036   -24214321.71149 -18839432.56347  21665062.739    21665071.720
       238.000         198.000
  23694825.143    -9516064.84649  -7005493.16045  23694823.165    23694837.417
       215.000         154.000
  21761608.824   -18729623.47749 -14207561.98347  21761608.202    21761617.168
       234.000         191.000
  21435004.086   -20457524.62349 -15924494.11747  21435003.416    21435011.915
       242.000         206.000
  21225917.278   -21914393.38349 -15806499.95847  21225917.033    21225925.321
       238.000         202.000
  21334749.583   -21068243.12049 -15562684.12847  21334748.951    21334756.780
       241.000         207.000
  23768609.835   -12375578.45549  -9597566.60245  23768610.274    23768620.490
       214.000         154.000
  23666720.801    -5568113.65949  -4311067.48545  23666721.280    23666728.901
       217.000         154.000
 00  4 18  2  5  0.0000000  0  8G 3G15G17G21G29G23G31G 9
  21660684.892   -24237328.82449 -18857360.15347  21660684.480    21660693.624
       239.000         198.000
  23677092.854    -9609247.59449  -7078102.86145  23677090.981    23677104.807
       214.000         154.000
  21772309.896   -18673388.89449 -14163742.84647  21772308.904    21772318.130
       233.000         191.000
  21429833.903   -20484693.94649 -15945664.95847  21429833.375    21429841.769
       242.000         206.000
  21212494.946   -21984927.74049 -15861461.66947  21212494.695    21212502.532
       239.000         202.000
  21341538.141   -21032568.87549 -15534886.01547  21341537.511    21341545.305
       241.000         207.000
  23754174.019   -12451438.40349  -9656678.12545  23754172.329    23754185.598
       215.000         154.000
  23660559.091    -5600492.88749  -4336297.92745  23660559.016    23660569.529
       216.000         154.000
 00  4 18  2  5 30.0000000  0  8G 3G15G17G21G29G23G31G 9
  21656416.577   -24259759.74249 -18874838.76847  21656416.305    21656424.910
       238.000         198.000
  23659358.367    -9702442.00049  -7150721.65345  23659357.148    23659370.392
       215.000         154.000
  21783072.606   -18616830.42649 -14119671.33347  21783072.053    21783080.698
       234.000         191.000
  21424697.714   -20511684.60249 -15966696.57747  21424696.971    21424705.311
       242.000         206.000
  21199148.855   -22055061.31349 -15916111.08047  21199148.325    21199156.647
       239.000         202.000
  21348347.792   -20996784.01849 -15507001.71247  21348347.177    21348355.056
       241.000         207.000
  23739816.652   -12526886.39449  -9715468.65545  23739816.377    23739828.005
       214.000         155.000
  23654481.589    -5632429.31049  -4361183.33345  23654482.313    23654489.665
       214.000         155.000
 00  4 18  2  6  0.0000000  0  8G 3G15G17G21G29G23G31G 9
  21652257.916   -24281613.60849 -18891867.73247  21652257.464    21652266.293
       238.000         198.000
  23641622.399    -9795644.23449  -7223346.55545  23641620.916    23641634.935
       215.000         154.000
  21793897.862   -18559943.57349 -14075343.94247  21793897.169    21793906.274
       234.000         190.000
  21419596.479   -20538491.70749 -15987585.17347  21419595.732    21419604.115
       242.000         206.000
  21185878.797   -22124795.26549 -15970449.10247  21185878.252    21185886.380
       239.000         202.000
  21355180.607   -20960877.53649 -15479022.63247  21355179.837    21355187.656
       241.000         207.000
  23725536.729   -12601927.54249  -9773942.13445  23725534.954    23725548.340
       216.000         156.000
  23648485.984    -5663935.50749  -4385733.44345  23648486.194    23648495.858
       218.000         156.000
 00  4 18  2  6 30.0000000  0  8G 3G15G17G21G29G23G31G 9
  21648211.427   -24302878.01849 -18908437.37147  21648210.806    21648220.061
       239.000         198.000
  23623887.069    -9888843.10049  -7295968.83345  23623885.914    23623899.329
       214.000         154.000
  21804787.859   -18502716.52149 -14030751.46547  21804787.340    21804796.390
       234.000         190.000
  21414529.902   -20565116.57749 -16008331.76047  21414529.420    21414537.582
       242.000         206.000
  21172688.054   -22194112.72249 -16024462.58147  21172687.563    21172695.804
       239.000         203.000
  21362039.158   -20924835.38149 -15450937.83447  21362038.429    21362045.988
       241.000         207.000
  23711334.462   -12676560.70249  -9832097.73845  23711333.575    23711345.874
       216.000         155.000
  23642571.676    -5695015.01749  -4409951.12045  23642573.057    23642582.527
       220.000         156.000
 00  4 18  2  7  0.0000000  0  8G 3G15G17G21G29G23G31G 9
  21644276.325   -24323556.68049 -18924550.58047  21644275.700    21644284.688
       238.000         198.000
  23606154.279    -9982028.59349  -7368580.70145  23606152.531    23606166.615
       215.000         154.000
  21815744.733   -18445137.83449 -13985884.99547  21815744.185    21815753.278
       234.000         190.000
  21409499.003   -20591553.93749 -16028932.24147  21409498.513    21409506.708
       242.000         206.000
  21159576.659   -22263013.04349 -16078151.02847  21159576.350    21159584.456
       239.000         203.000
  21368924.693   -20888651.71149 -15422742.76647  21368924.122    21368931.827
       241.000         206.000
  23697211.590   -12750776.26849  -9889927.91945  23697210.742    23697222.960
       217.000         156.000
  23636742.280    -5725649.12049  -4433821.72145  23636742.124    23636750.211
       218.000         155.000
 00  4 18  2  7 30.0000000  0  8G 3G15G17G21G29G23G31G 9
  21640452.151   -24343652.67649 -18940209.77047  21640451.967    21640460.690
       239.000         198.000
  23588424.273   -10075199.53149  -7441181.24345  23588422.595    23588437.218
       216.000         155.000
  21826769.385   -18387202.83849 -13940740.87447  21826768.782    21826777.622
       233.000         190.000
  21404502.426   -20617810.90449 -16049392.15347  21404501.782    21404509.850
       243.000         206.000
  21146543.765   -22331500.90249 -16131518.07147  21146543.233    21146551.271
       239.000         203.000
  21375836.089   -20852331.92249 -15394441.63347  21375835.597    21375843.121
       241.000         206.000
  23683166.323   -12824584.25549  -9947440.51445  23683165.226    23683177.222
       218.000         156.000
  23631001.739    -5755814.84849  -4457327.35745  23631001.938    23631011.263
       218.000         155.000
 00  4 18  2  8  0.0000000  0  8G 3G15G17G21G29G23G31G 9
  21636736.862   -24363176.53249 -18955423.12247  21636736.249    21636745.691
       238.000         198.000
  23570696.063   -10168360.90949  -7513774.33845  23570694.788    23570708.464
       217.000         156.000
  21837857.628   -18328933.91149 -13895336.54747  21837856.726    21837865.569
       233.000         190.000
  21399539.574   -20643890.70249 -16069714.01247  21399539.047    21399547.028
       242.000         206.000
  21133590.779   -22399568.65249 -16184557.76047  21133590.340    21133598.201
       240.000         203.000
  21382770.093   -20815893.51549 -15366048.06347  21382769.377    21382777.301
       241.000         206.000
  23669197.336   -12897990.88649 -10004640.36245  23669196.097    23669208.896
       215.000         156.000
  23625353.153    -5785497.19649  -4480456.30845  23625351.599    23625363.260
       214.000         155.000
 00  4 18  2  8 30.0000000  0  8G 3G15G17G21G29G23G31G 9
  21633127.819   -24382141.69749 -18970201.13447  21633127.467    21633136.492
       238.000         198.000
  23552967.914   -10261522.23449  -7586367.40045  23552966.471    23552980.862
       217.000         156.000
  21849005.286   -18270352.76049 -13849688.92947  21849004.809    21849013.847
       233.000         190.000
  21394610.155   -20669794.67749 -16089898.87147  21394609.620    21394617.794
       242.000         206.000
  21120718.093   -22467214.72649 -16237268.86847  21120717.611    21120725.861
       240.000         204.000
  21389723.391   -20779353.68649 -15337575.46547  21389722.883    21389730.818
       241.000         206.000
  23655305.146   -12970993.90549 -10061525.69445  23655303.954    23655316.402
       217.000         157.000
  23619796.557    -5814695.70649  -4503208.26945  23619794.646    23619807.174
       215.000         156.000
 00  4 18  2  9  0.0000000  0  8G 3G15G17G21G29G23G31G 9
  21629622.725   -24400560.67549 -18984553.54447  21629622.534    21629631.283
       239.000         198.000
  23535238.951   -10354687.73849  -7658963.71245  23535237.434    23535251.587
       219.000         157.000
  21860211.025   -18211466.24249 -13803803.35147  21860210.631    21860219.440
       233.000         190.000
  21389714.672   -20695520.25649 -16109944.71847  21389713.949    21389722.291
       242.000         207.000
  21107925.086   -22534441.93849 -16289653.59947  21107924.778    21107932.631
       240.000         204.000
  21396695.734   -20742713.78949 -15309024.89747  21396695.096    21396703.204
       241.000         206.000
  23641489.975   -13043592.61049 -10118095.98945  23641488.948    23641501.531
       215.000         158.000
  23614332.366    -5843410.16449  -4525583.05745  23614333.387    23614341.495
       216.000         156.000
 00  4 18  2  9 30.0000000  0  8G 3G15G17G21G29G23G31G 9
  21626223.432   -24418424.43949 -18998473.31747  21626223.097    21626232.115
       238.000         198.000
  23517508.627   -10447860.55149  -7731565.72945  23517507.259    23517520.111
       219.000         157.000
  21871474.142   -18152278.28949 -13757682.89647  21871473.444    21871482.355
       233.000         189.000
  21384853.440   -20721066.01549 -16129850.45147  21384852.665    21384861.004
       242.000         207.000
  21095213.861   -22601239.45149 -16341703.49547  21095213.188    21095221.546
       240.000         204.000
  21403688.040   -20705968.99549 -15280392.58947  21403687.426    21403695.408
       241.000         206.000
  23627751.597   -13115788.16049 -10174352.15045  23627751.438    23627763.212
       219.000         158.000
  23608957.787    -5871653.73149  -4547590.90945  23608959.308    23608968.901
       216.000         156.000
 00  4 18  2 10  0.0000000  0  8G 3G15G17G21G29G23G31G 9
  21622933.699   -24435711.54249 -19011943.74747  21622933.325    21622942.430
       238.000         199.000
  23499778.575   -10541031.86849  -7804166.59145  23499777.503    23499790.410
       219.000         157.000
  21882796.480   -18092779.16249 -13711319.96847  21882795.826    21882805.138
       233.000         189.000
  21380029.483   -20746415.79749 -16149603.47247  21380028.914    21380037.111
       242.000         207.000
  21082583.910   -22667609.64249 -16393420.41647  21082583.381    21082591.366
       240.000         205.000
  21410703.304   -20669103.53849 -15251666.25547  21410702.749    21410710.618
       241.000         206.000
  23614093.932   -13187559.05349 -10230277.37545  23614092.474    23614105.880
       219.000         159.000
  23603670.966    -5899435.94149  -4569239.21145  23603670.339    23603679.767
       218.000         156.000
 00  4 18  2 10 30.0000000  0  8G 3G15G17G21G29G23G31G 9
  21619759.191   -24452393.46849 -19024942.60247  21619758.762    21619767.555
       239.000         199.000
  23482051.721   -10634186.43749  -7876754.38445  23482051.014    23482063.710
       219.000         158.000
  21894183.235   -18032941.50449 -13664693.24347  21894182.903    21894191.463
       233.000         189.000
  21375243.788   -20771564.61349 -16169199.90147  21375243.177    21375251.563
       243.000         207.000
  21070035.292   -22733552.53049 -16444804.37347  21070034.728    21070042.595
       240.000         205.000
  21417746.334   -20632092.11049 -15222826.17747  21417746.013    21417753.591
       241.000         206.000
  23600520.082   -13258889.69749 -10285859.57445  23600519.550    23600531.779
       218.000         159.000
  23598471.688    -5926757.69549  -4590528.78045  23598469.899    23598479.771
       217.000         157.000
 00  4 18  2 11  0.0000000  0  8G 3G15G17G21G29G23G31G 9
  21616700.875   -24468464.77049 -19037465.65147  21616700.370    21616709.392
       238.000         199.000
  23464329.573   -10727316.37949  -7949323.01245  23464328.064    23464342.023
       219.000         158.000
  21905636.528   -17972753.95949 -13617793.87147  21905635.694    21905644.623
       233.000         189.000
  21370495.145   -20796518.61649 -16188644.52847  21370494.524    21370502.640
       243.000         207.000
  21057569.710   -22799059.04149 -16495848.29647  21057569.418    21057577.038
       240.000         205.000
  21424816.810   -20594936.48549 -15193873.73747  21424816.198    21424824.236
       241.000         206.000
  23587030.656   -13329776.41049 -10341095.83445  23587030.149    23587042.144
       221.000         159.000
  23593363.973    -5953599.82849  -4611444.57345  23593362.695    23593371.691
       217.000         157.000
 00  4 18  2 11 30.0000000  0  8G 3G15G17G21G29G23G31G 9
  21613759.180   -24483923.14249 -19049511.08247  21613758.686    21613767.556
       238.000         199.000
  23446611.506   -10820424.70949  -8021874.78845  23446611.109    23446623.938
       219.000         158.000
  21917155.570   -17912221.14149 -13570625.47547  21917154.889    21917163.919
       233.000         188.000
  21365783.512   -20821278.13749 -16207937.61347  21365783.016    21365791.210
       243.000         207.000
  21045185.438   -22864138.74049 -16546559.64347  21045184.842    21045192.899
       240.000         205.000
  21431912.072   -20557650.67449 -15164819.85547  21431911.506    21431919.354
       241.000         206.000
  23573625.843   -13400219.34949 -10395986.30445  23573625.169    23573637.106
       220.000         160.000
  23588348.096    -5979956.61549  -4631982.20745  23588346.178    23588357.877
       216.000         157.000
 00  4 18  2 12  0.0000000  0  8G 3G15G17G21G29G23G31G 9
  21610932.655   -24498776.46649 -19061085.05447  21610932.543    21610941.214
       238.000         199.000
  23428897.695   -10913510.89249  -8094409.29545  23428895.863    23428908.920
       218.000         158.000
  21928739.816   -17851345.58149 -13523189.99647  21928738.840    21928747.995
       232.000         188.000
  21361108.334   -20845846.19349 -16227081.50447  21361107.723    21361115.887
       242.000         207.000
  21032882.600   -22928790.14049 -16596937.25147  21032882.229    21032890.038
       240.000         205.000
  21439031.853   -20520235.91549 -15135665.49247  21439031.218    21439038.854
       241.000         206.000
  23560305.576   -13470217.50349 -10450530.17645  23560304.041    23560316.399
       219.000         160.000
  23583425.313    -6005826.30549  -4652140.29345  23583424.425    23583433.899
       220.000         158.000
 00  4 18  2 12 30.0000000  0  8G 3G15G17G21G29G23G31G 9
  21608215.966   -24513052.79849 -19072209.42147  21608215.853    21608224.598
       239.000         199.000
  23411187.540   -11006577.56549  -8166928.59345  23411186.223    23411199.768
       217.000         157.000
  21940388.586   -17790131.11849 -13475490.44247  21940388.025    21940396.614
       232.000         188.000
  21356466.063   -20870241.20649 -16246090.55847  21356465.617    21356473.853
       243.000         207.000
  21020664.259   -22992997.51649 -16646968.86547  21020663.917    21020671.776
       240.000         205.000
  21446176.592   -20482689.86049 -15106408.82547  21446176.111    21446183.877
       240.000         206.000
  23547068.608   -13539777.70149 -10504732.78445  23547067.394    23547080.103
       219.000         160.000
  23578597.230    -6031197.09849  -4671909.60645  23578599.295    23578607.363
       224.000         158.000
 00  4 18  2 13  0.0000000  0  8G 3G15G17G21G29G23G31G 9
  21605603.468   -24526781.70449 -19082907.21747  21605602.922    21605611.636
       239.000         199.000
  23393480.592   -11099627.31849  -8239434.69745  23393479.281    23393491.535
       217.000         157.000
  21952099.971   -17728587.33949 -13427534.27346  21952099.358    21952108.401
       232.000         187.000
  21351857.018   -20894461.80149 -16264963.70247  21351856.307    21351864.300
       242.000         207.000
  21008530.816   -23056758.76849 -16696652.84947  21008530.507    21008538.089
       240.000         206.000
  21453346.156   -20445013.66949 -15077050.75447  21453345.558    21453353.214
       241.000         205.000
  23533914.713   -13608900.96749 -10558594.92045  23533913.281    23533926.838
       219.000         160.000
  23573864.106    -6056070.51349  -4691291.37845  23573862.784    23573871.850
       218.000         159.000
 00  4 18  2 13 30.0000000  0  8G 3G15G17G21G29G23G31G 9
  21603097.293   -24539951.65749 -19093169.46547  21603096.597    21603105.772
       239.000         199.000
  23375778.364   -11192652.46549  -8311921.62645  23375776.477    23375790.009
       218.000         157.000
  21963875.718   -17666705.56049 -13379314.73146  21963875.296    21963884.139
       232.000         187.000
  21347282.140   -20918502.53149 -16283696.69647  21347281.654    21347289.710
       243.000         207.000
  20996483.188   -23120068.97049 -16745985.37047  20996482.957    20996490.636
       241.000         206.000
  21460543.965   -20407188.99749 -15047576.98047  21460543.305    21460551.104
       241.000         205.000
  23520846.816   -13677572.55549 -10612105.10845  23520846.017    23520857.380
       219.000         160.000
  23569224.784    -6080446.96449  -4710285.91545  23569226.464    23569234.186
       222.000         160.000
 00  4 18  2 14  0.0000000  0  8G 3G15G17G21G29G23G31G 9
  21600698.179   -24552558.72349 -19102993.10447  21600697.628    21600706.531
       239.000         199.000
  23358082.082   -11285646.41749  -8384384.25845  23358080.387    23358094.273
       218.000         158.000
  21975716.457   -17604482.37149 -13330829.14546  21975715.779    21975724.942
       232.000         187.000
  21342739.587   -20942373.73249 -16302297.59047  21342738.869    21342747.133
       243.000         207.000
  20984524.680   -23182911.06249 -16794953.13247  20984524.296    20984531.862
       240.000         206.000
  21467772.118   -20369204.64649 -15017978.78147  21467771.541    21467779.544
       241.000         205.000
  23507866.282   -13745785.07149 -10665257.57045  23507865.723    23507876.796
       219.000         160.000
  23564680.092    -6104329.32549  -4728895.42845  23564679.902    23564688.843
       217.000         159.000
 00  4 18  2 14 30.0000000  0  8G 3G15G17G21G29G23G31G 9
  21598406.627   -24564600.64549 -19112376.37347  21598406.404    21598415.124
       239.000         199.000
  23340392.221   -11378606.68949  -8456820.61945  23340390.954    23340403.998
       218.000         158.000
  21987622.176   -17541917.45849 -13282077.27746  21987621.496    21987630.671
       232.000         187.000
  21338228.377   -20966080.07949 -16320770.02547  21338227.532    21338236.039
       243.000         207.000
  20972654.808   -23245287.34049 -16843557.92247  20972654.344    20972662.139
       241.000         206.000
  21475026.783   -20331081.33249 -14988272.29347  21475026.219    21475033.952
       240.000         205.000
  23494973.664   -13813535.80649 -10718050.19345  23494972.429    23494984.546
       219.000         160.000
  23560230.981    -6127710.32449  -4747114.29845  23560230.712    23560241.715
       220.000         161.000
 00  4 18  2 15  0.0000000  0  8G 3G15G17G21G29G23G31G 9
  21596225.945   -24576061.02049 -19121306.49247  21596225.654    21596234.350
       240.000         199.000
  23322706.796   -11471543.44349  -8529238.66645  23322705.747    23322718.363
       217.000         159.000
  21999591.561   -17479017.79249 -13233064.57946  21999590.800    21999599.477
       231.000         186.000
  21333747.548   -20989626.76849 -16339118.05847  21333746.834    21333755.009
       243.000         207.000
  20960870.646   -23307212.98849 -16891811.56647  20960870.102    20960877.872
       241.000         206.000
  21482301.540   -20292852.14849 -14958483.30447  21482300.773    21482308.810
       241.000         205.000
  23482166.255   -13880838.70949 -10770493.86845  23482165.055    23482177.262
       218.000         160.000
  23555875.680    -6150596.88649  -4764947.86345  23555874.727    23555885.761
       219.000         160.000
 00  4 18  2 15 30.0000000  0  8G 3G15G17G21G29G23G31G 9
  21594156.741   -24586934.32449 -19129779.15247  21594156.367    21594165.023
       238.000         199.000
  23305022.448   -11564474.44049  -8601652.20645  23305020.810    23305034.235
       219.000         159.000
  22011622.730   -17415793.85149 -13183799.18846  22011622.281    22011631.313
       231.000         186.000
  21329292.712   -21013036.93749 -16357359.71147  21329292.158    21329300.265
       243.000         207.000
  20949170.444   -23368697.58049 -16939721.53647  20949169.861    20949177.667
       240.000         207.000
  21489590.685   -20254547.21449 -14928635.30047  21489590.136    21489597.872
       240.000         205.000
  23469441.214   -13947708.42049 -10822599.98245  23469439.885    23469452.141
       217.000         160.000
  23551613.884    -6172992.48349  -4782398.83845  23551615.516    23551623.122
       224.000         161.000
 00  4 18  2 16  0.0000000  0  8G 3G15G17G21G29G23G31G 9
  21592195.488   -24597239.98749 -19137809.49547  21592195.274    21592203.838
       239.000         199.000
  23287337.309   -11657409.96549  -8674069.28345  23287336.173    23287348.998
       221.000         159.000
  22023712.780   -17352260.24149 -13134292.49746  22023711.922    22023720.893
       231.000         186.000
  21324862.196   -21036319.35449 -16375501.81547  21324861.615    21324869.645
       243.000         207.000
  20937550.768   -23429758.91649 -16987301.69647  20937550.356    20937557.904
       241.000         207.000
  21496890.641   -20216185.72349 -14898743.22347  21496890.053    21496897.813
       240.000         204.000
  23456796.282   -14014157.33449 -10874378.22245  23456795.568    23456807.364
       216.000         159.000
  23547444.427    -6194900.35749  -4799469.78045  23547443.064    23547454.262
       218.000         160.000
 00  4 18  2 16 30.0000000  0  8G 3G15G17G21G29G23G31G 9
  21590338.251   -24607000.02049 -19145414.68147  21590337.610    21590346.720
       239.000         199.000
  23269649.619   -11750358.59849  -8746496.57745  23269648.448    23269660.387
       221.000         160.000
  22035861.211   -17288419.91549 -13084546.80946  22035860.561    22035869.683
       231.000         186.000
  21320455.501   -21059476.54549 -16393546.33947  21320454.966    21320462.998
       243.000         207.000
  20926009.615   -23490407.72549 -17034560.40847  20926009.275    20926016.752
       241.000         207.000
  21504199.353   -20177777.91949 -14868815.05647  21504198.663    21504206.475
       240.000         204.000
  23444229.849   -14080193.88049 -10925835.12545  23444228.628    23444240.815
       217.000         159.000
  23543369.762    -6216314.08849  -4816155.72345  23543370.684    23543380.283
       223.000         161.000
 00  4 18  2 17  0.0000000  0  8G 3G15G17G21G29G23G31G 9
  21588584.069   -24616218.21149 -19152597.65247  21588583.555    21588592.636
       239.000         199.000
  23251958.962   -11843322.92249  -8818936.11045  23251957.875    23251969.012
       220.000         160.000
  22048065.718   -17224284.72549 -13034571.36046  22048065.112    22048074.269
       231.000         185.000
  21316072.211   -21082510.80649 -16411495.07947  21316071.461    21316079.696
       243.000         207.000
  20914546.047   -23550648.84049 -17081501.43747  20914545.601    20914553.391
       241.000         207.000
  21511520.203   -20139306.70549 -14838837.47447  21511519.625    21511527.419
       241.000         204.000
  23431742.459   -14145814.43849 -10976967.90245  23431742.392    23431752.115
       215.000         160.000
  23539389.096    -6237232.52149  -4832455.67445  23539388.750    23539398.441
       223.000         162.000
 00  4 18  2 17 30.0000000  0  8G 3G15G17G21G29G23G31G 9
  21586930.630   -24624906.42049 -19159367.65247  21586930.169    21586938.891
       238.000         199.000
  23234267.932   -11936288.94549  -8891376.96145  23234266.372    23234278.882
       218.000         160.000
  22060326.110   -17159856.08949 -12984367.25746  22060325.424    22060334.007
       231.000         185.000
  21311714.416   -21105410.96249 -16429339.32247  21311713.648    21311721.811
       243.000         207.000
  20903162.220   -23610470.80349 -17128115.85447  20903161.822    20903169.317
       241.000         207.000
  21518859.388   -20100739.12549 -14808784.80547  21518858.844    21518866.536
       241.000         204.000
  23419338.779   -14210995.63749 -11027758.30745  23419337.850    23419349.674
       218.000         160.000
  23535502.985    -6257655.28149  -4848369.39245  23535502.870    23535513.918
       222.000         162.000
 00  4 18  2 18  0.0000000  0  8G 3G15G17G21G29G23G31G 9
  21585380.797   -24633050.43849 -19165713.61547  21585380.542    21585389.160
       239.000         199.000
  23216580.892   -12029234.13949  -8963801.59645  23216579.277    23216591.902
       218.000         160.000
  22072643.877   -17095126.00349 -12933928.24246  22072643.237    22072652.123
       230.000         185.000
  21307385.982   -21128156.70649 -16447063.24347  21307385.184    21307393.489
       243.000         207.000
  20891861.053   -23669858.42249 -17174391.82447  20891860.726    20891868.186
       241.000         207.000
  21526221.631   -20062050.50349 -14778637.81447  21526221.207    21526228.705
       240.000         204.000
  23407022.004   -14275720.73249 -11078193.34345  23407021.506    23407033.359
       217.000         160.000
  23531712.257    -6277575.15849  -4863891.28145  23531713.824    23531722.374
       221.000         162.000
 00  4 18  2 18 30.0000000  0  8G 3G15G17G21G29G23G31G 9
  21583938.224   -24640630.80749 -19171620.37447  21583938.151    21583946.723
       239.000         199.000
  23198900.183   -12122146.16349  -9036200.40245  23198898.537    23198911.975
       219.000         160.000
  22085020.014   -17030088.81249 -12883249.92946  22085019.269    22085028.782
       231.000         184.000
  21303090.404   -21150730.06749 -16464652.83847  21303089.848    21303097.653
       243.000         207.000
  20880647.183   -23728787.30449 -17220310.33647  20880646.719    20880654.204
       241.000         207.000
  21533609.318   -20023227.96749 -14748386.47947  21533608.723    21533616.213
       240.000         204.000
  23394795.146   -14339972.61649 -11128259.61145  23394794.621    23394806.329
       218.000         160.000
  23528017.784    -6296991.51049  -4879020.79045  23528017.263    23528025.196
       219.000         161.000
 00  4 18  2 19  0.0000000  0  8G 3G15G17G21G29G23G31G 9
  21582609.013   -24647616.08049 -19177063.42247  21582608.931    21582617.398
       239.000         199.000
  23181229.366   -12215006.00049  -9108558.52545  23181228.140    23181240.142
       218.000         160.000
  22097455.966   -16964737.60649 -12832326.93346  22097455.650    22097463.801
       230.000         184.000
  21298831.218   -21173112.21749 -16482093.43447  21298830.576    21298838.774
       243.000         207.000
  20869522.030   -23787250.07049 -17265865.64447  20869521.751    20869529.269
       243.000         208.000
  21541025.214   -19984257.02949 -14718019.50647  21541024.749    21541032.186
       240.000         204.000
  23382662.670   -14403728.50749 -11177939.43545  23382662.260    23382673.818
       220.000         161.000
  23524418.212    -6315905.05049  -4893758.49845  23524417.894    23524427.549
       220.000         161.000
 00  4 18  2 19 30.0000000  0  8G 3G15G17G21G29G23G31G 9
  21581396.640   -24653987.28249 -19182027.97847  21581396.390    21581404.831
       239.000         199.000
  23163570.423   -12307803.52949  -9180868.11845  23163569.974    23163581.970
       217.000         159.000
  22109954.973   -16899054.81049 -12781145.55146  22109954.327    22109963.384
       230.000         184.000
  21294609.789   -21195295.77349 -16499379.28047  21294609.079    21294617.300
       243.000         207.000
  20858487.041   -23845238.87849 -17311051.63247  20858486.570    20858494.130
       243.000         208.000
  21548468.988   -19945139.55149 -14687538.34647  21548468.416    21548475.889
       240.000         203.000
  23370624.212   -14466990.84449 -11227234.65845  23370623.704    23370634.540
       220.000         161.000
  23520915.277    -6334314.78149  -4908103.62145  23520916.079    23520924.957
       223.000         162.000
 00  4 18  2 20  0.0000000  0  8G 3G15G17G21G29G23G31G 9
  21580304.063   -24659728.99249 -19186502.02347  21580303.827    21580312.512
       239.000         199.000
  23145923.265   -12400539.02849  -9253129.37845  23145921.762    23145934.442
       217.000         158.000
  22122519.357   -16833028.73249 -12729696.69346  22122518.779    22122527.896
       230.000         184.000
  21290426.714   -21217277.74249 -16516508.04147  21290426.105    21290434.106
       243.000         207.000
  20847540.193   -23902764.54849 -17355876.73647  20847539.948    20847547.398
       243.000         208.000
  21555937.940   -19905889.96549 -14656954.24247  21555937.535    21555945.082
       240.000         203.000
  23358679.559   -14529759.87549 -11276145.50545  23358679.313    23358690.415
       220.000         162.000
  23517509.230    -6352211.38649  -4922048.88045  23517509.687    23517518.951
       222.000         161.000
 00  4 18  2 20 30.0000000  0  8G 3G15G17G21G29G23G31G 9
  21579330.443   -24664845.01449 -19190488.51747  21579330.310    21579338.895
       238.000         199.000
  23128287.314   -12493215.59749  -9325344.72745  23128285.511    23128298.825
       218.000         159.000
  22135148.952   -16766659.76949 -12677980.64246  22135148.735    22135157.738
       230.000         183.000
  21286280.831   -21239064.37249 -16533484.59547  21286280.095    21286288.092
       243.000         207.000
  20836679.839   -23959835.69649 -17400347.66747  20836679.397    20836686.725
       243.000         208.000
  21563429.241   -19866522.91949 -14626278.61147  21563428.569    21563436.232
       240.000         203.000
  23346828.380   -14592037.92949 -11324673.76146  23346828.247    23346839.222
       220.000         163.000
  23514201.847    -6369590.67749  -4935591.08545  23514200.488    23514210.486
       219.000         160.000
 00  4 18  2 21  0.0000000  0  8G 3G15G17G21G29G23G31G 9
  21578476.195   -24669333.62249 -19193986.12247  21578476.082    21578484.643
       238.000         199.000
  23110661.455   -12585839.52849  -9397519.07145  23110660.742    23110673.822
       218.000         160.000
  22147843.623   -16699948.78849 -12625998.06946  22147843.357    22147852.421
       230.000         183.000
  21282168.059   -21260677.00749 -16550325.56347  21282167.512    21282175.381
       243.000         208.000
  20825902.961   -24016468.32349 -17444476.89147  20825902.398    20825910.109
       243.000         208.000
  21570940.434   -19827051.21549 -14595521.43047  21570939.839    21570947.590
       240.000         203.000
  23335064.994   -14653854.58449 -11372842.49146  23335064.061    23335076.275
       220.000         164.000
  23510993.166    -6386450.89249  -4948728.84145  23510993.098    23511003.088
       218.000         161.000
 00  4 18  2 21 30.0000000  0  8G 3G15G17G21G29G23G31G 9
  21577736.857   -24673218.70249 -19197013.44647  21577736.434    21577745.290
       239.000         199.000
  23093043.399   -12678422.39249  -9469661.44045  23093042.389    23093054.558
       218.000         161.000
  22160603.596   -16632894.70249 -12573748.15046  22160602.794    22160612.093
       230.000         183.000
  21278086.108   -21282127.73449 -16567040.37347  21278085.388    21278093.488
       243.000         208.000
  20815210.480   -24072657.15949 -17488260.30847  20815210.150    20815217.452
       243.000         208.000
  21578469.240   -19787486.84349 -14564692.04247  21578468.527    21578476.199
       240.000         203.000
  23323386.384   -14715226.11049 -11420664.37946  23323386.066    23323397.665
       220.000         165.000
  23507882.380    -6402797.94649  -4961466.67445  23507883.741    23507892.572
       221.000         161.000
 00  4 18  2 22  0.0000000  0  8G 3G15G17G21G29G23G31G 9
  21577108.004   -24676523.12249 -19199588.30647  21577107.889    21577116.443
       239.000         199.000
  23075431.771   -12770971.57749  -9541777.55745  23075430.362    23075442.966
       217.000         161.000
  22173426.996   -16565507.25349 -12521238.47346  22173426.866    22173435.586
       229.000         182.000
  21274032.723   -21303428.18949 -16583638.08847  21274032.104    21274040.235
       243.000         208.000
  20804605.016   -24128388.89149 -17531687.54347  20804604.392    20804611.922
       243.000         209.000
  21586013.704   -19747840.32649 -14533798.64247  21586013.074    21586020.489
       240.000         203.000
  23311793.770   -14776145.46749 -11468133.91746  23311792.942    23311804.132
       219.000         165.000
  23504867.589    -6418640.44649  -4973811.32745  23504867.769    23504875.832
       222.000         161.000
 00  4 18  2 22 30.0000000  0  8G 3G15G17G21G29G23G31G 9
  21576587.954   -24679256.13449 -19201717.91647  21576587.569    21576596.278
       239.000         199.000
  23057826.028   -12863489.64149  -9613869.42945  23057824.600    23057836.924
       219.000         161.000
  22186312.235   -16497795.34049 -12468475.97546  22186311.826    22186321.132
       230.000         182.000
  21270005.943   -21324588.90749 -16600126.92047  21270005.622    21270013.581
       243.000         208.000
  20794091.443   -24183637.64949 -17574738.43147  20794091.120    20794098.485
       244.000         209.000
  21593573.392   -19708113.79049 -14502842.88847  21593572.791    21593580.650
       240.000         203.000
  23300284.760   -14836625.32849 -11515260.97846  23300282.950    23300295.601
       222.000         166.000
  23501946.128    -6433993.18049  -4985774.41045  23501945.062    23501955.302
       217.000         160.000
 00  4 18  2 23  0.0000000  0  8G 3G15G17G21G29G23G31G 9
  21576172.770   -24681438.03549 -19203418.08247  21576172.207    21576181.146
       238.000         199.000
  23040226.237   -12955976.30749  -9685936.82045  23040224.924    23040237.679
       217.000         162.000
  22199260.992   -16429749.19449 -12415453.02946  22199260.492    22199269.355
       230.000         182.000
  21266006.818   -21345604.25049 -16616502.47447  21266006.360    21266014.196
       243.000         208.000
  20783672.020   -24238391.71449 -17617403.84947  20783671.743    20783679.060
       244.000         209.000
  21601149.708   -19668299.84549 -14471819.02547  21601149.206    21601156.996
       239.000         202.000
  23288862.372   -14896649.92949 -11562033.31046  23288862.116    23288873.295
       221.000         167.000
  23499118.362    -6448851.17449  -4997351.95545  23499116.730    23499128.800
       218.000         160.000
 00  4 18  2 23 30.0000000  0  8G 3G15G17G21G29G23G31G 9
  21575859.626   -24683083.36449 -19204700.14147  21575859.433    21575867.880
       239.000         199.000
  23022632.730   -13048430.31349  -9757978.75446  23022632.113    23022643.867
       222.000         163.000
  22212272.867   -16361371.45549 -12362171.68946  22212271.604    22212281.168
       229.000         182.000
  21262037.229   -21366464.50649 -16632757.17947  21262036.538    21262044.716
       243.000         208.000
  20773346.652   -24292651.44949 -17659684.07047  20773346.412    20773353.689
       243.000         209.000
  21608741.091   -19628406.87249 -14440733.58447  21608740.760    21608748.184
       240.000         202.000
  23277532.649   -14956187.16849 -11608425.86246  23277531.820    23277543.560
       221.000         167.000
  23496387.513    -6463201.28549  -5008533.79045  23496389.128    23496396.844
       219.000         160.000
 00  4 18  2 24  0.0000000  0  8G 3G15G17G21G29G23G31G 9
  21575650.983   -24684180.19249 -19205554.79347  21575650.598    21575659.130
       239.000         200.000
  23005044.943   -13140854.26449  -9829997.27846  23005044.219    23005056.884
       222.000         164.000
  22225342.633   -16292689.55549 -12308653.36246  22225341.446    22225350.972
       229.000         181.000
  21258096.777   -21387171.59449 -16648892.53347  21258096.066    21258104.257
       243.000         208.000
  20763111.973   -24346434.81549 -17701593.09847  20763111.527    20763118.867
       243.000         209.000
  21616344.245   -19588452.13449 -14409600.01547  21616343.647    21616351.562
       239.000         202.000
  23266294.424   -15015244.16749 -11654444.19346  23266294.489    23266305.655
       222.000         168.000
  23493757.378    -6477024.24349  -5019304.80745  23493758.090    23493763.651
       221.000         158.000
 00  4 18  2 24 30.0000000  0  8G 3G15G17G21G29G23G31G 9
  21575547.096   -24684725.49149 -19205979.68447  21575546.960    21575555.462
       239.000         200.000
  22987463.931   -13233242.52049  -9901987.98446  22987463.370    22987475.557
       220.000         165.000
  22238470.489   -16223702.17249 -12254896.98446  22238470.137    22238478.934
       229.000         180.000
  21254189.391   -21407704.81149 -16664892.40047  21254188.781    21254196.714
       243.000         208.000
  20752963.110   -24399767.06149 -17743150.60747  20752962.743    20752969.921
       242.000         209.000
  21623960.447   -19548428.83249 -14378413.02347  21623959.994    21623967.363
       239.000         202.000
  23255147.329   -15073822.73349 -11700089.72446  23255146.047    23255157.645
       221.000         168.000
  23491230.703    -6490302.74549  -5029651.60145  23491229.190    23491238.521
       217.000         159.000
 00  4 18  2 25  0.0000000  0  8G 3G15G17G21G29G23G31G 9
  21575549.857   -24684711.00049 -19205968.37747  21575549.748    21575558.376
       239.000         200.000
  22969891.138   -13325587.38449  -9973944.85146  22969890.556    22969902.138
       221.000         165.000
  22251655.614   -16154413.88649 -12200906.14246  22251654.890    22251664.016
       229.000         180.000
  21250316.969   -21428054.40149 -16680749.18447  21250316.302    21250324.563
       243.000         208.000
  20742895.524   -24452672.22449 -17784375.32147  20742895.083    20742902.444
       242.000         209.000
  21631591.553   -19508326.96949 -14347164.81347  21631590.911    21631598.573
       239.000         202.000
  23244094.710   -15131904.30349 -11745347.97046  23244094.138    23244104.905
       222.000         168.000
  23488811.988    -6503011.07849  -5039554.10045  23488812.653    23488820.530
       218.000         159.000
 00  4 18  2 25 30.0000000  0  8G 3G15G17G21G29G23G31G 9
  21575665.665   -24684102.12349 -19205493.90547  21575665.528    21575674.350
       239.000         200.000
  22952328.388   -13417879.55549 -10045860.65246  22952327.304    22952339.860
       223.000         166.000
  22264895.442   -16084838.10449 -12146691.27946  22264895.104    22264903.806
       228.000         180.000
  21246478.822   -21448223.82549 -16696465.57747  21246478.329    21246486.075
       242.000         208.000
  20732909.441   -24505149.11549 -17825266.32247  20732908.996    20732916.318
       242.000         210.000
  21639239.556   -19468136.55449 -14315847.60447  21639238.977    21639246.602
       239.000         202.000
  23233133.560   -15189504.60449 -11790231.20946  23233132.587    23233143.517
       221.000         168.000
  23486499.325    -6515161.35149  -5049021.74145  23486499.635    23486507.805
       220.000         159.000
 00  4 18  2 26  0.0000000  0  8G 3G15G17G21G29G23G31G 9
  21575896.035   -24682891.47549 -19204550.51947  21575896.038    21575904.537
       239.000         200.000
  22934778.213   -13510105.76549 -10117725.04946  22934776.645    22934789.620
       222.000         167.000
  22278193.487   -16014956.72549 -12092238.28146  22278192.758    22278202.124
       228.000         180.000
  21242675.541   -21468209.98149 -16712039.16247  21242674.982    21242682.891
       243.000         208.000
  20723008.541   -24557178.39649 -17865808.53047  20723008.500    20723015.371
       242.000         210.000
  21646911.137   -19427821.99349 -14284433.65247  21646910.606    21646918.390
       240.000         201.000
  23222264.207   -15246623.26449 -11834739.12246  23222263.581    23222275.592
       221.000         168.000
  23484290.412    -6526770.13849  -5058067.49945  23484291.184    23484301.370
       215.000         159.000
 00  4 18  2 26 30.0000000  0  8G 3G15G17G21G29G23G31G 9
  21576240.732   -24681080.33249 -19203139.21247  21576240.559    21576249.308
       240.000         200.000
  22917243.861   -13602249.10549 -10189524.86446  22917242.383    22917254.615
       222.000         168.000
  22291555.447   -15944739.18949 -12037523.34046  22291555.078    22291564.118
       228.000         179.000
  21238908.785   -21488004.28849 -16727463.24947  21238907.940    21238915.894
       243.000         208.000
  20713197.433   -24608735.81549 -17905983.05647  20713197.072    20713204.273
       242.000         210.000
  21654612.773   -19387349.83249 -14252896.89847  21654612.214    21654619.767
       239.000         201.000
  23211491.806   -15303232.25049 -11878849.87746  23211490.839    23211502.064
       221.000         168.000
  23482181.576    -6537850.22249  -5066701.19245  23482181.364    23482190.450
       220.000         158.000
 00  4 18  2 27  0.0000000  0  8G 3G15G17G21G29G23G31G 9
  21576702.588   -24678653.44649 -19201248.11647  21576702.120    21576710.873
       239.000         199.000
  22899726.404   -13694303.36049 -10261255.25946  22899724.461    22899737.589
       223.000         168.000
  22304982.155   -15874181.28149 -11982543.17546  22304980.953    22304990.604
       227.000         178.000
  21235173.926   -21507630.73649 -16742756.54047  21235173.305    21235181.415
       243.000         208.000
  20703482.183   -24659789.47049 -17945765.04147  20703481.728    20703488.882
       242.000         210.000
  21662345.282   -19346715.12949 -14221233.49547  21662344.821    21662352.535
       239.000         201.000
  23200818.549   -15359319.44249 -11922554.04146  23200818.138    23200829.283
       221.000         168.000
  23480173.627    -6548401.45049  -5074922.84045  23480174.014    23480183.322
       219.000         158.000
 00  4 18  2 27 30.0000000  0  8G 3G15G17G21G29G23G31G 9
  21577278.287   -24675627.79649 -19198890.44447  21577277.781    21577286.797
       239.000         199.000
  22882225.138   -13786272.51949 -10332919.32846  22882224.376    22882235.726
       224.000         169.000
  22318476.563   -15803268.02949 -11927286.11946  22318475.841    22318485.074
       228.000         178.000
  21231468.324   -21527103.72049 -16757930.24847  21231467.511    21231475.650
       243.000         208.000
  20693865.133   -24710327.00249 -17985144.85847  20693864.716    20693871.776
       242.000         210.000
  21670106.796   -19305928.22049 -14189451.48147  21670106.148    21670113.931
       239.000         201.000
  23190243.827   -15414890.10149 -11965855.71146  23190242.449    23190253.659
       221.000         168.000
  23478263.633    -6558439.99249  -5082744.99545  23478262.867    23478271.934
       214.000         159.000
 00  4 18  2 28  0.0000000  0  8G 3G15G17G21G29G23G31G 9
  21577963.600   -24672026.15949 -19196083.95847  21577963.467    21577972.112
       239.000         199.000
  22864738.001   -13878167.28749 -10404525.44746  22864736.522    22864748.747
       223.000         169.000
  22332038.219   -15732001.12149 -11871753.49946  22332037.252    22332046.708
       228.000         178.000
  21227790.179   -21546432.28349 -16772991.42347  21227789.537    21227797.460
       243.000         208.000
  20684344.549   -24760357.61649 -18024129.66847  20684344.356    20684351.407
       243.000         210.000
  21677894.020   -19265005.87249 -14157563.92547  21677893.527    21677901.144
       239.000         200.000
  23179768.787   -15469936.33349 -12008748.73746  23179767.791    23179778.792
       221.000         168.000
  23476453.569    -6567952.77849  -5090157.47545  23476451.581    23476462.859
       210.000         158.000
 00  4 18  2 28 30.0000000  0  8G 3G15G17G21G29G23G31G 9
  21578758.122   -24667851.31249 -19192830.81547  21578757.707    21578766.313
       239.000         199.000
  22847262.398   -13970001.50549 -10476084.37646  22847260.990    22847272.877
       223.000         169.000
  22345662.327   -15660405.92849 -11815965.06246  22345661.710    22345671.279
       227.000         177.000
  21224136.473   -21565632.55649 -16787952.62847  21224135.697    21224143.483
       243.000         208.000
  20674917.370   -24809897.59049 -18062732.16647  20674917.203    20674924.110
       243.000         211.000
  21685700.427   -19223982.77749 -14125597.86947  21685700.002    21685707.688
       238.000         200.000
  23169392.007   -15524465.88949 -12051239.15846  23169391.614    23169402.831
       221.000         168.000
  23474744.864    -6576928.17649  -5097151.18745  23474745.612    23474754.905
       217.000         158.000
 00  4 18  2 29  0.0000000  0  8G 3G15G17G21G29G23G31G 9
  21579660.543   -24663109.04749 -19189135.52847  21579660.052    21579668.680
       239.000         199.000
  22829795.109   -14061792.20049 -10547609.39046  22829794.182    22829805.530
       223.000         169.000
  22359344.699   -15588504.88149 -11759938.30346  22359344.058    22359352.214
       227.000         177.000
  21220503.239   -21584725.08949 -16802829.88647  21220502.632    21220510.208
       244.000         208.000
  20665578.128   -24858975.32949 -18100974.47847  20665577.918    20665585.001
       242.000         211.000
  21693520.691   -19182887.02049 -14093575.18847  21693520.358    21693527.641
       239.000         200.000
  23159109.402   -15578500.54549 -12093343.94346  23159108.433    23159119.536
       221.000         169.000
  23473138.945    -6585367.93749  -5103727.53545  23473138.035    23473147.633
       217.000         157.000
 00  4 18  2 29 30.0000000  0  8G 3G15G17G21G29G23G31G 9
  21580670.018   -24657803.98949 -19185001.70947  21580669.903    21580678.332
       239.000         199.000
  22812335.065   -14153544.36249 -10619104.37946  22812333.850    22812344.697
       222.000         169.000
  22373082.557   -15516311.93449 -11703684.09346  22373081.658    22373091.657
       228.000         177.000
  21216893.285   -21603695.37749 -16817611.88347  21216892.621    21216900.686
       243.000         208.000
  20656323.200   -24907609.81349 -18138871.39647  20656322.545    20656329.962
       243.000         211.000
  21701351.177   -19141737.42549 -14061510.55347  21701350.458    21701358.124
       238.000         200.000
  23148918.884   -15632051.22149 -12135071.61946  23148918.187    23148929.618
       222.000         169.000
  23471633.221    -6593281.92449  -5109894.17145  23471635.295    23471641.361
       221.000         158.000
 00  4 18  2 30  0.0000000  0  8G 3G15G17G21G29G23G31G 9
  21581788.252   -24651927.82549 -19180422.86947  21581787.799    21581796.450
       240.000         199.000
  22794882.148   -14245259.21749 -10690570.28646  22794881.372    22794892.523
       224.000         170.000
  22386873.582   -15443839.57549 -11647212.14846  22386873.580    22386881.882
       226.000         177.000
  21213307.508   -21622538.53249 -16832294.81847  21213306.803    21213314.672
       243.000         208.000
  20647151.079   -24955809.30149 -18176429.35847  20647150.755    20647157.835
       242.000         211.000
  21709190.724   -19100540.38549 -14029408.94247  21709189.881    21709197.777
       239.000         200.000
  23138819.216   -15685125.15949 -12176427.80546  23138818.989    23138829.525
       222.000         169.000
  23470229.662    -6600661.30549  -5115644.26145  23470228.039    23470236.401
       218.000         158.000
 00  4 18  2 30 30.0000000  0  8G 3G15G17G21G29G23G31G 9
  21583013.717   -24645487.66149 -19175404.55447  21583013.381    21583022.095
       239.000         199.000
  22777437.977   -14336928.27149 -10762000.51146  22777436.599    22777448.175
       223.000         170.000
  22400719.945   -15371076.40249 -11590513.61246  22400718.835    22400727.697
       227.000         176.000
  21209749.074   -21641238.10849 -16846865.87347  21209748.237    21209756.344
       243.000         208.000
  20638061.982   -25003572.54849 -18213647.39347  20638061.707    20638068.716
       243.000         211.000
  21717038.572   -19059299.43149 -13997273.13047  21717037.788    21717045.751
       238.000         200.000
  23128809.366   -15737726.95549 -12217416.09946  23128808.679    23128819.117
       222.000         169.000
  23468926.806    -6607506.91249  -5120978.42545  23468924.901    23468934.492
       210.000         157.000
 00  4 18  2 31  0.0000000  0  8G 3G15G17G21G29G23G31G 9
  21584345.663   -24638488.23449 -19169950.45047  21584345.029    21584354.021
       239.000         199.000
  22760005.254   -14428536.85949 -10833383.61346  22760003.997    22760015.336
       223.000         170.000
  22414624.557   -15298007.41649 -11533576.77346  22414624.019    22414632.855
       227.000         176.000
  21206221.040   -21659777.83649 -16861312.36847  21206220.399    21206228.419
       243.000         208.000
  20629057.880   -25050889.18049 -18250517.41747  20629057.441    20629064.422
       243.000         211.000
  21724896.835   -19018003.65749 -13965094.58947  21724896.247    21724903.983
       238.000         200.000
  23118889.953   -15789853.11249 -12258033.76246  23118889.296    23118900.087
       222.000         169.000
  23467724.258    -6613825.59449  -5125901.99645  23467726.601    23467730.190
       221.000         157.000
 00  4 18  2 31 30.0000000  0  8G 3G15G17G21G29G23G31G 9
  21585781.919   -24630940.53849 -19164069.13247  21585781.814    21585790.214
       239.000         199.000
  22742586.566   -14520071.93049 -10904709.43046  22742585.336    22742596.704
       223.000         170.000
  22428591.144   -15224612.40549 -11476385.90446  22428590.300    22428599.904
       227.000         176.000
  21202727.864   -21678134.46149 -16875616.18547  21202727.097    21202735.142
       243.000         208.000
  20620141.664   -25097743.78849 -18287027.42547  20620141.343    20620148.224
       242.000         211.000
  21732767.261   -18976644.33749 -13932866.53047  21732766.849    21732774.286
       238.000         200.000
  23109062.314   -15841497.17749 -12298275.77046  23109060.900    23109071.786
       222.000         169.000
  23466624.253    -6619607.47749  -5130407.27245  23466621.326    23466631.145
       210.000         157.000
 00  4 18  2 32  0.0000000  0  8G 3G15G17G21G29G23G31G 9
  21587320.891   -24622853.16049 -19157767.27447  21587320.619    21587329.267
       238.000         199.000
  22725183.911   -14611522.69549 -10975969.54446  22725182.893    22725193.741
       223.000         170.000
  22442624.668   -15150865.81949 -11418921.06246  22442624.334    22442633.803
       227.000         176.000
  21199270.335   -21696303.50749 -16889773.83847  21199269.681    21199277.624
       244.000         208.000
  20611315.160   -25144126.96449 -18323170.07947  20611314.974    20611321.842
       243.000         211.000
  21740655.580   -18935190.91749 -13900565.14447  21740655.168    21740662.670
       238.000         199.000
  23099329.561   -15892642.69249 -12338129.29846  23099328.228    23099339.816
       223.000         169.000
  23465627.264    -6624840.62549  -5134484.98645  23465625.805    23465634.239
       207.000         156.000
 00  4 18  2 32 30.0000000  0  8G 3G15G17G21G29G23G31G 9
  21588964.369   -24614216.55749 -19151037.46147  21588964.291    21588972.913
       238.000         199.000
  22707799.385   -14702878.11949 -11047155.37846  22707798.138    22707808.848
       224.000         171.000
  22456724.696   -15076769.63849 -11361183.81446  22456723.904    22456732.970
       226.000         176.000
  21195849.569   -21714279.58549 -16903781.13147  21195848.899    21195856.731
       244.000         209.000
  20602582.201   -25190018.72649 -18358929.82147  20602581.899    20602588.919
       243.000         211.000
  21748564.992   -18893626.66149 -13868177.38947  21748564.412    21748572.301
       238.000         199.000
  23089694.655   -15943273.95849 -12377582.11046  23089693.858    23089704.681
       223.000         169.000
  23464733.460    -6629536.53149  -5138144.05145  23464735.512    23464741.406
       219.000         157.000
 00  4 18  2 33  0.0000000  0  8G 3G15G17G21G29G23G31G 9
  21590716.993   -24605006.41149 -19143860.72347  21590716.518    21590725.393
       239.000         199.000
  22690433.661   -14794134.69449 -11118264.18646  22690433.260    22690443.769
       225.000         171.000
  22470889.857   -15002331.75349 -11303180.30646  22470889.367    22470897.174
       226.000         176.000
  21192464.258   -21732069.40149 -16917643.28047  21192463.433    21192471.301
       244.000         209.000
  20593946.720   -25235398.11649 -18394290.30647  20593946.498    20593953.336
       243.000         212.000
  21756497.986   -18851938.42049 -13835693.02547  21756497.460    21756505.121
       238.000         199.000
  23080159.521   -15993380.81549 -12416626.30146  23080158.269    23080169.648
       224.000         169.000
  23463944.382    -6633688.97549  -5141379.65745  23463945.319    23463950.039
       216.000         157.000
 00  4 18  2 33 30.0000000  0  8G 3G15G17G21G29G23G31G 9
  21592582.311   -24595203.66049 -19136222.22447  21592582.216    21592590.754
       238.000         199.000
  22673086.596   -14885293.31749 -11189296.66146  22673085.380    22673096.458
       224.000         171.000
  22485119.980   -14927552.16849 -11244910.54046  22485119.556    22485128.831
       225.000         175.000
  21189112.347   -21749683.57449 -16931368.56547  21189111.873    21189119.487
       244.000         209.000
  20585409.766   -25280259.85849 -18429247.43147  20585409.398    20585416.454
       243.000         212.000
  21764455.276   -18810122.54149 -13803109.20247  21764454.522    21764462.176
       238.000         199.000
  23070725.771   -16042955.31849 -12455255.66846  23070724.790    23070735.891
       222.000         169.000
  23463259.161    -6637286.66449  -5144182.92545  23463259.573    23463265.354
       220.000         156.000
 00  4 18  2 34  0.0000000  0  8G 3G15G17G21G29G23G31G 9
  21594563.674   -24584791.69549 -19128109.01047  21594563.575    21594572.160
       238.000         199.000
  22655757.500   -14976357.53649 -11260255.59246  22655756.896    22655766.975
       226.000         171.000
  22499411.212   -14852451.37649 -11186390.48946  22499410.722    22499420.085
       225.000         175.000
  21185790.244   -21767141.18149 -16944971.85147  21185789.573    21185797.345
       244.000         209.000
  20576971.470   -25324602.84849 -18463800.33747  20576971.139    20576978.037
       243.000         212.000
  21772433.630   -18768195.78849 -13770438.98347  21772433.288    21772440.466
       238.000         199.000
  23061393.669   -16091995.07149 -12493468.34846  23061392.640    23061403.674
       223.000         169.000
  23462677.859    -6640342.54449  -5146564.06245  23462676.687    23462684.769
       212.000         157.000
 00  4 18  2 34 30.0000000  0  8G 3G15G17G21G29G23G31G 9
  21596661.523   -24573767.48449 -19119518.71447  21596660.983    21596669.992
       238.000         199.000
  22638445.667   -15067331.00149 -11331143.79346  22638444.691    22638455.758
       226.000         171.000
  22513758.548   -14777055.60049 -11127640.57746  22513757.980    22513767.816
       225.000         175.000
  21182495.926   -21784452.60549 -16958461.22447  21182495.154    21182503.009
       244.000         209.000
  20568631.761   -25368428.20949 -18497949.89447  20568631.483    20568638.215
       243.000         212.000
  21780428.063   -18726184.76249 -13737703.09647  21780427.344    21780435.103
       238.000         199.000
  23052163.030   -16140501.75649 -12531265.62646  23052162.540    23052172.976
       223.000         169.000
  23462199.613    -6642855.35249  -5148522.02845  23462197.289    23462208.207
       213.000         157.000
 00  4 18  2 35  0.0000000  0  8G 3G15G17G21G29G23G31G 9
  21598872.002   -24562151.53149 -19110467.33347  21598871.682    21598880.458
       239.000         199.000
  22621149.518   -15158221.92549 -11401967.69746  22621148.555    22621158.943
       225.000         171.000
  22528161.763   -14701366.14549 -11068661.82246  22528160.969    22528171.362
       226.000         175.000
  21179225.987   -21801636.12849 -16971850.93547  21179225.467    21179233.263
       244.000         209.000
  20560385.167   -25411763.93449 -18531717.91847  20560384.762    20560391.610
       243.000         212.000
  21788435.032   -18684107.65749 -13704915.72347  21788434.471    21788442.174
       238.000         199.000
  23043033.456   -16188477.75649 -12568649.40346  23043032.600    23043043.361
       224.000         169.000
  23461827.887    -6644807.08549  -5150042.72345  23461826.715    23461836.266
       214.000         157.000
 00  4 18  2 35 30.0000000  0  8G 3G15G17G21G29G23G31G 9
  21601189.910   -24549971.09449 -19100976.09047  21601189.917    21601198.511
       239.000         199.000
  22603866.940   -15249041.58549 -11472736.07346  22603865.040    22603876.330
       225.000         171.000
  22542618.476   -14625395.62049 -11009464.04746  22542617.980    22542627.325
       224.000         175.000
  21175977.995   -21818704.29149 -16985150.75247  21175977.306    21175984.944
       244.000         209.000
  20552226.047   -25454640.13949 -18565127.87347  20552225.850    20552232.505
       243.000         212.000
  21796451.660   -18641980.16149 -13672089.08347  21796450.921    21796458.721
       238.000         199.000
  23034001.857   -16235938.43449 -12605631.61246  23034001.323    23034011.610
       224.000         170.000
  23461561.843    -6646206.32149  -5151132.97645  23461560.260    23461572.951
       215.000         157.000
 00  4 18  2 36  0.0000000  0  8G 3G15G17G21G29G23G31G 9
  21603610.757   -24537249.54449 -19091063.20247  21603610.801    21603619.045
       239.000         199.000
  22586597.273   -15339793.53049 -11543451.68346  22586596.215    22586606.414
       226.000         171.000
  22557126.444   -14549156.00449 -10950056.59046  22557126.436    22557135.474
       225.000         175.000
  21172754.861   -21835641.86949 -16998348.81947  21172754.357    21172762.047
       244.000         209.000
  20544152.865   -25497064.73349 -18598185.92847  20544152.619    20544159.358
       243.000         212.000
  21804477.468   -18599804.22649 -13639224.69647  21804476.965    21804484.586
       238.000         199.000
  23025066.883   -16282891.64549 -12642218.40146  23025065.859    23025077.208
       223.000         170.000
  23461401.298    -6647052.50149  -5151792.30345  23461399.031    23461407.082
       212.000         158.000
 00  4 18  2 36 30.0000000  0  8G 3G15G17G21G29G23G31G 9
  21606132.863   -24523995.99949 -19080735.76447  21606132.776    21606141.398
       238.000         199.000
  22569342.808   -15430465.48149 -11614104.97446  22569341.240    22569352.838
       227.000         172.000
  22571690.506   -14472621.61549 -10890419.40346  22571690.174    22571699.038
       227.000         175.000
  21169559.005   -21852435.95049 -17011435.07347  21169558.420    21169566.249
       244.000         209.000
  20536167.399   -25539028.35349 -18630884.77947  20536167.137    20536173.800
       243.000         212.000
  21812519.500   -18557543.01049 -13606293.85647  21812518.658    21812526.492
       239.000         199.000
  23016228.361   -16329337.80649 -12678410.08246  23016227.857    23016237.698
       222.000         170.000
  23461350.021    -6647318.78449  -5151999.71045  23461351.334    23461356.289
       221.000         157.000
 00  4 18  2 37  0.0000000  0  8G 3G15G17G21G29G23G31G 9
  21608757.186   -24510205.08849 -19069989.61047  21608756.979    21608765.756
       238.000         199.000
  22552104.854   -15521050.88649 -11684690.81746  22552103.504    22552114.931
       227.000         172.000
  22586315.623   -14395766.36749 -10830532.20446  22586315.459    22586324.763
       225.000         175.000
  21166393.298   -21869071.66449 -17024397.92547  21166392.701    21166400.365
       244.000         209.000
  20528270.054   -25580528.76949 -18663222.69247  20528269.765    20528276.481
       243.000         212.000
  21820579.538   -18515187.05449 -13573289.19447  21820578.818    21820586.462
       238.000         198.000
  23007485.138   -16375283.52249 -12714211.80846  23007484.200    23007494.518
       222.000         170.000
  23461408.629    -6647010.61649  -5151759.47045  23461406.736    23461415.613
       212.000         156.000
 00  4 18  2 37 30.0000000  0  8G 3G15G17G21G29G23G31G 9
  21611486.591   -24495861.96149 -19058813.14147  21611486.379    21611495.123
       239.000         198.000
  22534885.776   -15611537.04849 -11755199.34246  22534885.134    22534895.916
       225.000         173.000
  22601004.129   -14318577.92349 -10770385.38446  22601003.401    22601012.600
       225.000         175.000
  21163262.446   -21885524.25349 -17037218.08147  21163261.849    21163269.629
       244.000         209.000
  20520465.215   -25621543.27049 -18695181.97148  20520464.668    20520471.653
       243.000         213.000
  21828661.493   -18472716.16749 -13540194.96947  21828660.893    21828668.210
       238.000         198.000
  22998838.400   -16420721.87049 -12749618.19446  22998837.076    22998847.289
       224.000         170.000
  23461572.830    -6646143.07049  -5151083.37845  23461570.573    23461581.735
       210.000         155.000
 00  4 18  2 38  0.0000000  0  8G 3G15G17G21G29G23G31G 9
  21614322.248   -24480960.90349 -19047201.93147  21614321.816    21614330.484
       238.000         198.000
  22517689.130   -15701905.23549 -11825615.95046  22517687.869    22517698.238
       225.000         173.000
  22615760.229   -14241034.37149 -10709961.85346  22615759.246    22615768.742
       225.000         175.000
  21160168.266   -21901784.00349 -17049887.97347  21160167.691    21160175.353
       244.000         209.000
  20512756.547   -25662052.24449 -18726747.33248  20512756.284    20512762.876
       243.000         213.000
  21836767.857   -18430116.91249 -13507000.72547  21836767.311    21836774.717
       238.000         198.000
  22990293.028   -16465627.71449 -12784609.65046  22990292.062    22990302.313
       223.000         170.000
  23461843.816    -6644716.11349  -5149971.41945  23461845.362    23461855.163
       217.000         157.000
 00  4 18  2 38 30.0000000  0  8G 3G15G17G21G29G23G31G 9
  21617266.992   -24465485.86649 -19035143.46247  21617266.828    21617275.509
       239.000         198.000
  22500515.845   -15792150.74849 -11895936.95846  22500514.708    22500525.357
       225.000         173.000
  22630584.146   -14163134.33849 -10649260.55146  22630583.503    22630592.842
       225.000         174.000
  21157107.003   -21917871.06249 -17062423.29747  21157106.240    21157113.983
       244.000         209.000
  20505144.982   -25702051.11649 -18757915.20948  20505144.734    20505151.667
       243.000         213.000
  21844897.989   -18387392.60949 -13473709.04047  21844897.592    21844905.039
       238.000         198.000
  22981850.362   -16509993.78749 -12819180.48946  22981849.667    22981859.574
       224.000         170.000
  23462220.878    -6642737.10849  -5148429.28845  23462221.842    23462232.051
       211.000         158.000
 00  4 18  2 39  0.0000000  0  8G 3G15G17G21G29G23G31G 9
  21620323.401   -24449424.27049 -19022627.93647  21620323.092    21620331.721
       238.000         198.000
  22483364.085   -15882283.17749 -11966169.84946  22483363.192    22483374.128
       225.000         174.000
  22645470.118   -14084907.94749 -10588304.94346  22645470.387    22645478.885
       225.000         174.000
  21154076.249   -21933797.42249 -17074833.40647  21154075.668    21154083.405
       244.000         209.000
  20497629.151   -25741546.76849 -18788690.97048  20497628.757    20497635.759
       243.000         213.000
  21853046.840   -18344570.00749 -13440340.76047  21853046.041    21853053.770
       237.000         198.000
  22973512.882   -16553806.90849 -12853320.48146  22973512.438    22973522.576
       223.000         171.000
  23462697.852    -6640229.72149  -5146475.39145  23462698.122    23462711.076
       213.000         158.000
 00  4 18  2 39 30.0000000  0  8G 3G15G17G21G29G23G31G 9
  21623490.807   -24432779.71049 -19009658.15247  21623490.399    21623499.218
       238.000         198.000
  22466233.696   -15972303.34949 -12036315.27146  22466232.871    22466242.782
       225.000         174.000
  22660413.879   -14006378.01549 -10527112.81046  22660413.182    22660422.415
       224.000         174.000
  21151072.123   -21949584.08849 -17087134.66247  21151071.538    21151079.201
       244.000         209.000
  20490208.590   -25780541.64649 -18819076.51648  20490208.324    20490215.100
       243.000         213.000
  21861214.923   -18301646.31049 -13406893.70047  21861214.456    21861221.850
       238.000         198.000
  22965281.486   -16597062.27449 -12887025.86346  22965280.347    22965291.061
       223.000         171.000
  23463276.050    -6637190.94049  -5144107.41445  23463272.854    23463282.818
       207.000         157.000
 00  4 18  2 40  0.0000000  0  8G 3G15G17G21G29G23G31G 9
  21626768.804   -24415553.57849 -18996235.19347  21626768.570    21626776.910
       238.000         198.000
  22449123.503   -16062217.16949 -12106377.80946  22449122.186    22449132.712
       225.000         174.000
  22675413.865   -13927552.77849 -10465690.57946  22675412.938    22675422.647
       224.000         173.000
  21148091.264   -21965248.47649 -17099340.63747  21148090.671    21148098.228
       244.000         209.000
  20482882.122   -25819042.20849 -18849076.88248  20482881.636    20482888.378
       243.000         213.000
  21869398.039   -18258643.74249 -13373385.18447  21869397.381    21869404.691
       238.000         198.000
  22957152.799   -16639778.95049 -12920311.48446  22957151.715    22957161.863
       223.000         171.000
  23463955.533    -6633616.82049  -5141322.33745  23463960.128    23463966.541
       221.000         157.000
 00  4 18  2 40 30.0000000  0  8G 3G15G17G21G29G23G31G 9
  21630157.593   -24397745.06549 -18982358.43547  21630157.304    21630165.832
       238.000         198.000
  22432030.698   -16152039.77049 -12176369.27346  22432030.239    22432040.467
       227.000         175.000
  22690467.782   -13848443.98349 -10404047.35946  22690467.136    22690476.528
       226.000         173.000
  21145131.632   -21980801.22449 -17111459.62447  21145131.000    21145138.840
       244.000         209.000
  20475646.726   -25857064.07349 -18878704.23848  20475646.445    20475653.256
       244.000         214.000
  21877593.691   -18215575.25349 -13339825.30047  21877593.107    21877600.645
       237.000         198.000
  22949122.667   -16681977.30449 -12953193.22746  22949122.373    22949132.268
       222.000         171.000
  23464738.816    -6629506.02049  -5138119.08045  23464740.608    23464747.114
       216.000         158.000
 00  4 18  2 41  0.0000000  0  8G 3G15G17G21G29G23G31G 9
  21633653.017   -24379376.74549 -18968045.45147  21633652.764    21633661.479
       238.000         198.000
  22414954.487   -16241775.34449 -12246292.93046  22414953.011    22414964.154
       226.000         175.000
  22705576.425   -13769047.54449 -10342180.03746  22705575.447    22705585.096
       224.000         173.000
  21142193.676   -21996240.15249 -17123489.91547  21142193.064    21142200.656
       244.000         209.000
  20468500.539   -25894617.32449 -18907966.44448  20468500.172    20468506.906
       244.000         214.000
  21885798.679   -18172457.65249 -13306227.15447  21885798.007    21885805.275
       238.000         198.000
  22941191.631   -16723654.60549 -12985668.96546  22941190.614    22941200.989
       223.000         171.000
  23465622.647    -6624866.06149  -5134503.42445  23465621.938    23465629.564
       217.000         158.000
 00  4 18  2 41 30.0000000  0  8G 3G15G17G21G29G23G31G 9
  21637250.991   -24360468.63549 -18953311.86647  21637250.783    21637259.562
       238.000         198.000
  22397895.515   -16331420.10849 -12316145.82446  22397893.921    22397905.132
       227.000         176.000
  22720740.858   -13689358.15049 -10280084.42046  22720740.509    22720749.265
       225.000         172.000
  21139279.209   -22011555.60949 -17135423.99247  21139278.512    21139286.051
       244.000         209.000
  20461442.668   -25931706.45249 -18936866.99448  20461442.458    20461449.207
       244.000         214.000
  21894012.215   -18129295.19449 -13272594.05047  21894011.721    21894019.024
       238.000         198.000
  22933357.423   -16764822.99949 -13017748.13646  22933356.468    22933366.984
       225.000         171.000
  23466610.054    -6619678.76049  -5130461.32045  23466608.615    23466616.597
       216.000         157.000
 00  4 18  2 42  0.0000000  0  8G 3G15G17G21G29G23G31G 9
  21640949.970   -24341030.36849 -18938165.16647  21640949.652    21640958.444
       237.000         198.000
  22380853.683   -16420974.81049 -12385928.54446  22380852.638    22380863.629
       227.000         176.000
  22735961.677   -13609372.21449 -10217757.73446  22735961.601    22735970.663
       223.000         172.000
  21136389.948   -22026738.56849 -17147254.82247  21136389.322    21136396.899
       243.000         209.000
  20454474.235   -25968325.62649 -18965401.34848  20454473.992    20454480.516
       244.000         214.000
  21902232.663   -18086096.48549 -13238932.69647  21902231.641    21902239.619
       237.000         197.000
  22925621.341   -16805475.72749 -13049425.51046  22925620.983    22925631.116
       224.000         171.000
  23467701.858    -6613937.25249  -5125987.39145  23467706.455    23467707.681
       223.000         157.000
 00  4 18  2 42 30.0000000  0  8G 3G15G17G21G29G23G31G 9
  21644747.478   -24321074.53249 -18922615.16647  21644747.183    21644755.831
       239.000         198.000
  22363829.582   -16510436.43949 -12455638.73446  22363828.084    22363839.334
       228.000         177.000
  22751235.864   -13529105.59249 -10155212.33946  22751235.877    22751244.358
       224.000         172.000
  21133528.314   -22041776.37849 -17158972.54747  21133527.623    21133535.099
       243.000         209.000
  20447595.842   -26004471.63049 -18993566.99548  20447595.494    20447601.915
       244.000         214.000
  21910461.333   -18042854.23649 -13205237.41847  21910460.674    21910468.187
       237.000         197.000
  22917988.980   -16845583.56049 -13080678.26946  22917987.607    22917998.493
       226.000         171.000
  23468903.291    -6607631.62349  -5121073.82145  23468900.588    23468909.486
       213.000         158.000
 00  4 18  2 43  0.0000000  0  8G 3G15G17G21G29G23G31G 9
  21648643.992   -24300598.36649 -18906659.70647  21648643.616    21648652.424
       239.000         198.000
  22346825.926   -16599790.73749 -12525265.28946  22346824.965    22346835.203
       228.000         178.000
  22766561.917   -13448566.95949 -10092454.98246  22766561.028    22766570.274
       222.000         171.000
  21130697.141   -22056653.97749 -17170565.42847  21130696.563    21130704.092
       243.000         209.000
  20440810.911   -26040126.25049 -19021349.75248  20440810.531    20440817.113
       244.000         214.000
  21918698.723   -17999566.27849 -13171506.52247  21918698.101    21918705.755
       237.000         197.000
  22910463.569   -16885129.43849 -13111493.16146  22910462.817    22910473.568
       225.000         172.000
  23470212.189    -6600749.19849  -5115710.79745  23470208.373    23470220.872
       208.000         158.000
 00  4 18  2 43 30.0000000  0  8G 3G15G17G21G29G23G31G 9
  21652642.798   -24279584.70749 -18890285.43147  21652642.398    21652651.229
       239.000         198.000
  22329845.087   -16689024.94049 -12594798.25946  22329843.941    22329853.746
       228.000         178.000
  22781940.228   -13367753.35849 -10029483.36646  22781939.751    22781949.211
       223.000         171.000
  21127898.873   -22071358.75149 -17182023.64547  21127898.210    21127905.971
       243.000         210.000
  20434122.440   -26075274.13949 -19048737.65148  20434122.371    20434128.837
       244.000         214.000
  21926950.333   -17956203.79649 -13137717.55547  21926949.619    21926957.119
       237.000         197.000
  22903044.592   -16924116.23749 -13141872.39246  22903043.823    22903053.804
       227.000         173.000
  23471635.739    -6593265.75649  -5109879.52945  23471643.629    23471639.622
       225.000         157.000
